[[{"header":{"parameterUnit":"m.s-1","parameterCategory":1,"la1":31.0,"la2":29.5877,"lo1":-88.7671,"lo2":-86.6584,"dy":0.0162,"dx":0.0185,"nx":115,"ny":88,"refTime":"2023-08-26T18:00:00:Z","depth":0,"parameterNumber":2,"parameterNumberName":"U-component_of_WINDS"},"data":[0.0,0.0,0.0,0.0,0.0,0.0,0.0,0.0,0.0,0.0,0.0,0.0,0.0,0.0,0.0,0.0,0.0,0.0,0.0,0.0,0.0,0.0,0.0,0.0,0.0,0.0,0.0,0.0,0.0,0.0,0.0,0.0,0.0,0.0,0.0,0.0,0.0,0.0,0.0,0.0,0.0,0.0,0.0,0.0,0.0,0.0,0.0,0.0,0.0,0.0,0.0,0.0,0.0,0.0,0.0,0.0,0.0,0.0,0.0,0.0,0.0,0.0,0.0,0.0,0.0,0.0,0.0,0.0,0.0,0.0,0.0,0.0,0.0,0.0,0.0,0.0,0.0,0.0,0.0,0.0,0.0,0.0,0.0,0.0,0.0,0.0,0.0,0.0,0.0,0.0,0.0,0.0,0.0,0.0,0.0,0.0,0.0,0.0,0.0,0.0,0.0,0.0,0.0,0.0,0.0,0.0,0.0,0.0,0.0,0.0,0.0,0.0,0.0,0.0,0.0,0.0,0.0,0.0,0.0,0.0,0.0,0.0,0.0,0.0,0.0,0.0,0.0,0.0,0.0,0.0,0.0,0.0,0.0,0.0,0.0,0.0,0.0,0.0,0.0,0.0,0.0,0.0,0.0,0.0,0.0,0.0,0.0,0.0,0.0,0.0,0.0,0.0,0.0,0.0,0.0,0.0,0.0,0.0,0.0,0.0,0.0,0.0,0.0,0.0,0.0,0.0,0.0,0.0,0.0,0.0,0.0,0.0,0.0,0.0,0.0,0.0,0.0,0.0,0.0,0.0,0.0,0.0,0.0,0.0,0.0,0.0,0.0,0.0,0.0,0.0,0.0,0.0,0.0,0.0,0.0,0.0,0.0,0.0,0.0,0.0,0.0,0.0,0.0,0.0,0.0,0.0,0.0,0.0,0.0,0.0,0.0,0.0,0.0,0.0,0.0,0.0,0.0,0.0,0.0,0.0,0.0,0.0,0.0,0.0,0.0,0.0,0.0,0.0,0.0,0.0,0.0,0.0,0.0,0.0,0.0,0.0,0.0,0.0,0.0,0.0,0.0,0.0,0.0,0.0,0.0,0.0,0.0,0.0,0.0,0.0,0.0,0.0,0.0,0.0,0.0,0.0,0.0,0.0,0.0,0.0,0.0,0.0,0.0,0.0,0.0,0.0,0.0,0.0,0.0,0.0,0.0,0.0,0.0,0.0,0.0,0.0,0.0,0.0,0.0,0.0,0.0,0.0,0.0,0.0,0.0,0.0,0.0,0.0,0.0,0.0,0.0,0.0,0.0,0.0,0.0,0.0,0.0,0.0,0.0,0.0,0.0,0.0,0.0,0.0,0.0,0.0,0.0,0.0,0.0,0.0,0.0,0.0,0.0,0.0,0.0,0.0,0.0,0.0,0.0,0.0,0.0,0.0,0.0,0.0,0.0,0.0,0.0,0.0,0.0,0.0,0.0,0.0,0.0,0.0,0.0,0.0,0.0,0.0,0.0,0.0,0.0,0.0,0.0,0.0,0.0,0.0,0.0,0.0,0.0,0.0,0.0,0.0,0.0,0.0,0.0,0.0,0.0,0.0,0.0,0.0,0.0,0.0,0.0,0.0,0.0,0.0,0.0,0.0,0.0,0.0,0.0,0.0,0.0,0.0,0.0,0.0,0.0,0.0,0.0,0.0,0.0,0.0,0.0,0.0,0.0,0.0,0.0,0.0,0.0,0.0,0.0,0.0,0.0,0.0,0.0,0.0,0.0,0.0,0.0,0.0,0.0,0.0,0.0,0.0,0.0,0.0,0.0,0.0,0.0,0.0,0.0,0.0,0.0,0.0,0.0,0.0,0.0,0.0,0.0,0.0,0.0,0.0,0.0,0.0,0.0,0.0,0.0,0.0,0.0,0.0,0.0,0.0,0.0,0.0,0.0,0.0,0.0,0.0,0.0,0.0,0.0,0.0,0.0,0.0,0.0,0.0,0.0,0.0,0.0,0.0,0.0,0.0,0.0,0.0,0.0,0.0,0.0,0.0,0.0,0.0,0.0,0.0,0.0,0.0,0.0,0.0,0.0,0.0,0.0,0.0,0.0,0.0,0.0,0.0,0.0,0.0,0.0,0.0,0.0,0.0,0.0,0.0,0.0,0.0,0.0,0.0,0.0,0.0,0.0,0.0,0.0,0.0,0.0,0.0,0.0,0.0,0.0,0.0,0.0,0.0,0.0,0.0,0.0,0.0,0.0,0.0,0.0,0.0,0.0,0.0,0.0,0.0,0.0,0.0,0.0,0.0,0.0,0.0,0.0,0.0,0.0,0.0,0.0,0.0,0.0,0.0,0.0,0.0,0.0,0.0,0.0,0.0,0.0,0.0,0.0,0.0,0.0,0.0,0.0,0.0,0.0,0.0,0.0,0.0,0.0,0.0,0.0,0.0,0.0,0.0,0.0,0.0,0.0,0.0,0.0,0.0,0.0,0.0,0.0,0.0,0.0,0.0,0.0,0.0,0.0,0.0,0.0,0.0,0.0,0.0,0.0,0.0,0.0,0.0,0.0,0.0,0.0,0.0,0.0,0.0,0.0,0.0,0.0,0.0,0.0,0.0,0.0,0.0,0.0,0.0,0.0,0.0,0.0,0.0,0.0,0.0,0.0,0.0,0.0,0.0,0.0,0.0,0.0,0.0,0.0,0.0,0.0,0.0,0.0,0.0,0.0,0.0,0.0,0.0,0.0,0.0,0.0,0.0,0.0,0.0,0.0,0.0,0.0,0.0,0.0,0.0,0.0,0.0,0.0,0.0,0.0,0.0,0.0,0.0,0.0,0.0,0.0,0.0,0.0,0.0,0.0,0.0,0.0,0.0,0.0,0.0,0.0,0.0,0.0,0.0,0.0,0.0,0.0,0.0,0.0,0.0,0.0,0.0,0.0,0.0,0.0,0.0,0.0,0.0,0.0,0.0,0.0,0.0,0.0,0.0,0.0,0.0,0.0,0.0,0.0,0.0,0.0,0.0,0.0,0.0,0.0,0.0,0.0,0.0,0.0,0.0,0.0,0.0,0.0,0.0,0.0,0.0,0.0,0.0,0.0,0.0,0.0,0.0,0.0,0.0,0.0,0.0,0.0,0.0,0.0,0.0,0.0,0.0,0.0,0.0,0.0,0.0,0.0,0.0,0.0,0.0,0.0,0.0,0.0,0.0,0.0,0.0,0.0,0.0,0.0,0.0,0.0,0.0,0.0,0.0,0.0,0.0,0.0,0.0,0.0,0.0,0.0,0.0,0.0,0.0,0.0,0.0,0.0,0.0,0.0,0.0,0.0,0.0,0.0,0.0,0.0,0.0,0.0,0.0,0.0,0.0,0.0,0.0,0.0,0.0,0.0,0.0,0.0,0.0,0.0,0.0,0.0,0.0,0.0,0.0,0.0,0.0,0.0,0.0,0.0,0.0,0.0,0.0,0.0,0.0,0.0,0.0,0.0,0.0,0.0,0.0,0.0,0.0,0.0,0.0,0.0,0.0,0.0,0.0,0.0,0.0,0.0,0.0,0.0,0.0,0.0,0.0,0.0,0.0,0.0,0.0,0.0,0.0,0.0,0.0,0.0,0.0,0.0,0.0,0.0,0.0,0.0,0.0,0.0,0.0,0.0,0.0,0.0,0.0,0.0,0.0,0.0,0.0,0.0,0.0,0.0,0.0,0.0,0.0,0.0,0.0,0.0,0.0,0.0,0.0,0.0,0.0,0.0,0.0,0.0,0.0,0.0,0.0,0.0,0.0,0.0,0.0,0.0,0.0,0.0,0.0,0.0,0.0,0.0,0.0,0.0,0.0,0.0,0.0,0.0,0.0,0.0,0.0,0.0,0.0,0.0,0.0,0.0,0.0,0.0,0.0,0.0,0.0,0.0,0.0,0.0,0.0,0.0,0.0,0.0,0.0,0.0,0.0,0.0,0.0,0.0,0.0,0.0,0.0,0.0,0.0,0.0,0.0,0.0,0.0,0.0,0.0,0.0,0.0,0.0,0.0,0.0,0.0,0.0,0.0,0.0,0.0,0.0,0.0,0.0,0.0,0.0,0.0,0.0,0.0,0.0,0.0,0.0,0.0,0.0,0.0,0.0,0.0,0.0,0.0,0.0,0.0,0.0,0.0,0.0,0.0,0.0,0.0,0.0,0.0,0.0,0.0,0.0,0.0,0.0,0.0,0.0,0.0,0.0,0.0,0.0,0.0,0.0,0.0,0.0,0.0,0.0,0.0,0.0,0.0,0.0,0.0,0.0,0.0,0.0,0.0,1.508,0.0,0.0,0.0,0.0,0.0,0.0,0.0,0.0,0.0,0.0,0.0,0.0,0.0,0.0,0.0,0.0,0.0,0.0,0.0,0.0,0.0,0.0,0.0,0.0,0.0,0.0,0.0,0.0,0.0,0.0,0.0,0.0,0.0,0.0,0.0,0.0,0.0,0.0,0.0,0.0,0.0,0.0,0.0,0.0,0.0,0.0,0.0,0.0,0.0,0.0,0.0,0.0,0.0,0.0,0.0,0.0,0.0,0.0,0.0,0.0,0.0,0.0,0.0,0.0,0.0,0.0,0.0,0.0,0.0,0.0,0.0,0.0,0.0,0.0,0.0,0.0,0.0,0.0,0.0,0.0,0.0,0.0,0.0,0.0,0.0,0.0,0.0,0.0,0.0,0.0,0.0,0.0,0.0,0.0,0.0,0.0,0.0,0.0,0.0,0.0,0.0,0.0,0.0,0.0,0.0,0.0,0.0,0.0,0.0,0.0,1.4923,1.4955,1.5019,1.5083,1.5113,0.0,0.0,0.0,0.0,0.0,0.0,0.0,0.0,0.0,0.0,0.0,0.0,0.0,0.0,0.0,0.0,0.0,0.0,0.0,0.0,0.0,0.0,0.0,0.0,0.0,0.0,0.0,0.0,0.0,0.0,0.0,0.0,0.0,0.0,0.0,0.0,0.0,0.0,0.0,0.0,0.0,0.0,0.0,0.0,0.0,0.0,0.0,0.0,0.0,0.0,0.0,0.0,0.0,0.0,0.0,0.0,0.0,0.0,0.0,0.0,0.0,0.0,0.0,0.0,0.0,0.0,0.0,0.0,0.0,0.0,0.0,0.0,0.0,0.0,0.0,0.0,0.0,0.0,0.0,0.0,0.0,0.0,0.0,0.0,0.0,0.0,0.0,0.0,0.0,0.0,0.0,0.0,0.0,0.0,0.0,0.0,0.0,0.0,0.0,0.0,0.0,0.0,0.0,0.0,0.0,0.0,0.0,0.0,0.0,0.0,0.0,0.0,1.5148,1.5112,1.5114,0.0,0.0,0.0,0.0,0.0,0.0,0.0,0.0,0.0,0.0,0.0,0.0,0.0,0.0,0.0,0.0,0.0,0.0,0.0,0.0,0.0,0.0,0.0,0.0,0.0,0.0,0.0,0.0,0.0,0.0,0.0,0.0,0.0,0.0,0.0,0.0,0.0,0.0,0.0,0.0,0.0,0.0,0.0,0.0,0.0,0.0,0.0,0.0,0.0,0.0,0.0,0.0,0.0,0.0,0.0,0.0,0.0,0.0,0.0,0.0,0.0,0.0,0.0,0.0,0.0,0.0,0.0,0.0,0.0,0.0,0.0,0.0,0.0,0.0,0.0,0.0,0.0,0.0,0.0,0.0,0.0,0.0,0.0,0.0,0.0,0.0,0.0,0.0,0.0,0.0,0.0,0.0,0.0,0.0,0.0,0.0,0.0,0.0,0.0,0.0,0.0,0.0,0.0,0.0,0.0,0.0,0.0,0.0,0.0,0.0,1.5272,1.6054,1.5426,0.0,1.5203,0.0,0.0,0.0,0.0,0.0,0.0,0.0,0.0,0.0,0.0,0.0,0.0,0.0,0.0,0.0,0.0,0.0,0.0,0.0,0.0,0.0,0.0,0.0,0.0,0.0,0.0,0.0,0.0,0.0,0.0,0.0,0.0,0.0,0.0,0.0,0.0,0.0,0.0,0.0,0.0,0.0,0.0,0.0,0.0,0.0,0.0,0.0,0.0,0.0,0.0,0.0,0.0,0.0,0.0,0.0,0.0,0.0,0.0,0.0,0.0,0.0,0.0,0.0,0.0,0.0,0.0,0.0,0.0,0.0,0.0,0.0,0.0,0.0,0.0,0.0,0.0,0.0,0.0,0.0,0.0,0.0,0.0,0.0,0.0,0.0,0.0,0.0,0.0,0.0,0.0,0.0,0.0,0.0,0.0,0.0,0.0,0.0,0.0,0.0,0.0,0.0,0.0,0.0,0.0,0.0,0.0,0.0,0.0,0.0,0.0,1.5153,1.5551,1.5292,1.5177,0.0,0.0,0.0,0.0,0.0,0.0,0.0,0.0,0.0,0.0,0.0,0.0,0.0,0.0,0.0,0.0,0.0,0.0,0.0,0.0,0.0,0.0,0.0,0.0,0.0,0.0,0.0,0.0,0.0,0.0,0.0,0.0,0.0,0.0,0.0,0.0,0.0,0.0,0.0,0.0,0.0,0.0,0.0,0.0,0.0,0.0,0.0,0.0,0.0,0.0,0.0,0.0,0.0,0.0,0.0,0.0,0.0,0.0,0.0,0.0,0.0,0.0,0.0,0.0,0.0,0.0,0.0,0.0,0.0,0.0,0.0,0.0,0.0,0.0,0.0,0.0,0.0,0.0,0.0,0.0,0.0,0.0,0.0,0.0,0.0,0.0,0.0,0.0,0.0,0.0,0.0,0.0,0.0,0.0,0.0,0.0,0.0,0.0,0.0,0.0,0.0,0.0,0.0,0.0,0.0,0.0,0.0,0.0,0.0,0.0,1.512,1.5046,1.5112,1.5164,1.5193,1.5195,0.0,0.0,0.0,0.0,0.0,0.0,0.0,0.0,0.0,0.0,0.0,0.0,0.0,0.0,0.0,0.0,0.0,0.0,0.0,0.0,0.0,0.0,0.0,0.0,0.0,0.0,0.0,0.0,0.0,0.0,0.0,0.0,0.0,0.0,0.0,0.0,0.0,0.0,0.0,0.0,0.0,0.0,0.0,0.0,0.0,0.0,0.0,0.0,0.0,0.0,0.0,0.0,0.0,0.0,0.0,0.0,0.0,0.0,0.0,0.0,0.0,0.0,0.0,0.0,0.0,0.0,0.0,0.0,0.0,0.0,0.0,0.0,0.0,0.0,0.0,0.0,0.0,0.0,0.0,0.0,0.0,0.0,0.0,0.0,0.0,0.0,0.0,0.0,0.0,0.0,0.0,0.0,0.0,0.0,0.0,0.0,0.0,0.0,0.0,0.0,0.0,0.0,0.0,0.0,0.0,0.0,0.0,0.0,1.61,1.5405,1.5038,1.5108,1.5157,1.5193,0.0,0.0,0.0,0.0,0.0,0.0,0.0,0.0,0.0,0.0,0.0,0.0,0.0,0.0,0.0,0.0,0.0,0.0,0.0,0.0,0.0,0.0,0.0,0.0,0.0,0.0,0.0,0.0,0.0,0.0,0.0,0.0,0.0,0.0,0.0,0.0,0.0,0.0,0.0,0.0,0.0,0.0,0.0,0.0,0.0,0.0,0.0,0.0,0.0,0.0,0.0,0.0,0.0,0.0,0.0,0.0,0.0,0.0,0.0,0.0,0.0,0.0,0.0,0.0,0.0,0.0,0.0,0.0,0.0,0.0,0.0,0.0,0.0,0.0,0.0,0.0,0.0,0.0,0.0,0.0,0.0,0.0,0.0,0.0,0.0,0.0,0.0,0.0,0.0,0.0,0.0,0.0,0.0,0.0,0.0,0.0,0.0,0.0,0.0,0.0,0.0,0.0,0.0,0.0,0.0,0.0,0.0,0.0,0.0,1.6219,1.5472,1.5101,1.5163,1.5199,1.5193,0.0,0.0,0.0,0.0,0.0,0.0,0.0,0.0,0.0,0.0,0.0,0.0,0.0,0.0,0.0,0.0,0.0,0.0,0.0,0.0,0.0,0.0,0.0,0.0,0.0,0.0,0.0,0.0,0.0,0.0,0.0,0.0,0.0,0.0,0.0,0.0,0.0,0.0,0.0,0.0,0.0,0.0,0.0,0.0,0.0,0.0,0.0,0.0,0.0,0.0,0.0,0.0,0.0,0.0,0.0,0.0,0.0,0.0,0.0,0.0,0.0,0.0,0.0,0.0,0.0,0.0,0.0,0.0,0.0,0.0,0.0,0.0,0.0,0.0,0.0,0.0,0.0,0.0,0.0,0.0,0.0,0.0,0.0,0.0,0.0,0.0,0.0,0.0,0.0,0.0,0.0,0.0,0.0,0.0,0.0,0.0,0.0,0.0,0.0,0.0,0.0,0.0,0.0,0.0,0.0,0.0,0.0,0.0,0.0,1.5911,0.0,1.5164,1.5224,1.5474,1.5611,0.0,0.0,0.0,0.0,0.0,0.0,0.0,0.0,0.0,0.0,0.0,0.0,0.0,0.0,0.0,0.0,0.0,0.0,0.0,0.0,0.0,0.0,0.0,0.0,0.0,0.0,0.0,0.0,0.0,0.0,0.0,0.0,0.0,0.0,0.0,0.0,0.0,0.0,0.0,0.0,0.0,0.0,0.0,0.0,0.0,0.0,0.0,0.0,0.0,0.0,0.0,0.0,0.0,0.0,0.0,0.0,0.0,0.0,0.0,0.0,0.0,0.0,0.0,0.0,0.0,0.0,0.0,0.0,0.0,0.0,0.0,0.0,0.0,0.0,0.0,0.0,0.0,0.0,0.0,0.0,0.0,0.0,0.0,0.0,0.0,0.0,0.0,0.0,0.0,0.0,0.0,0.0,0.0,0.0,0.0,0.0,0.0,0.0,0.0,0.0,0.0,0.0,0.0,0.0,0.0,0.0,0.0,0.0,1.5945,1.5185,1.5197,1.5201,1.5224,1.6008,1.6439,0.0,0.0,0.0,0.0,0.0,0.0,0.0,0.0,0.0,0.0,0.0,0.0,0.0,0.0,0.0,0.0,0.0,0.0,0.0,0.0,0.0,0.0,0.0,0.0,0.0,0.0,0.0,0.0,0.0,0.0,0.0,0.0,0.0,0.0,0.0,0.0,0.0,0.0,0.0,0.0,0.0,0.0,0.0,0.0,0.0,0.0,0.0,0.0,0.0,0.0,0.0,0.0,0.0,0.0,0.0,0.0,0.0,0.0,0.0,0.0,0.0,0.0,0.0,0.0,0.0,0.0,0.0,0.0,0.0,0.0,0.0,0.0,0.0,0.0,0.0,0.0,0.0,0.0,0.0,0.0,0.0,0.0,0.0,0.0,0.0,0.0,0.0,0.0,0.0,0.0,0.0,0.0,0.0,0.0,0.0,0.0,0.0,0.0,0.0,0.0,0.0,0.0,0.0,0.0,0.0,0.0,0.0,0.0,0.0,1.6016,1.5476,1.5201,1.5226,1.6039,1.6484,0.0,0.0,0.0,0.0,0.0,0.0,0.0,0.0,0.0,0.0,0.0,0.0,0.0,0.0,0.0,0.0,0.0,0.0,0.0,0.0,0.0,0.0,0.0,0.0,0.0,0.0,0.0,0.0,0.0,0.0,0.0,0.0,0.0,0.0,0.0,0.0,0.0,0.0,0.0,0.0,0.0,0.0,0.0,0.0,0.0,0.0,0.0,0.0,0.0,0.0,0.0,0.0,0.0,0.0,0.0,0.0,0.0,0.0,0.0,0.0,0.0,0.0,0.0,0.0,0.0,0.0,0.0,0.0,0.0,0.0,0.0,0.0,0.0,0.0,0.0,0.0,0.0,0.0,0.0,0.0,0.0,0.0,0.0,0.0,0.0,0.0,0.0,0.0,0.0,0.0,0.0,0.0,0.0,0.0,0.0,0.0,0.0,0.0,0.0,0.0,0.0,0.0,0.0,0.0,0.0,0.0,0.0,0.0,0.0,1.6816,1.5788,1.5241,1.5237,1.6087,1.6644,1.6864,0.0,0.0,0.0,0.0,0.0,0.0,0.0,0.0,0.0,0.0,0.0,0.0,0.0,0.0,0.0,0.0,0.0,0.0,0.0,0.0,0.0,0.0,0.0,0.0,0.0,0.0,0.0,0.0,0.0,0.0,0.0,0.0,0.0,0.0,0.0,0.0,0.0,0.0,0.0,0.0,0.0,0.0,0.0,0.0,0.0,0.0,0.0,0.0,0.0,0.0,0.0,0.0,0.0,0.0,0.0,0.0,0.0,0.0,0.0,0.0,0.0,0.0,0.0,0.0,0.0,0.0,0.0,0.0,0.0,0.0,0.0,0.0,0.0,0.0,0.0,0.0,0.0,0.0,0.0,0.0,0.0,0.0,0.0,0.0,0.0,0.0,0.0,0.0,0.0,0.0,0.0,0.0,0.0,0.0,0.0,0.0,0.0,0.0,0.0,0.0,0.0,0.0,0.0,0.0,0.0,0.0,0.0,0.0,1.7524,1.6119,1.5381,1.5381,1.6227,1.6997,0.0,0.0,0.0,0.0,0.0,0.0,0.0,0.0,0.0,0.0,0.0,0.0,0.0,0.0,0.0,0.0,0.0,0.0,0.0,0.0,0.0,0.0,0.0,0.0,0.0,0.0,0.0,0.0,0.0,0.0,0.0,0.0,0.0,0.0,0.0,0.0,0.0,0.0,0.0,0.0,0.0,0.0,0.0,0.0,0.0,0.0,0.0,0.0,0.0,0.0,0.0,0.0,0.0,0.0,0.0,0.0,0.0,0.0,0.0,0.0,0.0,0.0,0.0,0.0,0.0,0.0,0.0,0.0,0.0,0.0,0.0,0.0,0.0,0.0,0.0,0.0,0.0,0.0,0.0,0.0,0.0,0.0,0.0,0.0,0.0,0.0,0.0,0.0,0.0,0.0,0.0,0.0,0.0,0.0,0.0,0.0,0.0,0.0,0.0,0.0,0.0,0.0,0.0,0.0,0.0,0.0,0.0,0.0,0.0,1.6651,1.6334,1.6215,1.627,1.7038,1.7549,0.0,0.0,0.0,0.0,0.0,0.0,0.0,0.0,0.0,0.0,0.0,0.0,0.0,0.0,0.0,0.0,0.0,0.0,0.0,0.0,0.0,0.0,0.0,0.0,0.0,0.0,0.0,0.0,0.0,0.0,0.0,0.0,0.0,0.0,0.0,0.0,0.0,0.0,0.0,0.0,0.0,0.0,0.0,0.0,0.0,0.0,0.0,0.0,0.0,0.0,0.0,0.0,0.0,0.0,0.0,0.0,0.0,0.0,0.0,0.0,0.0,0.0,0.0,0.0,0.0,0.0,0.0,0.0,0.0,0.0,0.0,0.0,0.0,0.0,0.0,0.0,0.0,0.0,0.0,0.0,0.0,0.0,0.0,0.0,0.0,0.0,0.0,0.0,0.0,0.0,0.0,0.0,0.0,0.0,0.0,0.0,0.0,0.0,0.0,0.0,0.0,0.0,0.0,0.0,0.0,0.0,0.0,0.0,1.663,1.6281,1.6791,1.6917,1.66,1.707,1.7474,0.0,0.0,0.0,0.0,0.0,0.0,0.0,0.0,0.0,0.0,0.0,0.0,0.0,0.0,0.0,0.0,0.0,0.0,0.0,0.0,0.0,0.0,0.0,0.0,0.0,0.0,0.0,0.0,0.0,0.0,0.0,0.0,0.0,0.0,0.0,0.0,0.0,0.0,0.0,0.0,0.0,0.0,0.0,0.0,0.0,0.0,0.0,0.0,0.0,0.0,0.0,0.0,0.0,0.0,0.0,0.0,0.0,0.0,0.0,0.0,0.0,0.0,0.0,0.0,0.0,0.0,0.0,0.0,0.0,0.0,0.0,0.0,0.0,0.0,0.0,0.0,0.0,0.0,0.0,0.0,0.0,0.0,0.0,0.0,0.0,0.0,0.0,0.0,0.0,0.0,0.0,0.0,0.0,0.0,0.0,0.0,0.0,0.0,0.0,0.0,0.0,0.0,0.0,0.0,0.0,0.0,0.0,0.0,1.6035,1.61,1.7105,1.7282,1.6499,1.6706,1.7137,0.0,0.0,0.0,0.0,0.0,0.0,0.0,0.0,0.0,0.0,0.0,0.0,0.0,0.0,0.0,0.0,0.0,0.0,0.0,0.0,0.0,0.0,0.0,0.0,0.0,0.0,0.0,0.0,0.0,0.0,0.0,0.0,0.0,0.0,0.0,0.0,0.0,0.0,0.0,0.0,0.0,0.0,0.0,0.0,0.0,0.0,0.0,0.0,0.0,0.0,0.0,0.0,0.0,0.0,0.0,0.0,0.0,0.0,0.0,0.0,0.0,0.0,0.0,0.0,0.0,0.0,0.0,0.0,0.0,0.0,0.0,0.0,0.0,0.0,0.0,0.0,0.0,0.0,0.0,0.0,0.0,0.0,0.0,0.0,0.0,0.0,0.0,0.0,0.0,0.0,0.0,0.0,0.0,0.0,0.0,0.0,0.0,0.0,0.0,0.0,0.0,0.0,0.0,0.0,0.0,0.0,0.0,0.0,1.5704,1.5277,1.6259,1.6401,1.5598,1.6914,1.7688,0.0,0.0,0.0,0.0,0.0,0.0,0.0,0.0,0.0,0.0,0.0,0.0,0.0,0.0,0.0,0.0,0.0,0.0,0.0,0.0,0.0,0.0,0.0,0.0,0.0,0.0,0.0,0.0,0.0,0.0,0.0,0.0,0.0,0.0,0.0,0.0,0.0,0.0,0.0,0.0,0.0,0.0,0.0,0.0,0.0,0.0,0.0,0.0,-1.7158,0.0,0.0,0.0,0.0,0.0,0.0,0.0,0.0,0.0,0.0,0.0,0.0,0.0,0.0,0.0,0.0,0.0,0.0,0.0,0.0,0.0,0.0,0.0,0.0,0.0,0.0,0.0,0.0,0.0,0.0,0.0,0.0,0.0,0.0,0.0,0.0,0.0,0.0,0.0,0.0,0.0,0.0,0.0,0.0,0.0,0.0,0.0,0.0,0.0,0.0,0.0,0.0,0.0,0.0,0.0,0.0,0.0,0.0,0.0,1.556,1.5006,1.5965,1.6121,1.5402,1.6586,1.7272,0.0,0.0,0.0,0.0,0.0,0.0,0.0,0.0,0.0,0.0,0.0,0.0,0.0,0.0,0.0,0.0,0.0,0.0,0.0,0.0,0.0,0.0,0.0,0.0,0.0,0.0,0.0,0.0,0.0,0.0,0.0,0.0,0.0,0.0,0.0,0.0,0.0,0.0,0.0,0.0,0.0,0.0,0.0,0.0,0.0,0.0,0.0,0.0,0.0,0.0,0.0,0.0,0.0,0.0,0.0,0.0,0.0,0.0,0.0,0.0,0.0,0.0,0.0,0.0,0.0,0.0,0.0,0.0,0.0,0.0,0.0,0.0,0.0,0.0,0.0,0.0,0.0,0.0,0.0,0.0,0.0,0.0,0.0,0.0,0.0,0.0,0.0,0.0,0.0,0.0,0.0,0.0,0.0,0.0,0.0,0.0,0.0,0.0,0.0,0.0,0.0,0.0,0.0,0.0,0.0,0.0,0.0,1.606,1.553,1.496,1.5818,1.5984,1.5344,1.6014,1.6482,1.6605,0.0,0.0,0.0,0.0,0.0,0.0,0.0,0.0,0.0,0.0,0.0,0.0,0.0,0.0,0.0,0.0,0.0,0.0,0.0,0.0,0.0,0.0,0.0,0.0,0.0,0.0,0.0,0.0,0.0,0.0,0.0,0.0,0.0,0.0,0.0,0.0,0.0,0.0,-0.4382,-1.1699,0.0,0.0,0.0,0.0,0.0,0.0,0.0,0.0,-1.6337,0.0,0.0,0.0,0.0,0.0,0.0,0.0,0.0,0.0,0.0,0.0,0.0,0.0,0.0,0.0,0.0,0.0,0.0,0.0,0.0,0.0,0.0,0.0,0.0,0.0,0.0,0.0,0.0,0.0,0.0,0.0,0.0,0.0,0.0,0.0,0.0,0.0,0.0,0.0,0.0,0.0,0.0,0.0,0.0,0.0,0.0,0.0,0.0,0.0,0.0,0.0,0.0,0.0,0.0,0.0,0.0,1.5618,1.5777,1.5563,1.4938,1.5234,1.5373,1.5313,1.5488,1.593,1.6668,0.0,0.0,0.0,0.0,0.0,0.0,0.0,0.0,0.0,0.0,0.0,0.0,0.0,0.0,0.0,0.0,0.0,0.0,0.0,0.0,0.0,0.0,0.0,0.0,0.0,0.0,0.0,0.0,0.0,0.0,0.0,0.0,0.0,0.0,0.0,0.0,0.0,0.0,0.0,-1.2489,-1.5065,0.0,0.0,0.0,0.0,0.0,0.0,0.0,0.0,-1.6545,0.0,0.0,0.0,0.0,0.0,0.0,0.0,0.0,0.0,0.0,0.0,0.0,0.0,0.0,0.0,0.0,0.0,0.0,0.0,0.0,0.0,0.0,0.0,0.0,0.0,0.0,0.0,0.0,0.0,0.0,0.0,0.0,0.0,0.0,0.0,0.0,0.0,0.0,0.0,0.0,0.0,0.0,0.0,0.0,0.0,0.0,0.0,0.0,0.0,0.0,0.0,0.0,0.0,0.0,0.0,1.6059,1.5966,1.5847,1.5624,1.5796,1.5905,1.5964,1.5625,1.6002,0.0,0.0,0.0,0.0,0.0,0.0,0.0,0.0,0.0,0.0,0.0,0.0,0.0,0.0,0.0,0.0,0.0,0.0,0.0,0.0,0.0,0.0,0.0,0.0,0.0,0.0,0.0,0.0,0.0,0.0,0.0,0.0,0.0,0.0,0.0,0.0,0.0,0.0,0.0,0.0,-1.3984,-1.4695,-1.3468,0.0,0.0,0.0,0.0,0.0,0.0,-1.5163,-1.5472,0.0,0.0,0.0,0.0,0.0,0.0,0.0,0.0,0.0,0.0,0.0,0.0,0.0,0.0,0.0,0.0,0.0,0.0,0.0,0.0,0.0,0.0,0.0,0.0,0.0,0.0,0.0,0.0,0.0,0.0,0.0,0.0,0.0,0.0,0.0,0.0,0.0,0.0,0.0,0.0,0.0,0.0,0.0,0.0,0.0,0.0,0.0,0.0,0.0,0.0,0.0,0.0,0.0,0.0,0.0,1.6893,1.6499,1.6375,1.6551,1.6509,1.6619,1.6828,1.5898,1.6293,0.0,0.0,0.0,0.0,0.0,0.0,0.0,0.0,0.0,0.0,0.0,0.0,0.0,0.0,0.0,0.0,0.0,0.0,0.0,0.0,0.0,0.0,0.0,0.0,0.0,0.0,0.0,0.0,0.0,0.0,0.0,0.0,0.0,0.0,0.0,0.0,0.0,0.0,0.0,0.0,0.0,-1.4614,-1.3316,-1.321,0.0,0.0,0.0,0.0,-1.3998,-1.4526,0.0,0.0,0.0,0.0,0.0,0.0,0.0,0.0,0.0,0.0,0.0,0.0,0.0,0.0,0.0,0.0,0.0,0.0,0.0,0.0,0.0,0.0,0.0,0.0,0.0,0.0,0.0,0.0,0.0,0.0,0.0,0.0,0.0,0.0,0.0,0.0,0.0,0.0,0.0,0.0,0.0,0.0,0.0,0.0,0.0,0.0,0.0,0.0,0.0,0.0,0.0,0.0,0.0,0.0,0.0,0.0,1.7899,1.748,1.7311,1.7417,1.683,1.6902,1.7691,1.6227,1.6579,0.0,0.0,0.0,0.0,0.0,0.0,0.0,0.0,0.0,0.0,0.0,0.0,0.0,0.0,0.0,0.0,0.0,0.0,0.0,0.0,0.0,0.0,0.0,0.0,0.0,0.0,0.0,0.0,0.0,0.0,0.0,0.0,0.0,0.0,0.0,0.0,0.0,0.0,0.0,0.0,0.0,-1.4565,-1.336,-1.3594,-1.3714,0.0,0.0,-1.5312,-1.4111,-1.4759,0.0,0.0,0.0,0.0,0.0,0.0,0.0,0.0,0.0,0.0,0.0,0.0,0.0,0.0,0.0,0.0,0.0,0.0,0.0,0.0,0.0,0.0,0.0,0.0,0.0,0.0,0.0,0.0,0.0,0.0,0.0,0.0,0.0,0.0,0.0,0.0,0.0,0.0,0.0,0.0,0.0,0.0,0.0,0.0,0.0,0.0,0.0,0.0,0.0,0.0,0.0,0.0,0.0,0.0,0.0,1.8236,1.8278,1.8214,1.8285,1.8414,1.7658,1.7687,1.8612,1.6997,1.7121,0.0,0.0,0.0,0.0,0.0,0.0,0.0,0.0,0.0,0.0,0.0,0.0,0.0,0.0,0.0,0.0,0.0,0.0,0.0,0.0,0.0,0.0,0.0,0.0,0.0,0.0,0.0,0.0,0.0,0.0,0.0,0.0,0.0,0.0,0.0,0.0,0.0,0.0,0.0,0.0,0.0,0.0,-1.3864,-1.4184,0.0,0.0,0.0,-1.5625,-1.5068,0.0,0.0,0.0,0.0,0.0,0.0,0.0,0.0,0.0,0.0,0.0,0.0,0.0,0.0,0.0,0.0,0.0,0.0,0.0,0.0,0.0,0.0,0.0,0.0,0.0,0.0,0.0,0.0,0.0,0.0,0.0,0.0,0.0,0.0,0.0,0.0,0.0,0.0,0.0,0.0,0.0,0.0,0.0,0.0,0.0,0.0,0.0,0.0,0.0,0.0,0.0,0.0,0.0,0.0,0.0,0.0,0.0,1.8727,1.8789,1.8994,1.9355,1.8563,1.8457,1.914,1.7755,0.0,0.0,0.0,0.0,0.0,0.0,0.0,0.0,0.0,0.0,0.0,0.0,0.0,0.0,0.0,0.0,0.0,0.0,0.0,0.0,0.0,0.0,0.0,0.0,0.0,0.0,0.0,1.3513,0.0,0.0,0.0,0.0,0.0,0.0,0.0,0.0,0.0,0.0,0.0,0.0,0.0,0.0,-1.4956,-1.4573,-1.4907,-1.5196,0.0,0.0,-1.6024,-1.5719,-1.5835,-1.5837,0.0,0.0,0.0,0.0,0.0,0.0,0.0,0.0,0.0,0.0,0.0,0.0,0.0,0.0,0.0,0.0,0.0,0.0,0.0,0.0,0.0,0.0,0.0,0.0,0.0,0.0,0.0,0.0,0.0,0.0,0.0,0.0,0.0,0.0,0.0,0.0,0.0,0.0,0.0,0.0,0.0,0.0,0.0,0.0,0.0,0.0,0.0,0.0,0.0,0.0,0.0,0.0,0.0,0.0,1.8673,1.9545,1.9092,1.9262,2.0147,1.9418,1.9072,1.9178,1.8314,1.8253,0.0,0.0,0.0,0.0,0.0,0.0,0.0,0.0,0.0,0.0,0.0,0.0,0.0,0.0,0.0,0.0,0.0,0.0,0.0,0.0,0.0,0.0,0.0,0.0,0.0,0.0,0.0,0.0,0.0,0.0,0.0,0.0,0.0,0.0,0.0,0.0,0.0,0.0,0.0,0.0,0.0,-1.6005,-1.5471,-1.5775,-1.5807,0.0,-1.6337,-1.6847,-1.5536,-1.5902,-1.6145,-1.5489,0.0,0.0,0.0,0.0,0.0,0.0,0.0,0.0,0.0,0.0,0.0,0.0,0.0,0.0,0.0,0.0,0.0,0.0,0.0,0.0,0.0,0.0,0.0,0.0,0.0,0.0,0.0,0.0,0.0,0.0,0.0,0.0,0.0,0.0,0.0,0.0,0.0,0.0,0.0,0.0,0.0,0.0,0.0,0.0,0.0,0.0,0.0,0.0,0.0,0.0,0.0,0.0,0.0,1.921,1.9762,1.9656,1.9852,2.0308,1.9552,1.9138,1.9199,1.8874,1.8361,0.0,0.0,0.0,0.0,0.0,0.0,0.0,0.0,0.0,0.0,0.0,0.0,0.0,0.0,0.0,0.0,0.0,0.0,0.0,0.0,0.0,0.0,0.0,0.0,0.0,0.0,0.0,0.0,1.3941,1.4727,1.5547,0.0,0.0,0.0,0.0,0.0,0.0,0.0,0.0,0.0,0.0,-1.6918,-1.6429,-1.6709,0.0,0.0,-1.705,-1.7193,-1.6803,-1.6564,-1.6532,-1.679,-1.6817,0.0,0.0,0.0,0.0,0.0,0.0,0.0,0.0,0.0,0.0,0.0,0.0,0.0,0.0,0.0,0.0,0.0,0.0,0.0,0.0,0.0,0.0,0.0,0.0,0.0,0.0,0.0,0.0,0.0,0.0,0.0,0.0,0.0,0.0,0.0,0.0,0.0,0.0,0.0,0.0,0.0,0.0,0.0,0.0,0.0,0.0,0.0,0.0,0.0,0.0,0.0,0.0,1.9503,1.9802,2.0021,2.0219,2.0383,1.9782,1.9282,1.8886,1.9326,1.8643,0.0,0.0,0.0,0.0,0.0,0.0,0.0,0.0,0.0,0.0,0.0,0.0,0.0,0.0,0.0,0.0,0.0,0.0,0.0,0.0,0.0,0.0,0.0,0.0,0.0,0.0,0.0,0.0,1.4445,1.5095,1.4181,0.0,0.0,0.0,0.0,0.0,0.0,0.0,0.0,0.0,0.0,-1.7636,-1.7416,-1.7518,-1.7647,-1.7675,-1.7415,-1.7296,-1.7432,-1.685,-1.662,-1.7271,0.0,0.0,0.0,0.0,0.0,0.0,0.0,0.0,0.0,0.0,0.0,0.0,0.0,0.0,0.0,0.0,0.0,0.0,0.0,0.0,0.0,0.0,0.0,0.0,0.0,0.0,0.0,2.0301,0.0,0.0,2.0294,0.0,0.0,0.0,0.0,0.0,0.0,0.0,0.0,0.0,0.0,0.0,0.0,0.0,0.0,0.0,0.0,0.0,0.0,0.0,0.0,0.0,0.0,1.9494,1.9817,2.0108,2.0284,2.041,2.0381,1.9616,1.8139,1.9608,1.9259,1.673,0.0,0.0,0.0,0.0,0.0,0.0,0.0,0.0,0.0,0.0,0.0,0.0,0.0,0.0,0.0,0.0,0.0,0.0,0.0,0.0,0.0,0.0,0.0,0.0,0.0,0.0,1.4098,1.3598,1.1936,0.0,0.0,0.0,0.0,0.0,0.0,0.0,0.0,0.0,-1.8407,-1.8266,-1.8141,-1.8502,-1.8168,-1.7893,-1.7905,-1.7455,-1.7126,-1.7109,-1.6538,-1.6234,0.0,0.0,0.0,0.0,0.0,0.0,0.0,0.0,0.0,0.0,0.0,0.0,0.0,0.0,0.0,0.0,0.0,0.0,0.0,0.0,0.0,0.0,0.0,0.0,0.0,0.0,0.0,1.978,2.0297,0.0,0.0,0.0,0.0,0.0,0.0,0.0,0.0,0.0,0.0,0.0,1.8994,1.983,0.0,0.0,0.0,0.0,0.0,0.0,0.0,0.0,0.0,0.0,0.0,0.0,2.0224,2.066,2.0871,2.1066,2.1263,2.0697,1.9636,1.8093,1.9629,1.9534,1.7518,0.0,0.0,0.0,0.0,0.0,0.0,0.0,0.0,0.0,0.0,0.0,0.0,0.0,0.0,0.0,0.0,0.0,0.0,0.0,0.0,0.0,0.0,0.0,0.0,0.0,1.3773,0.0,0.0,0.0,0.0,0.0,0.0,0.0,0.0,0.0,0.0,-1.7224,-1.8291,-1.8706,-1.9027,-1.9134,-1.8962,-1.8514,-1.8151,0.0,0.0,0.0,0.0,0.0,0.0,0.0,0.0,0.0,0.0,0.0,0.0,0.0,-1.8981,-1.9688,-1.8125,-1.8498,-1.896,-1.8748,0.0,0.0,0.0,0.0,0.0,0.0,0.0,0.0,0.0,0.0,0.0,0.0,0.0,0.0,1.9807,2.0331,1.9841,0.0,0.0,0.0,0.0,0.0,0.0,0.0,0.0,1.9628,1.9569,1.8538,1.9695,2.0227,2.0227,2.015,2.0088,0.0,0.0,0.0,0.0,0.0,0.0,0.0,0.0,2.0763,2.1486,2.1741,2.1806,2.1676,2.1153,1.9935,1.8093,1.8745,1.861,1.7435,1.6328,1.5719,0.0,0.0,0.0,0.0,0.0,0.0,0.0,0.0,0.0,0.0,0.0,0.0,0.0,0.0,0.0,0.0,0.0,0.0,0.0,0.0,0.0,0.0,0.0,1.0869,0.0,0.0,0.0,0.0,0.0,0.0,0.0,0.0,0.0,-1.6638,-1.7797,-1.8767,-1.9243,-1.9561,-1.9612,-1.9154,0.0,0.0,0.0,0.0,0.0,0.0,0.0,-1.6452,-1.6789,-1.7076,-1.7368,-1.7749,-1.8387,-1.8663,-1.7904,0.0,0.0,-1.7904,-1.8344,-1.8803,-1.8538,-1.8678,-1.8836,-1.8911,-1.9011,-1.9127,0.0,0.0,0.0,0.0,2.0302,0.0,0.0,0.0,2.0218,2.0269,0.0,2.0377,0.0,0.0,0.0,0.0,2.0203,2.0125,0.0,0.0,1.9519,1.9385,1.7941,1.9508,2.0304,2.0295,2.0164,2.0167,2.0262,2.0031,0.0,0.0,0.0,0.0,0.0,0.0,2.1064,2.2249,2.2593,2.2397,2.1731,2.1692,2.0549,1.82,1.7185,1.6672,1.6556,1.656,1.6502,1.6458,1.7317,0.0,0.0,0.0,0.0,0.0,0.0,0.0,0.0,0.0,0.0,0.0,0.0,0.0,0.0,0.0,0.0,0.0,0.0,0.0,0.0,0.6891,0.0,0.0,0.0,0.0,0.0,0.0,0.0,0.0,0.0,-1.8615,-1.7825,-1.7922,-1.8513,-2.0002,0.0,0.0,0.0,0.0,-1.8642,-1.7992,-1.7698,-1.7389,-1.6876,-1.6479,-1.6305,-1.6617,0.0,0.0,-1.7963,-1.925,-1.9529,-1.7494,-1.7769,-1.8228,-1.8475,-1.8991,-1.9237,-1.8623,-1.8885,-1.9326,-1.9421,-1.9444,-1.9618,2.0504,0.0,0.0,0.0,0.0,1.9703,1.94,1.9407,1.9505,1.9521,1.9545,1.9567,0.0,0.0,0.0,0.0,0.0,0.0,1.9544,1.8639,1.9656,1.963,1.8731,1.9742,2.028,2.0372,2.0287,2.0231,2.0215,2.0116,1.9899,1.965,0.0,0.0,0.0,0.0,2.1921,2.252,2.3303,2.3055,2.1707,2.174,2.1149,1.9804,1.827,1.7461,1.7484,1.7449,1.6842,1.5667,1.6938,0.0,0.0,0.0,0.0,0.0,0.0,0.0,0.0,0.0,0.0,0.0,0.0,0.0,0.0,0.0,0.0,0.0,0.0,0.0,0.4884,0.371,0.2006,0.0,0.0,0.0,0.0,0.0,0.0,0.0,0.0,0.0,-1.8718,-1.9309,-1.9841,0.0,0.0,-1.9707,-1.9374,-1.8788,-1.825,-1.7888,-1.7335,0.0,-1.6617,-1.6463,-1.6597,-1.733,-1.8296,-1.9042,-1.936,-2.0179,-2.0212,-1.8572,-1.8941,-1.9304,-1.879,-1.8594,-1.8456,-1.8147,-1.818,-1.8273,-1.8374,-1.8861,-1.9369,2.0451,2.023,1.9764,1.9894,2.034,1.9826,1.9618,1.9624,1.9672,1.9683,1.9687,1.9361,1.9837,2.0898,2.0758,0.0,0.0,0.0,1.9696,1.8961,1.9788,1.9788,1.9136,1.9875,2.0302,2.0394,2.0308,2.0253,2.0262,2.005,2.0088,2.0299,0.0,2.0311,2.1272,2.2164,2.2918,2.3556,2.4235,2.3997,2.276,2.1792,2.1043,2.0502,1.9072,1.8327,1.8329,1.8281,1.7619,1.6227,1.7464,1.8003,0.0,0.0,0.0,0.0,0.0,0.0,0.0,0.0,0.0,0.0,0.0,1.5442,1.2699,0.0,0.0,0.0,0.2913,0.272,-0.0035,-0.2011,0.0,0.0,0.0,0.0,0.0,0.0,0.0,-1.8854,-1.8912,-1.914,-1.9653,-2.0111,-2.0377,-2.0263,-2.0002,-1.9656,-1.9228,0.0,-1.8168,-1.7715,-1.7461,-1.7241,-1.7022,-1.7231,-1.7737,-1.882,-1.9755,-2.0495,-2.079,-2.1088,-2.0883,-2.0042,-2.006,-2.0144,-1.9337,-1.9191,-1.9077,-1.8735,-1.854,-1.8492,-1.8579,-1.9053,-1.9481,2.0211,2.0412,2.048,2.0486,2.0406,2.0418,2.0417,2.0416,2.056,2.061,2.054,1.9831,2.0328,2.1687,2.1474,0.0,2.0197,2.0209,1.9805,1.9135,1.9919,1.9892,1.9175,1.9928,2.0357,2.0419,2.0269,2.0268,2.0371,2.003,2.0342,2.1265,2.111,2.139,2.2137,2.2999,2.3933,2.4908,2.5226,2.5043,2.4296,2.1811,2.0544,2.0606,1.9623,1.9074,1.9008,1.9007,1.8573,1.7708,1.8504,1.8975,1.8911,0.0,0.0,0.0,0.0,0.0,0.0,0.0,0.0,0.0,0.0,0.0,0.0,0.0,0.0,-0.2989,-0.4315,0.0,-0.485,-0.8957,0.0,0.0,0.0,-1.8352,-1.9239,-1.9308,-1.9611,-2.0437,0.0,0.0,-2.0594,-2.0486,-2.0363,-2.0271,-1.9941,-1.9468,-1.8856,-1.8571,-1.8232,-1.7626,-1.7979,-1.8178,-1.7892,-1.8508,-1.9441,-2.0508,-2.1315,-2.1837,-2.2086,-2.2165,-2.1807,-2.1217,-2.1155,-2.0944,-2.016,-2.0467,-2.0694,-2.01,-1.9684,-1.946,-1.9565,-1.977,-1.9982,2.2462,2.2122,2.224,2.1562,2.0426,2.0453,2.0444,2.0535,2.188,2.2092,2.1504,2.1919,2.1934,2.161,2.146,2.0955,2.0203,2.026,2.0169,2.0,2.0195,2.0218,2.01,2.0288,2.0404,2.0484,2.0388,2.0341,2.0347,2.0774,2.1067,2.1278,2.2369,2.3064,2.3294,2.3556,2.3881,2.4235,2.505,2.511,2.4331,2.1891,2.085,2.145,1.9974,1.9129,1.9075,1.9082,1.8673,1.7831,1.8557,1.8718,1.8144,1.9371,0.0,0.0,0.0,0.0,0.0,0.0,0.0,0.0,0.0,1.2917,0.6301,0.0,0.254,0.0,-0.5208,-0.6845,-1.0279,-1.154,0.0,0.0,-1.826,-1.9257,-2.0154,-2.022,-2.0543,-2.1446,-2.0943,-2.0756,-2.1406,-2.0795,-2.0424,-2.067,-2.0047,-1.9342,-1.8753,-1.8241,-1.8053,-1.8276,-1.8508,-1.8687,-1.8847,-1.9849,-2.0855,-2.1203,-2.2485,-2.3287,-2.2787,-2.3682,-2.3966,-2.2754,-2.2438,-2.2264,-2.1849,-2.1147,-2.0918,-2.1491,-2.0681,-1.9634,-1.9638,-2.0194,-2.0747,2.4124,2.3906,2.401,2.354,2.2655,2.1926,2.1585,2.1646,2.2658,2.2799,2.2362,2.2771,2.2249,2.1089,2.1729,2.1585,2.0869,2.1278,2.1467,2.1456,2.1447,2.1469,2.1506,2.115,2.1017,2.1048,2.0648,2.0413,2.0398,2.1054,2.157,2.1896,2.3019,2.3844,2.429,2.3972,2.4044,2.4534,2.5201,2.5161,2.4395,2.3026,2.2144,2.178,2.087,2.0134,1.9692,1.9687,1.9287,1.8459,1.918,1.9242,1.8459,1.928,1.9413,0.0,0.0,0.0,0.0,0.0,0.0,0.0,0.0,0.0,0.0,0.0,-0.0266,-0.5846,-0.9518,-1.28,-1.5754,-1.5958,-1.6927,-1.9417,-1.9749,-2.0135,-2.1034,-2.1084,-2.1409,-2.2273,-2.1933,-2.1774,-2.2223,-2.174,-2.1339,-2.1403,-2.0752,-2.0126,-1.9619,-1.9107,-1.8778,-1.8693,-1.9337,-2.019,-2.0891,-2.1439,-2.1988,-2.2555,-2.3325,-2.3836,-2.3687,-2.3982,-2.4013,-2.326,-2.3096,-2.2867,-2.2134,-2.171,-2.15,-2.1629,-2.1295,-2.0672,-2.0532,-2.092,-2.1344,2.5542,2.5739,2.5823,2.5821,2.5661,2.4144,2.3446,2.3345,2.3412,2.3393,2.3318,2.3016,2.2107,2.0908,2.2188,2.2427,2.1833,2.2543,2.2879,2.2887,2.2912,2.292,2.2882,2.2191,2.19,2.1928,2.1072,2.0687,2.0723,2.1313,2.2,2.2851,2.3487,2.4219,2.5024,2.424,2.4279,2.5245,2.5479,2.5255,2.4585,2.4471,2.3691,2.2204,2.1918,2.1461,2.0772,2.0629,2.0216,1.95,2.0166,2.0172,1.9309,1.9194,1.9062,0.0,1.7421,0.0,0.0,0.0,0.0,0.0,0.0,0.0,0.0,-0.2878,-0.3092,-0.7924,-1.3859,-1.8211,-2.0097,-2.0458,-2.0577,-2.0558,-2.0623,-2.1016,-2.1828,-2.1959,-2.227,-2.3056,-2.3064,-2.2993,-2.3041,-2.2767,-2.241,-2.2103,-2.1643,-2.1245,-2.0933,-2.0453,-1.9841,-1.9143,-2.0368,-2.1795,-2.3156,-2.2945,-2.2671,-2.3555,-2.3638,-2.3667,-2.3744,-2.3363,-2.3001,-2.31,-2.3074,-2.2767,-2.1777,-2.2069,-2.2102,-2.168,-2.1617,-2.1586,-2.1502,-2.1579,-2.1721,2.7374,2.7524,2.7634,2.7301,2.6641,2.6317,2.5798,2.5191,2.5204,2.5182,2.4993,2.3485,2.3052,2.3416,2.2983,2.2725,2.2667,2.2813,2.2887,2.289,2.294,2.2984,2.2974,2.2881,2.2847,2.2796,2.1971,2.1861,2.2429,2.2508,2.292,2.3684,2.4371,2.4841,2.5056,0.0,0.0,0.0,2.5576,2.5554,2.5436,2.4778,2.4232,2.3878,2.2539,0.0,2.2523,2.1924,2.1405,2.1161,2.1344,0.0,0.0,0.0,0.0,0.0,0.0,0.0,0.0,0.0,0.0,0.0,0.0633,-0.5742,-1.0851,-0.8004,-0.7295,-1.0787,-1.0254,-1.2516,-1.9567,-2.1052,-2.151,-2.1468,-2.1517,-2.1894,-2.2732,-2.2863,-2.3179,-2.3936,-2.34,-2.3168,-2.3702,-2.2967,-2.2393,-2.2589,-2.2213,-2.1983,-2.2134,-2.1392,-2.0938,-2.1197,-2.174,-2.283,-2.4745,-2.3525,-2.2443,-2.2605,-2.2834,-2.2442,-2.1343,-2.16,-2.2005,-2.236,-2.2151,-2.2167,-2.2631,-2.2215,-2.1792,-2.2295,-2.1981,-2.1603,-2.1402,-2.1658,-2.1907,2.91,2.928,2.9388,2.8969,0.0,2.7773,2.7121,2.6308,2.5886,2.5639,2.544,2.4101,2.374,2.413,2.3689,2.3512,2.357,2.3983,2.4172,2.4193,2.4219,2.4244,2.4252,2.391,2.3735,2.3719,2.2861,2.2637,2.2957,2.3308,2.3662,2.4024,2.4744,2.5122,2.519,2.4897,2.4819,2.4948,2.5396,2.5636,2.5687,2.5262,2.4839,2.4409,2.3555,0.0,0.0,0.0,0.0,0.0,0.0,0.0,0.0,2.0297,0.0,1.6204,1.5969,1.4191,1.0207,0.5868,0.3769,0.45,-0.1481,-0.5394,-0.5779,-0.8581,-1.0324,-1.0151,-1.2819,-1.6832,-2.1552,-2.2324,-2.2372,-2.2357,-2.2401,-2.2787,-2.3574,-2.373,-2.406,-2.4732,-2.4438,-2.4239,-2.4494,-2.3803,-2.3219,-2.3177,-2.2687,-2.2426,-2.2722,-2.2336,-2.2235,-2.2834,-2.197,-2.2297,-2.4229,-2.3522,-2.2199,-2.1892,-2.1907,-2.139,-2.0067,-2.0575,-2.1263,-2.147,-2.1616,-2.1956,-2.2018,-2.1762,-2.1626,-2.192,-2.1972,-2.1784,-2.1464,-2.1645,-2.1895,3.0372,3.0595,3.0678,3.0272,2.9517,2.8799,2.793,2.6917,2.5902,0.0,0.0,2.4445,2.4128,2.4339,2.4234,2.4283,2.4497,2.5182,2.5506,2.5525,2.5505,2.5543,2.5576,2.4951,2.4635,2.4602,2.3748,2.3377,2.347,2.3985,2.4268,2.4368,2.4955,2.5262,2.5331,2.5459,2.5185,2.4593,2.5245,2.5632,2.5694,2.5703,2.5288,2.4433,2.4414,2.4061,2.3355,2.3274,2.3227,2.3178,2.2339,2.1733,2.1549,2.0584,1.8806,1.6133,1.5764,1.3815,0.9543,0.5303,0.2637,0.1978,-0.0317,-0.0641,0.2149,-0.6802,-1.1152,-0.7868,-1.5954,-2.1914,-2.3679,-2.351,-2.324,-2.324,-2.3288,-2.3683,-2.447,-2.4601,-2.4815,-2.5379,-2.5274,-2.5138,-2.4834,-2.4364,-2.3969,-2.352,-2.2867,-2.2737,-2.3177,-2.3331,-2.3605,-2.4162,-2.28,-2.1972,-2.3519,-2.305,-2.1924,-2.1118,-2.0861,-2.0415,-1.9672,-1.9862,-2.0337,-2.0525,-2.1194,-2.1471,-2.1263,-2.1436,-2.1589,-2.1495,-2.1886,-2.213,-2.1751,-2.1721,-2.184,3.0452,3.061,3.0671,3.0244,2.9508,2.9384,2.8457,2.688,2.5281,2.4959,2.5489,2.3879,2.395,2.5247,2.4542,2.46,2.5318,2.5441,2.5531,2.5595,2.5587,2.562,2.5671,2.558,2.5525,2.5441,2.4637,2.456,2.5104,2.4588,2.4581,2.5166,2.533,2.5397,2.5453,2.5492,2.5471,2.5411,2.5589,2.5701,2.5696,2.5701,2.5285,2.4466,2.4413,2.4344,2.4209,2.4196,2.4141,2.4025,2.3198,2.2326,2.1443,2.0389,1.8467,1.5768,1.5059,1.3258,0.9866,0.5484,0.341,0.463,0.877,0.946,0.4317,-0.2834,-0.6878,-0.6436,-1.268,-1.8429,-2.2326,-2.3708,-2.4159,-2.4199,-2.4214,-2.4546,-2.5283,-2.5327,-2.5278,-2.5274,-2.5097,-2.4847,-2.4532,-2.4099,-2.3689,-2.323,-2.2851,-2.263,-2.3453,-2.4264,-2.4851,-2.5106,-2.4097,-2.3525,-2.3703,-2.2391,-2.1037,-2.013,-1.962,-1.9115,-1.8273,-1.8466,-1.906,-1.9845,-2.0415,-2.0779,-2.121,-2.1481,-2.1724,-2.1991,-2.2101,-2.2101,-2.2158,-2.2068,-2.189,3.0432,3.0537,3.0658,3.0238,2.9468,2.9027,2.8417,2.7612,2.6371,2.572,2.5511,2.4744,2.4841,2.549,2.5138,2.5167,2.5561,2.5556,2.5605,2.5648,2.56,2.5628,2.5687,2.5687,2.569,2.5684,2.5305,2.5291,2.5541,2.5182,2.5166,2.5466,2.5472,2.5472,2.5498,2.5531,2.5576,2.5663,2.5695,2.5687,2.5699,2.5694,2.5281,2.4443,2.4843,2.4876,2.4424,2.481,2.4996,2.4917,2.3617,2.268,2.2165,2.0776,1.8866,1.6485,1.6458,1.5397,1.2788,1.1468,1.1058,1.1831,1.4499,1.516,1.2389,0.494,-0.1052,-0.4816,-1.1074,-1.7497,-2.3469,-2.4732,-2.5061,-2.5117,-2.5078,-2.5193,-2.547,-2.5511,-2.5389,-2.5197,-2.5355,-2.5329,-2.482,-2.4417,-2.3963,-2.3554,-2.3278,-2.3293,-2.3324,-2.4298,-2.502,-2.4883,-2.3616,-2.2834,-2.2983,-2.1999,-2.0767,-1.994,-1.9529,-1.8994,-1.8352,-1.8559,-1.9204,-1.984,-2.0395,-2.0889,-2.1354,-2.1601,-2.1797,-2.1873,-2.2192,-2.226,-2.2158,-2.1799,-2.1496,3.0381,3.0491,3.0644,3.0358,2.9751,2.9135,2.8765,2.8476,2.763,2.6754,2.5974,2.5712,2.5733,2.5907,2.571,2.5718,2.5898,2.5921,2.5948,2.598,2.5948,2.5944,2.5974,2.581,2.5793,2.5927,2.5815,2.5671,2.5629,2.5598,2.5571,2.5568,2.5725,2.5732,2.5525,2.5765,2.5819,2.5699,2.5699,2.5707,2.5696,2.5703,2.5292,2.4542,2.5233,2.5292,2.4509,2.5195,2.559,2.5445,2.3877,2.2905,2.2745,2.1198,1.9444,1.7892,1.8004,1.7468,1.5879,1.7111,1.8014,1.8112,1.8659,1.9039,1.8604,1.3017,0.5151,-0.3353,-1.1913,-1.9226,-2.4135,-2.5499,-2.566,-2.5643,-2.5619,-2.552,-2.5479,-2.546,-2.5335,-2.5122,-2.5508,-2.5589,-2.4935,-2.4521,-2.4086,-2.3591,-2.3715,-2.3582,-2.3306,-2.4067,-2.4396,-2.3945,-2.2818,-2.2148,-2.2149,-2.1519,-2.0719,-1.9846,-1.9625,-1.9327,-1.9044,-1.9465,-1.9985,-2.027,-2.0827,-2.1274,-2.1462,-2.1721,-2.1869,-2.1961,-2.222,-2.2349,-2.2044,-2.1731,-2.1448,3.0375,3.052,3.0645,3.0691,3.0642,3.0556,3.0074,2.9334,2.8455,2.763,2.6942,2.6041,2.6147,2.6698,2.6041,2.61,2.6799,2.6854,2.6858,2.6861,2.6877,2.6861,2.6788,2.6108,2.6108,2.6674,2.6113,2.5759,2.5687,2.5665,2.5616,2.5691,2.6378,2.6393,2.579,2.6403,2.6427,2.5718,2.5707,2.5701,2.5696,2.5701,2.5276,2.444,2.5247,2.5287,2.4408,2.5231,2.5664,2.5483,2.4008,2.3042,2.2779,2.1321,2.0131,1.95,1.8837,1.7948,1.7282,1.8951,2.009,1.9986,2.1153,2.1573,2.0835,1.8786,1.1621,-0.1852,-1.547,-2.2315,-2.5114,-2.5442,-2.5522,-2.5511,-2.552,-2.5488,-2.542,-2.5354,-2.5166,-2.478,-2.5284,-2.502,-2.4204,-2.4023,-2.3653,-2.3005,-2.3268,-2.3419,-2.3375,-2.3407,-2.3323,-2.3014,-2.262,-2.2411,-2.2067,-2.127,-2.049,-1.9684,-1.9383,-1.9434,-1.9641,-1.9798,-2.0051,-2.0812,-2.1179,-2.1432,-2.1675,-2.1928,-2.2044,-2.2203,-2.2332,-2.2349,-2.2265,-2.2152,-2.2133,3.0364,3.0443,3.0618,3.0743,3.0799,3.0789,3.0594,3.0183,2.9336,2.9078,2.9114,2.7858,2.6876,2.6227,2.5839,2.6171,2.6988,2.7008,2.7008,2.7047,2.7515,2.7493,2.7025,2.7225,2.7203,2.6983,2.662,2.6193,2.5857,2.6181,2.6406,2.6474,2.7234,2.7483,2.7156,2.6981,2.6743,2.6473,2.5971,2.5687,2.5697,2.5693,2.5045,2.3932,2.4978,2.5019,2.3941,2.4961,2.5698,2.5595,2.4495,2.3844,2.3774,2.2636,2.1873,2.1617,2.1598,2.1399,2.0978,2.2191,2.2806,2.2557,2.3077,2.3173,2.1982,1.3643,0.4709,-0.1312,-0.8678,-1.5772,-2.373,-2.5359,-2.542,-2.5395,-2.5367,-2.5356,-2.5283,-2.5264,-2.5225,-2.5286,-2.5708,-2.5862,-2.5344,-2.5005,-2.4428,-2.3654,-2.3736,-2.3902,-2.326,-2.326,-2.3077,-2.2322,-2.2094,-2.1889,-2.1536,-2.1065,-2.0503,-2.0167,-2.0007,-2.0106,-2.0287,-2.0591,-2.0861,-2.1245,-2.1479,-2.1631,-2.1781,-2.2015,-2.2186,-2.2343,-2.2298,-2.226,-2.2415,-2.2129,-2.215,3.0518,3.0462,3.0626,3.0737,3.0767,3.0782,3.0769,3.0658,2.9873,2.9883,3.0312,2.8937,2.76,2.6527,2.641,2.6898,2.7622,2.7466,2.7347,2.7386,2.7795,2.7735,2.7437,2.7715,2.7754,2.7383,2.7097,2.6648,2.6156,2.6654,2.7098,2.7368,2.8158,2.8482,2.817,2.755,2.7189,2.6915,2.6143,2.5701,2.5703,2.5703,2.5095,2.4056,2.5039,2.5097,2.3926,2.5039,2.5701,2.5672,2.4876,2.4417,2.4391,2.3569,2.3064,2.3017,2.3536,2.3818,2.3656,2.4373,2.4704,2.4476,2.4371,2.4099,2.1326,1.0565,0.1985,-0.1094,-0.5193,-1.3693,-2.2664,-2.5185,-2.5269,-2.5236,-2.5348,-2.542,-2.5179,-2.5385,-2.5693,-2.5686,-2.6103,-2.6441,-2.6251,-2.5603,-2.4809,-2.4315,-2.4527,-2.4459,-2.3342,-2.3408,-2.3374,-2.211,-2.1753,-2.1435,-2.1103,-2.0909,-2.0677,-2.0509,-2.0379,-2.0548,-2.0794,-2.1087,-2.1371,-2.1417,-2.1721,-2.1869,-2.1928,-2.2101,-2.2315,-2.2243,-2.2271,-2.2364,-2.2615,-2.2203,-2.2331,3.108,3.0578,3.0661,3.0756,3.0717,3.0717,3.0697,3.0652,2.9877,2.9578,2.9597,2.8806,2.8283,2.8207,2.8188,2.8654,2.9242,2.8576,2.8244,2.8184,2.7579,2.754,2.8166,2.7481,2.7526,2.8156,2.7574,2.7122,2.6958,2.7054,2.742,2.8259,2.9093,2.9129,2.8525,2.8315,2.7847,2.7186,2.6345,2.5761,2.574,2.5733,2.5699,2.5488,2.5644,2.5604,2.5479,2.5619,2.5694,2.5693,2.4907,2.4436,2.4355,2.3642,2.3208,2.3239,2.3766,2.4079,2.4119,2.467,2.5062,2.502,2.4776,2.4445,2.3249,1.3396,0.4971,-0.038,-1.0036,-1.8561,-2.3397,-2.503,-2.5189,-2.5209,-2.5696,-2.572,-2.5145,-2.6136,-2.6338,-2.5869,-2.6312,-2.6507,-2.5843,-2.4995,-2.4877,-2.4777,-2.4853,-2.4523,-2.378,-2.3786,-2.3375,-2.2655,-2.1923,-2.1325,-2.0941,-2.0844,-2.0646,-2.0545,-2.0628,-2.0777,-2.0893,-2.1087,-2.1371,-2.1587,-2.1797,-2.1928,-2.1998,-2.2186,-2.2415,-2.2497,-2.2588,-2.2694,-2.2825,-2.2977,-2.3042,3.2285,3.2173,3.1717,3.1545,3.1467,3.0943,3.069,3.0678,3.0447,3.0329,3.0283,3.0058,2.9961,2.9941,2.9977,2.9814,2.9593,2.9259,2.9127,2.9171,2.9366,2.9368,2.9134,2.9342,2.9298,2.909,2.8827,2.8378,2.7938,2.8371,2.8799,2.9201,3.0007,3.0265,2.9894,2.9351,2.8904,2.8593,2.777,2.7056,2.6576,2.6477,2.6243,2.5735,2.5697,2.5426,2.4887,2.5398,2.5703,2.5694,2.5359,2.5173,2.5133,2.4881,2.4709,2.4727,2.4972,2.5078,2.5002,2.5184,2.5332,2.5277,2.4968,2.4504,2.1659,1.1399,0.1783,-0.251,-1.3919,-2.2361,-2.3739,-2.5307,-2.6141,-2.6129,-2.6334,-2.6408,-2.6242,-2.6562,-2.6763,-2.6663,-2.697,-2.6964,-2.649,-2.608,-2.5749,-2.557,-2.5165,-2.4631,-2.4064,-2.3568,-2.3096,-2.2894,-2.2424,-2.2069,-2.2137,-2.132,-2.0844,-2.0861,-2.0926,-2.1055,-2.1183,-2.1448,-2.1721,-2.1827,-2.1974,-2.2147,-2.2243,-2.2354,-2.2579,-2.2816,-2.2876,-2.291,-2.307,-2.3122,-2.3212,3.2855,3.2732,3.2229,3.1836,3.1525,3.0955,3.0703,3.0749,3.1035,3.1023,3.086,3.1124,3.1148,3.0936,3.0918,3.0623,3.0011,2.9752,2.9599,2.9626,2.992,2.9881,2.9764,3.0209,3.0187,2.9604,2.9296,2.8983,2.8827,2.9316,2.9862,3.0425,3.078,3.1035,3.1035,3.0116,2.9525,2.9398,2.8661,2.7917,2.7405,2.7055,2.6656,2.6121,2.5818,2.5405,2.4835,2.5364,2.5687,2.5656,2.5604,2.5561,2.5582,2.5554,2.5542,2.555,2.5593,2.5597,2.5533,2.5504,2.5468,2.539,2.5109,2.4552,2.2555,0.8813,0.0672,-0.4163,-1.5438,-2.4864,-2.4782,-2.588,-2.6772,-2.648,-2.6595,-2.6743,-2.6702,-2.7087,-2.7273,-2.7166,-2.7238,-2.7217,-2.6891,-2.659,-2.6132,-2.5678,-2.5154,-2.481,-2.4039,-2.3606,-2.3205,-2.3382,-2.305,-2.2967,-2.3016,-2.2559,-2.1658,-2.1531,-2.1358,-2.142,-2.1544,-2.1814,-2.1986,-2.2073,-2.2203,-2.2371,-2.248,-2.2588,-2.2799,-2.3052,-2.3067,-2.3056,-2.3159,-2.32,-2.3315,3.2773,3.2307,3.2043,3.1751,3.1188,3.0921,3.0758,3.0913,3.1518,3.1364,3.1001,3.1613,3.1511,3.1069,3.0953,3.0858,3.0664,3.0053,2.9741,2.9687,2.918,2.9277,2.9843,2.998,2.9941,2.9707,2.8838,2.8906,2.9615,2.974,3.0426,3.1558,3.1071,3.1128,3.1984,3.0413,2.9592,2.9464,2.8861,2.831,2.8098,2.7412,2.6959,2.6746,2.6076,2.5741,2.573,2.5703,2.5675,2.5625,2.5593,2.5538,2.5503,2.5511,2.5484,2.551,2.5498,2.5506,2.5498,2.5511,2.5473,2.5395,2.5258,2.4471,2.1073,0.8902,-0.0648,-0.3933,-1.5663,-2.5393,-2.5307,-2.6186,-2.6695,-2.5821,-2.6493,-2.6933,-2.6995,-2.7724,-2.8139,-2.7387,-2.7303,-2.7112,-2.6624,-2.6367,-2.6009,-2.5307,-2.507,-2.4906,-2.3999,-2.3822,-2.4124,-2.4152,-2.3767,-2.3538,-2.3758,-2.3864,-2.2996,-2.2253,-2.2035,-2.1936,-2.1966,-2.2158,-2.2231,-2.2326,-2.2453,-2.2632,-2.2799,-2.2902,-2.3028,-2.3223,-2.3194,-2.3218,-2.3289,-2.3365,-2.3433,3.4629,3.4486,3.394,3.3572,3.3147,3.2042,3.151,3.1479,3.1278,3.1248,3.1442,3.1304,3.1383,3.1549,3.1172,3.0886,3.0811,3.0581,3.0486,3.0621,3.1319,3.1487,3.1304,3.1287,3.0985,3.0464,3.0172,3.0144,3.0409,3.0474,3.0823,3.107,3.0955,3.0947,3.1227,3.065,3.0399,3.0355,3.0088,2.9408,2.832,2.7906,2.7459,2.687,2.6566,2.663,2.7083,2.6696,2.6131,2.5622,2.5987,2.5989,2.559,2.5928,2.5985,2.5498,2.5471,2.5466,2.5437,2.5485,2.5486,2.544,2.53,2.4219,2.1139,0.8594,-0.046,-0.3852,-1.612,-2.4927,-2.5241,-2.5423,-2.6023,-2.6681,-2.7482,-2.7864,-2.7767,-2.7888,-2.7862,-2.7677,-2.733,-2.7041,-2.6792,-2.6555,-2.5999,-2.5383,-2.5123,-2.4705,-2.4638,-2.404,-2.4067,-2.4569,-2.4217,-2.4131,-2.4487,-2.4635,-2.417,-2.3487,-2.3106,-2.2772,-2.2731,-2.2546,-2.2613,-2.2571,-2.2738,-2.2868,-2.3045,-2.3168,-2.3289,-2.343,-2.3463,-2.3472,-2.35,-2.3565,-2.366,3.5338,3.5195,3.4719,3.4302,3.3877,3.2482,3.2085,3.2249,3.1848,3.193,3.2264,3.2279,3.2274,3.2343,3.1707,3.1328,3.1266,3.1308,3.1334,3.134,3.192,3.2249,3.2012,3.1704,3.1367,3.0908,3.0794,3.0817,3.0858,3.0877,3.1006,3.1211,3.0973,3.1005,3.1178,3.0955,3.0789,3.0798,3.0698,3.0192,2.9266,2.8729,2.8255,2.7724,2.7318,2.7334,2.7676,2.7556,2.7133,2.6535,2.6776,2.6561,2.5836,2.6194,2.6187,2.5553,2.5401,2.5414,2.5376,2.5434,2.5383,2.5325,2.554,2.4516,2.0003,0.8506,-0.0479,-0.4936,-1.674,-2.5319,-2.5703,-2.5827,-2.6296,-2.7236,-2.7767,-2.8149,-2.8192,-2.7933,-2.76,-2.7434,-2.7135,-2.6875,-2.6623,-2.6343,-2.5815,-2.5264,-2.4922,-2.4696,-2.4836,-2.4404,-2.4681,-2.4936,-2.4868,-2.496,-2.5277,-2.5326,-2.5236,-2.478,-2.4317,-2.4019,-2.3808,-2.3392,-2.3254,-2.2963,-2.297,-2.3095,-2.3241,-2.3313,-2.3407,-2.3544,-2.3642,-2.3476,-2.3436,-2.3794,-2.3909,3.5083,3.4584,3.4575,3.4187,3.347,3.256,3.259,3.3103,3.3055,3.3024,3.3261,3.367,3.3706,3.3089,3.2235,3.1909,3.1991,3.1953,3.2143,3.1996,3.1802,3.1693,3.2156,3.1778,3.1313,3.0808,3.0872,3.0876,3.0765,3.0781,3.1194,3.1644,3.1222,3.1125,3.1447,3.1125,3.0778,3.0417,3.0575,3.0559,3.0238,2.9602,2.91,2.8974,2.8151,2.7762,2.8,2.8384,2.8375,2.7841,2.7726,2.7363,2.6607,2.6515,2.6263,2.5466,2.539,2.5361,2.5332,2.5322,2.5332,2.5282,2.5813,2.4748,1.913,0.8171,-0.1629,-0.6353,-1.834,-2.6294,-2.6665,-2.6909,-2.7248,-2.7453,-2.7755,-2.7922,-2.8004,-2.7818,-2.7569,-2.7181,-2.6884,-2.6636,-2.6262,-2.5999,-2.5447,-2.4847,-2.4786,-2.484,-2.4734,-2.4788,-2.5102,-2.5173,-2.511,-2.5206,-2.5387,-2.5859,-2.5794,-2.5782,-2.538,-2.5107,-2.4687,-2.424,-2.3867,-2.357,-2.3232,-2.3336,-2.3383,-2.3448,-2.3522,-2.3638,-2.3545,-2.3358,-2.3535,-2.3947,-2.4283,3.5379,3.5378,3.5388,3.5243,3.4932,3.4119,3.3838,3.3954,3.3393,3.3219,3.3248,3.3408,3.3227,3.2305,3.2188,3.2024,3.2104,3.2057,3.2804,3.3587,3.2958,3.2713,3.3087,3.3311,3.241,3.1008,3.1241,3.1294,3.0684,3.067,3.0794,3.1009,3.1372,3.1002,3.0348,3.1093,3.0503,2.9292,3.0125,2.9945,2.8984,2.9128,2.9079,2.8945,2.8599,2.8679,2.9134,2.9303,2.9072,2.8512,2.8531,2.815,2.729,2.7262,2.6886,2.606,2.5538,2.5312,2.5239,2.5195,2.5378,2.5939,2.6199,2.2599,1.4167,0.5788,-0.3463,-1.1938,-2.185,-2.7026,-2.7584,-2.769,-2.7802,-2.8153,-2.8239,-2.8329,-2.8254,-2.8055,-2.7771,-2.7607,-2.7192,-2.6824,-2.659,-2.6312,-2.5961,-2.5387,-2.5228,-2.5227,-2.4992,-2.4958,-2.5176,-2.5083,-2.5017,-2.5183,-2.5445,-2.606,-2.6404,-2.6589,-2.6387,-2.6147,-2.5582,-2.4948,-2.4638,-2.4327,-2.3806,-2.3744,-2.359,-2.3517,-2.3634,-2.3707,-2.3741,-2.3699,-2.3913,-2.4266,-2.4672,3.5483,3.5676,3.5657,3.5665,3.5588,3.4775,3.4601,3.4717,3.404,3.3896,3.4129,3.4236,3.3973,3.3505,3.3215,3.3048,3.2975,3.266,3.3227,3.4242,3.4263,3.3865,3.3544,3.3741,3.2927,3.141,3.1607,3.1344,3.0739,3.061,3.0603,3.0715,3.1103,3.0801,3.0129,3.0649,3.0671,2.9547,3.0085,2.994,2.9088,2.9262,2.9417,2.9384,2.9247,2.9336,2.957,2.9472,2.9289,2.9077,2.9066,2.8758,2.7929,2.7604,2.712,2.6195,2.5564,2.5279,2.5463,2.5435,2.5644,2.6146,2.6393,2.331,1.6251,0.7051,-0.3932,-0.9608,-2.0599,-2.6673,-2.8297,-2.829,-2.8246,-2.8391,-2.8619,-2.8619,-2.837,-2.8147,-2.7954,-2.7725,-2.7365,-2.6939,-2.6791,-2.6521,-2.6005,-2.5464,-2.5196,-2.511,-2.4965,-2.5077,-2.5157,-2.5146,-2.534,-2.5584,-2.5897,-2.6404,-2.6602,-2.6811,-2.6743,-2.6632,-2.6195,-2.548,-2.4936,-2.4562,-2.4268,-2.4005,-2.3766,-2.3629,-2.3682,-2.3792,-2.3917,-2.4058,-2.4211,-2.4339,-2.48,3.5542,3.5705,3.5608,3.567,3.5712,3.493,3.4988,3.5433,3.4853,3.4844,3.527,3.5581,3.5185,3.5398,3.4284,3.4371,3.4265,3.3576,3.3887,3.4584,3.4979,3.4816,3.3848,3.3799,3.3006,3.196,3.1854,3.141,3.0799,3.0574,3.0576,3.0636,3.0732,3.0548,3.0278,3.053,3.0511,2.9979,3.0158,3.0198,2.9838,2.9789,2.984,2.9801,2.9585,2.94,2.9328,2.9243,2.9214,2.9414,2.9456,2.9102,2.8408,2.7761,2.6933,2.6204,2.5607,2.5381,2.5634,2.5668,2.5872,2.6023,2.6645,2.5512,1.9546,0.9075,-0.0278,-0.7332,-1.8492,-2.5454,-2.8688,-2.8676,-2.8446,-2.8432,-2.8612,-2.8525,-2.8281,-2.821,-2.8075,-2.7695,-2.7404,-2.7112,-2.6724,-2.6298,-2.5815,-2.5228,-2.5037,-2.4878,-2.4701,-2.4579,-2.4948,-2.5399,-2.5719,-2.6166,-2.6472,-2.6819,-2.6819,-2.6861,-2.6737,-2.6613,-2.6377,-2.5773,-2.5049,-2.4647,-2.475,-2.4391,-2.3777,-2.3721,-2.3789,-2.3894,-2.4016,-2.4136,-2.4245,-2.4356,-2.4651,3.6328,3.6414,3.5785,3.5951,3.6431,3.5743,3.5465,3.5665,3.551,3.5143,3.4951,3.5405,3.4971,3.3839,3.441,3.4419,3.4525,3.4303,3.4583,3.5276,3.5454,3.5461,3.501,3.4901,3.3782,3.2488,3.2466,3.1877,3.0824,3.0449,3.0447,3.0494,3.0871,3.0725,2.9783,3.0621,3.0271,2.9036,2.9687,2.9966,2.9532,2.9718,2.9839,2.97,2.9471,2.9286,2.9152,2.9044,2.9003,2.9075,2.923,2.9263,2.8913,2.7848,2.7026,2.6617,2.5943,2.5342,2.5013,2.5355,2.5614,2.5911,2.5797,2.2872,1.5478,1.1497,0.1078,-0.9191,-1.7497,-2.3436,-2.7938,-2.8548,-2.8324,-2.8291,-2.8414,-2.8543,-2.8518,-2.8543,-2.8378,-2.802,-2.7643,-2.7317,-2.6925,-2.6623,-2.5995,-2.5188,-2.4827,-2.4664,-2.4463,-2.4249,-2.4837,-2.5579,-2.6016,-2.642,-2.67,-2.7054,-2.7265,-2.7221,-2.7056,-2.6763,-2.6552,-2.6374,-2.5808,-2.5532,-2.549,-2.4897,-2.4082,-2.3828,-2.3873,-2.3976,-2.415,-2.421,-2.4302,-2.4412,-2.4483,3.6252,3.6008,3.5608,3.574,3.6068,3.5721,3.5528,3.5565,3.5565,3.5357,3.511,3.5477,3.5325,3.4932,3.5347,3.5599,3.5461,3.5121,3.4936,3.5114,3.5283,3.5316,3.5091,3.5207,3.4404,3.2632,3.2697,3.1961,3.0814,3.0398,3.041,3.0398,3.0847,3.0528,2.9817,3.0541,3.0196,2.943,2.9672,2.9894,2.9513,2.9576,2.9682,2.9471,2.9304,2.9134,2.9021,2.8863,2.8839,2.8929,2.9026,2.9119,2.9058,2.814,2.7471,2.7167,2.658,2.5948,2.5612,2.5588,2.5834,2.586,2.6161,2.3376,1.6746,1.1443,0.1813,-0.8975,-1.7292,-2.4855,-2.8202,-2.8348,-2.8129,-2.8183,-2.8282,-2.8432,-2.8536,-2.8637,-2.8551,-2.8156,-2.773,-2.7444,-2.7152,-2.6809,-2.62,-2.5339,-2.5252,-2.507,-2.4798,-2.4736,-2.5193,-2.5808,-2.6234,-2.6625,-2.6882,-2.7248,-2.7754,-2.7763,-2.7649,-2.7326,-2.6996,-2.6881,-2.6721,-2.6116,-2.5332,-2.5201,-2.4504,-2.4269,-2.414,-2.4553,-2.4687,-2.4487,-2.4358,-2.4429,-2.4518,3.6134,3.5595,3.545,3.5436,3.5551,3.5455,3.5378,3.5405,3.5405,3.5445,3.554,3.5572,3.5937,3.6609,3.6535,3.6667,3.6412,3.5912,3.5225,3.4885,3.5284,3.5162,3.4879,3.4879,3.4424,3.3102,3.2923,3.2006,3.1025,3.0487,3.0533,3.0552,3.0362,3.033,3.0273,3.0221,3.0142,2.9932,2.9916,2.9953,2.978,2.9699,2.9531,2.9283,2.9134,2.9021,2.8881,2.8743,2.8718,2.8815,2.8743,2.8767,2.868,2.8287,2.7874,2.7643,2.7056,2.6597,2.6332,2.6377,2.6399,2.6101,2.6679,2.6227,2.1502,1.1763,0.229,-0.742,-1.671,-2.7975,-2.8612,-2.8174,-2.802,-2.8101,-2.8228,-2.8309,-2.8466,-2.8569,-2.8352,-2.8174,-2.7776,-2.7426,-2.7184,-2.6842,-2.6219,-2.5692,-2.557,-2.5452,-2.5163,-2.4928,-2.5221,-2.5647,-2.6026,-2.6896,-2.7291,-2.7553,-2.8037,-2.7699,-2.7745,-2.7352,-2.6936,-2.643,-2.5997,-2.545,-2.4866,-2.4825,-2.4683,-2.4283,-2.4443,-2.5056,-2.4948,-2.4432,-2.4375,-2.4445,-2.4569,3.7185,3.7034,3.5696,3.5621,3.6217,3.5645,3.5345,3.5391,3.5378,3.5405,3.5438,3.5566,3.6035,3.6523,3.6157,3.5933,3.6091,3.5714,3.5419,3.5194,3.538,3.5193,3.518,3.4526,3.3885,3.3179,3.2852,3.2314,3.1371,3.0833,3.0802,3.1148,3.0657,3.0305,3.0266,3.018,3.0109,3.0102,2.9972,2.9872,2.9771,2.9608,2.937,2.9067,2.8952,2.8839,2.8743,2.8612,2.8536,2.851,2.8619,2.8669,2.8567,2.8038,2.7757,2.7684,2.7528,2.7169,2.6739,2.7049,2.7187,2.7146,2.7228,2.6502,2.2844,1.4391,0.2922,-0.7844,-1.9126,-2.9176,-2.9129,-2.8358,-2.8039,-2.8112,-2.812,-2.8156,-2.8344,-2.8246,-2.8192,-2.8183,-2.7811,-2.7409,-2.7103,-2.6741,-2.6185,-2.5678,-2.5419,-2.5461,-2.5346,-2.4891,-2.4597,-2.511,-2.5692,-2.6778,-2.7771,-2.8013,-2.82,-2.7404,-2.7118,-2.6659,-2.6177,-2.553,-2.5026,-2.4923,-2.4843,-2.4806,-2.459,-2.4312,-2.4446,-2.4872,-2.4616,-2.4284,-2.4411,-2.4515,-2.4613,3.7806,3.7336,3.6178,3.6001,3.6243,3.5539,3.5229,3.5219,3.5235,3.5285,3.5345,3.5446,3.593,3.6548,3.6942,3.6877,3.6652,3.5811,3.5553,3.5443,3.5084,3.5141,3.5218,3.4218,3.343,3.2987,3.2852,3.2237,3.116,3.1129,3.109,3.0821,3.0484,3.0305,3.0266,3.0166,3.0094,3.0072,2.9943,2.977,2.9608,2.9414,2.9138,2.891,2.881,2.8761,2.8662,2.8543,2.8562,2.8612,2.8637,2.8669,2.8591,2.8409,2.8118,2.8166,2.8118,2.7791,2.7187,2.741,2.7419,2.7274,2.7628,2.6975,2.2252,1.2823,-0.045,-1.479,-2.139,-2.9286,-2.9188,-2.8467,-2.8139,-2.8083,-2.8017,-2.8119,-2.8201,-2.7943,-2.8017,-2.8119,-2.7612,-2.723,-2.704,-2.6607,-2.6117,-2.573,-2.5411,-2.5443,-2.5576,-2.5212,-2.4795,-2.5467,-2.6247,-2.704,-2.7995,-2.8236,-2.8204,-2.7432,-2.6765,-2.6285,-2.5654,-2.5136,-2.5055,-2.5063,-2.4983,-2.4772,-2.4759,-2.4588,-2.4649,-2.4633,-2.4524,-2.4432,-2.4502,-2.4601,-2.4695,3.8215,3.7578,3.6654,3.6274,3.6178,3.5608,3.5323,3.5342,3.555,3.5604,3.5477,3.5548,3.5937,3.6607,3.7219,3.7569,3.7486,3.5982,3.5565,3.5391,3.4949,3.4949,3.4853,3.393,3.2929,3.2949,3.2833,3.2173,3.1513,3.1417,3.1302,3.1129,3.0727,3.0305,3.0266,3.0171,3.0113,2.9988,2.9841,2.9626,2.9415,2.9206,2.8975,2.8761,2.8743,2.873,2.8612,2.8536,2.8587,2.8662,2.8687,2.8694,2.8834,2.881,2.8767,2.8815,2.8834,2.8427,2.8104,2.7931,2.8036,2.8039,2.8543,2.7555,2.1866,0.9624,-0.7979,-2.5133,-2.982,-2.9512,-2.94,-2.874,-2.8402,-2.8246,-2.8146,-2.8025,-2.8119,-2.8017,-2.7847,-2.7719,-2.731,-2.7072,-2.6876,-2.6725,-2.6252,-2.6097,-2.5793,-2.5897,-2.6015,-2.5916,-2.5795,-2.6416,-2.7043,-2.7606,-2.8138,-2.8334,-2.8113,-2.747,-2.685,-2.6359,-2.5611,-2.4882,-2.4893,-2.4884,-2.4816,-2.4657,-2.4714,-2.4754,-2.4596,-2.4505,-2.4524,-2.4561,-2.4569,-2.4695,-2.4817,3.8493,3.831,3.686,3.6216,3.6254,3.6121,3.6045,3.6102,3.6651,3.671,3.5912,3.6156,3.6322,3.6616,3.6746,3.6498,3.6012,3.5839,3.557,3.5455,3.5218,3.518,3.5199,3.3699,3.3006,3.2936,3.287,3.2735,3.2295,3.1936,3.1955,3.1924,3.0829,3.0312,3.0266,3.0176,3.0003,2.9855,2.9626,2.9395,2.9181,2.9071,2.8952,2.8791,2.8718,2.8687,2.8605,2.8536,2.8543,2.8637,2.8669,2.8718,2.881,2.8881,2.8905,2.8929,2.8929,2.8892,2.8796,2.8791,2.8957,2.9074,2.9537,2.8398,2.0833,0.7621,-1.0417,-2.7846,-3.0027,-2.9861,-2.9639,-2.9165,-2.8901,-2.8578,-2.8246,-2.821,-2.8237,-2.8055,-2.7904,-2.773,-2.743,-2.7053,-2.6775,-2.6624,-2.6454,-2.6367,-2.6297,-2.6351,-2.6455,-2.6419,-2.6475,-2.7018,-2.7414,-2.7943,-2.8219,-2.8432,-2.8103,-2.7501,-2.7095,-2.6512,-2.5634,-2.4902,-2.4504,-2.4474,-2.4498,-2.4757,-2.5035,-2.4964,-2.4561,-2.445,-2.4522,-2.4571,-2.4594,-2.4749,-2.4912,3.9252,3.918,3.809,3.7578,3.7444,3.6573,3.6097,3.6153,3.6436,3.6135,3.5741,3.6501,3.6939,3.6956,3.6684,3.6329,3.6102,3.6074,3.5849,3.5397,3.5128,3.5084,3.5007,3.3814,3.291,3.3038,3.3237,3.3242,3.2942,3.2436,3.2186,3.1386,3.0727,3.0247,3.0226,3.0128,2.9956,2.968,2.9358,2.9016,2.8863,2.8767,2.8694,2.8587,2.8619,2.8612,2.8587,2.8502,2.8562,2.8637,2.8669,2.8737,2.8834,2.8881,2.8858,2.8858,2.8815,2.8815,2.8905,2.9085,2.9314,2.9548,2.9112,2.6364,1.7708,0.4893,-0.9013,-2.2109,-2.772,-2.9574,-2.9658,-2.92,-2.8865,-2.854,-2.8326,-2.8344,-2.8291,-2.8093,-2.7897,-2.7725,-2.7517,-2.7132,-2.6673,-2.6269,-2.6217,-2.635,-2.6233,-2.6253,-2.6638,-2.7014,-2.7157,-2.7449,-2.778,-2.8109,-2.8273,-2.844,-2.8153,-2.7683,-2.7528,-2.6812,-2.5722,-2.5047,-2.4588,-2.4424,-2.4537,-2.4871,-2.5299,-2.5004,-2.4468,-2.4465,-2.4566,-2.466,-2.4731,-2.4818,-2.4962,3.9781,3.9728,3.8977,3.8634,3.8455,3.719,3.6656,3.6594,3.6666,3.6295,3.5998,3.6644,3.7103,3.7126,3.6426,3.5986,3.6394,3.6482,3.6082,3.5451,3.5133,3.5191,3.4927,3.3928,3.3223,3.3152,3.3589,3.3264,3.2651,3.2422,3.1981,3.0893,3.0554,3.0245,3.0138,3.0019,2.9822,2.9418,2.9042,2.8755,2.8619,2.8569,2.8536,2.8528,2.8554,2.8587,2.8562,2.8536,2.8612,2.8687,2.8737,2.8785,2.8905,2.8858,2.8828,2.8785,2.8718,2.8644,2.8761,2.8905,2.9144,2.9228,2.7941,2.4161,1.3365,0.2019,-0.8304,-1.876,-2.5901,-2.884,-2.942,-2.9237,-2.8952,-2.8664,-2.8388,-2.8388,-2.8388,-2.8165,-2.7982,-2.7811,-2.7547,-2.7115,-2.6589,-2.6,-2.5898,-2.6198,-2.6252,-2.6201,-2.6681,-2.7258,-2.747,-2.7619,-2.7862,-2.8109,-2.83,-2.8332,-2.8019,-2.7798,-2.7624,-2.6962,-2.5777,-2.5084,-2.4626,-2.4574,-2.4577,-2.4653,-2.4912,-2.4634,-2.441,-2.453,-2.466,-2.4813,-2.4921,-2.4936,-2.4843,3.9735,3.9728,3.8953,3.8587,3.8455,3.83,3.8164,3.793,3.8042,3.8009,3.774,3.6877,3.6734,3.6911,3.6251,3.5818,3.6236,3.6362,3.5968,3.5841,3.5983,3.5748,3.5215,3.4476,3.391,3.3726,3.3792,3.2885,3.1925,3.2298,3.2413,3.2417,3.0805,3.0305,3.0034,2.9839,2.9514,2.9129,2.8803,2.8644,2.8543,2.8518,2.8562,2.8562,2.8605,2.8562,2.8492,2.8587,2.8644,2.8694,2.8785,2.8858,2.8905,2.8834,2.8804,2.8761,2.8637,2.8518,2.851,2.8767,2.9082,2.867,2.7067,2.3362,1.4711,0.2645,-0.796,-1.685,-2.4241,-2.91,-2.9623,-2.9495,-2.9086,-2.8855,-2.8576,-2.844,-2.8388,-2.8246,-2.8065,-2.7869,-2.7577,-2.721,-2.6741,-2.6168,-2.5981,-2.6265,-2.6505,-2.6505,-2.68,-2.731,-2.7478,-2.7654,-2.7847,-2.8053,-2.8273,-2.8252,-2.82,-2.7846,-2.7547,-2.6717,-2.564,-2.5116,-2.4772,-2.4539,-2.4524,-2.4505,-2.4575,-2.4754,-2.4839,-2.4714,-2.4764,-2.4926,-2.4719,-2.4502,-2.4408,3.9684,3.9689,3.9406,3.9236,3.9157,3.8625,3.8367,3.83,3.83,3.8638,3.8987,3.7525,3.7134,3.7495,3.7426,3.6625,3.6347,3.6844,3.6175,3.5594,3.549,3.5506,3.5085,3.4859,3.4483,3.4004,3.3726,3.3216,3.2248,3.2332,3.195,3.1556,3.0693,3.0178,2.9822,2.9551,2.9188,2.8957,2.8687,2.8484,2.8414,2.8432,2.8476,2.8476,2.858,2.8528,2.8476,2.8562,2.8612,2.8669,2.8785,2.8858,2.8905,2.881,2.8761,2.8694,2.8562,2.8353,2.8327,2.8658,2.9175,2.9322,2.7829,2.4514,1.7808,0.5805,-0.3606,-1.266,-2.2825,-2.9289,-2.959,-2.9339,-2.9042,-2.8925,-2.8761,-2.8551,-2.85,-2.8412,-2.8147,-2.7954,-2.7754,-2.7457,-2.6971,-2.6453,-2.635,-2.6367,-2.6607,-2.6825,-2.7055,-2.731,-2.7496,-2.7659,-2.7853,-2.7929,-2.8112,-2.8244,-2.8391,-2.7894,-2.7373,-2.6613,-2.5761,-2.5372,-2.5049,-2.4762,-2.4672,-2.4946,-2.514,-2.5274,-2.5205,-2.4934,-2.4917,-2.5032,-2.4681,-2.4261,-2.4007,3.9588,3.965,3.9669,3.9656,3.9585,3.9016,3.87,3.8614,3.837,3.8601,3.9107,3.7756,3.7718,3.8324,3.7709,3.7325,3.6736,3.6934,3.6274,3.5776,3.5446,3.5348,3.5236,3.5047,3.4729,3.4239,3.3997,3.3582,3.2694,3.2619,3.1977,3.1204,3.0536,3.0145,2.9589,2.9209,2.9057,2.9264,2.868,2.8587,2.8613,2.8479,2.8398,2.8442,2.8528,2.8554,2.851,2.8587,2.8662,2.8712,2.8785,2.8858,2.8858,2.8767,2.8669,2.8569,2.844,2.8264,2.8273,2.8646,2.9263,2.9518,2.8427,2.6299,2.0589,0.8282,-0.3452,-0.7954,-2.0273,-2.9677,-2.9536,-2.9316,-2.9214,-2.9129,-2.8777,-2.8578,-2.8761,-2.8742,-2.835,-2.802,-2.7823,-2.7601,-2.71,-2.6607,-2.6435,-2.6418,-2.6555,-2.6792,-2.707,-2.7293,-2.7509,-2.7689,-2.7864,-2.7875,-2.7906,-2.8182,-2.8268,-2.7387,-2.6957,-2.6713,-2.6085,-2.5607,-2.5289,-2.5132,-2.5171,-2.548,-2.5836,-2.6189,-2.5691,-2.504,-2.5076,-2.5179,-2.5023,-2.4585,-2.3844,3.9527,3.9502,3.9558,3.9602,3.9602,3.9602,3.9496,3.9277,3.8683,3.8445,3.8507,3.7587,3.8005,3.8681,3.7441,3.681,3.6914,3.7098,3.648,3.5457,3.5549,3.5605,3.5303,3.4982,3.4851,3.4771,3.4352,3.3742,3.3103,3.2985,3.2098,3.1099,3.0619,3.0152,2.9513,2.9056,2.9519,3.0342,2.9026,2.899,2.9205,2.8838,2.8425,2.863,2.8546,2.8554,2.8536,2.8662,2.8737,2.8761,2.8815,2.8881,2.881,2.8712,2.8612,2.8536,2.8406,2.8264,2.8109,2.8682,2.9209,2.9601,2.8651,2.6804,2.1095,0.9135,-0.3142,-0.6897,-2.0335,-2.8422,-2.9532,-2.9397,-2.9397,-2.9319,-2.8968,-2.8805,-2.8979,-2.9064,-2.8706,-2.8272,-2.8012,-2.7694,-2.7192,-2.6775,-2.6538,-2.6469,-2.6537,-2.6725,-2.7038,-2.7293,-2.7509,-2.7689,-2.7847,-2.7939,-2.7996,-2.8219,-2.8047,-2.7157,-2.6602,-2.6477,-2.6034,-2.539,-2.5237,-2.5355,-2.5762,-2.6137,-2.6679,-2.7203,-2.6189,-2.5208,-2.5239,-2.5263,-2.5161,-2.4871,-2.4111,3.9858,3.9432,3.952,3.9546,3.9546,3.952,3.952,3.9439,3.9221,3.9071,3.8946,3.8239,3.8117,3.831,3.8005,3.7107,3.6556,3.7106,3.6436,3.5077,3.5287,3.5154,3.4926,3.485,3.4771,3.4517,3.413,3.3683,3.3105,3.3153,3.249,3.1529,3.0624,2.9928,2.9447,2.9241,2.9781,2.9872,2.942,2.939,3.0001,2.906,2.8524,2.9035,2.8727,2.8554,2.8536,2.8712,2.8785,2.8785,2.8881,2.8905,2.881,2.8687,2.8637,2.8587,2.851,2.8536,2.8576,2.8929,2.9283,2.9444,2.9284,2.7579,2.3088,0.9048,0.003,-0.7897,-1.9799,-2.6905,-2.978,-2.955,-2.9514,-2.9605,-2.9401,-2.9258,-2.9275,-2.9277,-2.9092,-2.8634,-2.8306,-2.7742,-2.7235,-2.6775,-2.6521,-2.6521,-2.6572,-2.6742,-2.7023,-2.7261,-2.7478,-2.7689,-2.7829,-2.7966,-2.8112,-2.8254,-2.8373,-2.7846,-2.7045,-2.6472,-2.5917,-2.5564,-2.5539,-2.5838,-2.6332,-2.6811,-2.7228,-2.7331,-2.6186,-2.5438,-2.5618,-2.5522,-2.5344,-2.4985,-2.435,4.0039,3.9365,3.9469,3.9495,3.9495,3.952,3.9546,3.952,3.9451,3.9451,3.9314,3.867,3.8525,3.8643,3.8362,3.7751,3.6521,3.6599,3.6319,3.4885,3.449,3.4395,3.4374,3.4578,3.4442,3.4186,3.3949,3.3593,3.351,3.3375,3.2617,3.1597,3.0662,3.0008,2.9503,2.9395,2.9746,2.9889,2.9848,2.9369,2.9683,2.9319,2.8506,2.8784,2.8737,2.8536,2.8612,2.8712,2.881,2.8834,2.8881,2.8923,2.8828,2.8687,2.8637,2.8612,2.8587,2.8644,2.8773,2.8892,2.9279,2.9753,3.0075,2.8616,2.41,1.288,0.3283,-0.6129,-1.8291,-2.5234,-2.9139,-2.9011,-2.968,-2.9765,-2.9763,-2.9588,-2.9682,-2.972,-2.9583,-2.9118,-2.8923,-2.8229,-2.736,-2.6809,-2.6434,-2.6537,-2.664,-2.6842,-2.704,-2.7279,-2.7509,-2.773,-2.7844,-2.7942,-2.8092,-2.8301,-2.8372,-2.839,-2.7766,-2.7006,-2.693,-2.6776,-2.6562,-2.6466,-2.718,-2.7691,-2.7706,-2.7386,-2.6891,-2.6455,-2.6262,-2.6035,-2.5634,-2.4996,-2.436,4.0011,3.9266,3.9425,3.9495,3.9495,3.9571,3.9577,3.9552,3.9354,3.938,3.9521,3.8584,3.8483,3.9076,3.8544,3.7675,3.6842,3.6241,3.5601,3.483,3.4168,3.3884,3.3994,3.4327,3.4264,3.3992,3.3848,3.4032,3.4043,3.3802,3.2951,3.1618,3.0686,3.0179,2.9726,2.9445,3.0007,3.0525,3.0027,2.9987,3.0516,2.9362,2.8881,2.8919,2.8873,2.8699,2.871,2.8743,2.8858,2.8905,2.8947,2.8912,2.8816,2.863,2.8587,2.8562,2.8562,2.8656,2.8725,2.8845,2.9148,2.9605,2.9994,2.8866,2.4662,1.6466,0.6601,-0.3108,-1.3998,-2.1866,-2.783,-2.8848,-2.9825,-2.9924,-3.0011,-3.007,-3.0217,-3.0187,-3.0038,-2.9876,-2.991,-2.9262,-2.8006,-2.7266,-2.64,-2.6606,-2.6742,-2.6859,-2.7087,-2.7373,-2.76,-2.7858,-2.7931,-2.7924,-2.8124,-2.8402,-2.8554,-2.864,-2.8555,-2.7994,-2.7985,-2.7769,-2.7419,-2.745,-2.8218,-2.8498,-2.8134,-2.8189,-2.827,-2.7779,-2.6798,-2.6249,-2.5735,-2.489,-2.4189,3.9909,3.9175,3.9256,3.9346,3.9444,3.9495,3.9495,3.9469,3.9399,3.9495,3.9464,3.8627,3.8263,3.7863,3.7554,3.6723,3.5918,3.5318,3.509,3.4525,3.3903,3.3975,3.4158,3.4417,3.4352,3.4229,3.4213,3.4264,3.4049,3.3921,3.304,3.1531,3.1057,3.0622,3.0083,2.9564,3.0666,3.1157,3.0395,3.0707,3.0957,2.998,2.9661,2.9637,2.9458,2.9258,2.8873,2.8821,2.8877,2.8912,2.8894,2.8992,2.9591,2.9075,2.8712,2.8662,2.8616,2.8601,2.8651,2.8827,2.906,2.9342,2.9723,2.9062,2.5219,1.8553,0.8632,-0.1123,-1.0467,-1.8922,-2.6735,-2.9597,-3.0381,-3.0694,-3.0726,-3.0734,-3.0893,-3.1032,-3.0846,-3.0446,-3.0476,-2.9269,-2.8109,-2.7114,-2.6436,-2.6674,-2.6825,-2.6925,-2.7103,-2.7417,-2.7672,-2.7915,-2.8102,-2.8128,-2.8363,-2.8639,-2.8759,-2.885,-2.8796,-2.866,-2.835,-2.8147,-2.8015,-2.8209,-2.8643,-2.8561,-2.8253,-2.8464,-2.8894,-2.7806,-2.6838,-2.6357,-2.577,-2.4866,-2.4042,4.0044,3.9157,3.9101,3.9229,3.9418,3.9425,3.9451,3.9469,3.9451,3.9469,3.9452,3.8646,3.8019,3.7652,3.6975,3.6045,3.4978,3.4505,3.4221,3.409,3.375,3.3765,3.4022,3.437,3.4173,3.4143,3.4167,3.4197,3.4023,3.3721,3.2981,3.151,3.1469,3.1144,3.0602,3.0396,3.1137,3.1448,3.1361,3.1285,3.0903,3.0474,3.0335,3.0481,3.0204,2.9755,2.9217,2.9159,2.9265,2.9381,2.9405,2.9716,3.0126,2.9675,2.8855,2.8742,2.8521,2.8468,2.85,2.8773,2.8925,2.9138,2.9513,2.9417,2.7088,2.1961,1.1382,0.1087,-0.7991,-1.6707,-2.4206,-3.0522,-3.1103,-3.1651,-3.1569,-3.15,-3.168,-3.1918,-3.1553,-3.102,-3.0142,-2.8936,-2.7843,-2.6894,-2.6437,-2.6742,-2.6892,-2.694,-2.7166,-2.7478,-2.7713,-2.7936,-2.821,-2.8378,-2.8637,-2.8815,-2.8948,-2.9071,-2.9147,-2.8986,-2.8708,-2.8669,-2.87,-2.873,-2.8821,-2.8706,-2.8578,-2.9032,-2.9226,-2.8133,-2.7334,-2.702,-2.6116,-2.4622,-2.3856,4.0179,3.9073,3.9045,3.9175,3.9425,3.9335,3.9388,3.9552,3.9406,3.9413,3.9271,3.8589,3.8083,3.7437,3.6543,3.5647,3.4728,3.4069,3.3881,3.358,3.3521,3.3573,3.3883,3.4061,3.411,3.3817,3.3785,3.4154,3.3979,3.3703,3.2983,3.1451,3.1973,3.1727,3.0774,3.074,3.1299,3.187,3.1142,3.0471,3.0545,3.0188,2.984,3.0503,3.06,3.0532,3.0111,3.0063,3.0246,3.0233,3.0399,3.0595,3.0327,3.035,2.9502,2.8676,2.8407,2.83,2.8317,2.8507,2.8694,2.899,2.9457,2.9641,2.7646,2.4675,1.5059,0.3125,-0.6467,-1.6799,-2.5093,-2.9776,-3.1468,-3.2027,-3.2224,-3.2436,-3.2825,-3.2581,-3.1751,-3.094,-2.9457,-2.8338,-2.7773,-2.6891,-2.6336,-2.6724,-2.6892,-2.6908,-2.7166,-2.7509,-2.7742,-2.7992,-2.8228,-2.8492,-2.8743,-2.8957,-2.9115,-2.9251,-2.9322,-2.942,-2.9232,-2.9302,-2.9439,-2.9227,-2.8983,-2.9094,-2.9139,-2.9569,-2.9613,-2.8825,-2.8154,-2.7839,-2.6695,-2.513,-2.4378,3.9202,3.895,3.9045,3.9129,3.9183,3.9156,3.9219,3.9369,3.9343,3.9002,3.8614,3.8276,3.7539,3.6503,3.6111,3.5343,3.4534,3.3879,3.3936,3.3878,3.3725,3.3754,3.4046,3.4263,3.4218,3.4167,3.4128,3.4087,3.3943,3.3647,3.3054,3.1646,3.2007,3.1773,3.0464,3.0541,3.1137,3.1926,3.1083,3.072,3.1243,3.0494,2.9989,3.063,3.093,3.0567,3.0314,3.0495,3.0293,3.0119,3.0644,3.0547,2.9981,3.0441,2.9782,2.8613,2.8282,2.8182,2.8119,2.8219,2.8368,2.8542,2.8894,2.9363,2.8338,2.5543,1.8222,0.5838,-0.5515,-1.603,-2.5108,-2.8918,-3.1819,-3.2364,-3.2808,-3.3288,-3.3754,-3.2876,-3.1923,-3.0423,-2.8852,-2.8039,-2.7521,-2.7027,-2.6556,-2.6472,-2.6657,-2.6842,-2.7117,-2.743,-2.773,-2.7982,-2.8237,-2.8515,-2.8748,-2.8864,-2.8947,-2.9167,-2.9269,-2.9439,-2.9606,-2.9269,-2.8931,-2.9104,-2.9098,-2.9187,-2.9465,-3.0056,-2.9901,-2.9205,-2.8905,-2.8567,-2.7764,-2.6353,-2.569,3.9074,3.891,3.9064,3.9101,3.9129,3.9183,3.9032,3.8812,3.8808,3.8222,3.7422,3.7746,3.7352,3.5825,3.5525,3.4967,3.4193,3.3689,3.365,3.3759,3.4073,3.4161,3.4323,3.4409,3.4325,3.4274,3.4154,3.4012,3.3899,3.3684,3.3073,3.173,3.1881,3.1628,3.0228,3.0288,3.083,3.151,3.0921,3.103,3.1673,3.0894,3.0667,3.1237,3.1317,3.0938,3.0921,3.1129,3.1091,3.0927,3.1255,3.1119,3.0713,3.0649,2.9872,2.8801,2.8237,2.8099,2.7989,2.7971,2.8093,2.828,2.8709,2.9345,2.9404,2.5999,1.7494,0.5758,-0.2496,-1.2683,-2.5033,-3.1175,-3.2136,-3.2706,-3.2761,-3.2968,-3.2916,-3.2372,-3.1174,-2.969,-2.8399,-2.7569,-2.7058,-2.6521,-2.6212,-2.6573,-2.6725,-2.6858,-2.7117,-2.7338,-2.7672,-2.7855,-2.804,-2.8135,-2.8182,-2.8393,-2.8604,-2.8836,-2.9045,-2.8835,-2.8688,-2.8498,-2.8358,-2.8668,-2.8981,-2.9236,-2.9624,-3.0249,-3.0127,-2.9469,-2.9336,-2.9257,-2.8374,-2.7524,-2.6784,3.9258,3.8947,3.9036,3.9073,3.9101,3.9192,3.8816,3.8208,3.8222,3.7341,3.6222,3.759,3.7074,3.5783,3.4974,3.4229,3.3799,3.3815,3.37,3.3827,3.4236,3.4282,3.4311,3.434,3.4293,3.4197,3.408,3.3961,3.3865,3.3713,3.3111,3.1835,3.1555,3.1583,3.0396,3.0053,3.0585,3.1382,3.1273,3.0767,3.0876,3.1029,3.1192,3.157,3.1931,3.1764,3.171,3.1936,3.2151,3.1978,3.18,3.1319,3.0857,3.0432,2.9674,2.8757,2.83,2.8164,2.8035,2.8,2.8083,2.8316,2.8846,2.9172,2.924,2.5047,1.6571,0.6656,-0.1604,-1.1313,-2.3678,-3.1604,-3.2253,-3.2695,-3.2615,-3.2513,-3.2203,-3.1696,-3.0276,-2.8838,-2.7956,-2.706,-2.6524,-2.6016,-2.6151,-2.6521,-2.6825,-2.6989,-2.7166,-2.7307,-2.7522,-2.7582,-2.7638,-2.768,-2.7739,-2.8135,-2.8533,-2.8241,-2.8333,-2.8051,-2.7865,-2.7981,-2.8152,-2.8406,-2.8714,-2.9281,-2.9773,-3.0354,-3.0053,-2.9764,-2.9926,-2.9865,-2.909,-2.8276,-2.7615,3.875,3.891,3.8862,3.8892,3.895,3.8979,3.8572,3.8032,3.8059,3.7231,3.6366,3.7057,3.6864,3.4559,3.4667,3.4376,3.4161,3.4124,3.4195,3.4319,3.4315,3.4344,3.4335,3.4245,3.4197,3.4099,3.4023,3.3928,3.3876,3.3778,3.3314,3.2265,3.2128,3.1837,3.1066,3.0794,3.073,3.1454,3.1771,3.1382,3.1138,3.1084,3.0613,3.0867,3.1137,3.1518,3.2009,3.2855,3.2757,3.252,3.2109,3.1346,3.0703,3.0097,2.9465,2.8845,2.8388,2.83,2.8201,2.8055,2.8128,2.821,2.8704,2.9175,2.9025,2.8357,1.7902,0.4495,-0.4213,-1.2895,-2.3455,-2.9678,-3.1951,-3.2116,-3.2127,-3.1951,-3.1709,-3.048,-2.9082,-2.7969,-2.7012,-2.6333,-2.5793,-2.5621,-2.577,-2.612,-2.6453,-2.6708,-2.7006,-2.7198,-2.7417,-2.7432,-2.7388,-2.7475,-2.7689,-2.8249,-2.8533,-2.811,-2.7725,-2.7612,-2.763,-2.7802,-2.8011,-2.8529,-2.9052,-2.9605,-3.0093,-3.0522,-3.0429,-3.0251,-3.055,-3.0463,-2.9626,-2.8671,-2.7734]},{"header":{"parameterUnit":"m.s-1","parameterCategory":1,"la1":31.0,"la2":29.5877,"lo1":-88.7671,"lo2":-86.6584,"dy":0.0162,"dx":0.0185,"nx":115,"ny":88,"refTime":"2023-08-26T18:00:00:Z","depth":0,"parameterNumber":3,"parameterNumberName":"V-component_of_WINDS"},"data":[0.0,0.0,0.0,0.0,0.0,0.0,0.0,0.0,0.0,0.0,0.0,0.0,0.0,0.0,0.0,0.0,0.0,0.0,0.0,0.0,0.0,0.0,0.0,0.0,0.0,0.0,0.0,0.0,0.0,0.0,0.0,0.0,0.0,0.0,0.0,0.0,0.0,0.0,0.0,0.0,0.0,0.0,0.0,0.0,0.0,0.0,0.0,0.0,0.0,0.0,0.0,0.0,0.0,0.0,0.0,0.0,0.0,0.0,0.0,0.0,0.0,0.0,0.0,0.0,0.0,0.0,0.0,0.0,0.0,0.0,0.0,0.0,0.0,0.0,0.0,0.0,0.0,0.0,0.0,0.0,0.0,0.0,0.0,0.0,0.0,0.0,0.0,0.0,0.0,0.0,0.0,0.0,0.0,0.0,0.0,0.0,0.0,0.0,0.0,0.0,0.0,0.0,0.0,0.0,0.0,0.0,0.0,0.0,0.0,0.0,0.0,0.0,0.0,0.0,0.0,0.0,0.0,0.0,0.0,0.0,0.0,0.0,0.0,0.0,0.0,0.0,0.0,0.0,0.0,0.0,0.0,0.0,0.0,0.0,0.0,0.0,0.0,0.0,0.0,0.0,0.0,0.0,0.0,0.0,0.0,0.0,0.0,0.0,0.0,0.0,0.0,0.0,0.0,0.0,0.0,0.0,0.0,0.0,0.0,0.0,0.0,0.0,0.0,0.0,0.0,0.0,0.0,0.0,0.0,0.0,0.0,0.0,0.0,0.0,0.0,0.0,0.0,0.0,0.0,0.0,0.0,0.0,0.0,0.0,0.0,0.0,0.0,0.0,0.0,0.0,0.0,0.0,0.0,0.0,0.0,0.0,0.0,0.0,0.0,0.0,0.0,0.0,0.0,0.0,0.0,0.0,0.0,0.0,0.0,0.0,0.0,0.0,0.0,0.0,0.0,0.0,0.0,0.0,0.0,0.0,0.0,0.0,0.0,0.0,0.0,0.0,0.0,0.0,0.0,0.0,0.0,0.0,0.0,0.0,0.0,0.0,0.0,0.0,0.0,0.0,0.0,0.0,0.0,0.0,0.0,0.0,0.0,0.0,0.0,0.0,0.0,0.0,0.0,0.0,0.0,0.0,0.0,0.0,0.0,0.0,0.0,0.0,0.0,0.0,0.0,0.0,0.0,0.0,0.0,0.0,0.0,0.0,0.0,0.0,0.0,0.0,0.0,0.0,0.0,0.0,0.0,0.0,0.0,0.0,0.0,0.0,0.0,0.0,0.0,0.0,0.0,0.0,0.0,0.0,0.0,0.0,0.0,0.0,0.0,0.0,0.0,0.0,0.0,0.0,0.0,0.0,0.0,0.0,0.0,0.0,0.0,0.0,0.0,0.0,0.0,0.0,0.0,0.0,0.0,0.0,0.0,0.0,0.0,0.0,0.0,0.0,0.0,0.0,0.0,0.0,0.0,0.0,0.0,0.0,0.0,0.0,0.0,0.0,0.0,0.0,0.0,0.0,0.0,0.0,0.0,0.0,0.0,0.0,0.0,0.0,0.0,0.0,0.0,0.0,0.0,0.0,0.0,0.0,0.0,0.0,0.0,0.0,0.0,0.0,0.0,0.0,0.0,0.0,0.0,0.0,0.0,0.0,0.0,0.0,0.0,0.0,0.0,0.0,0.0,0.0,0.0,0.0,0.0,0.0,0.0,0.0,0.0,0.0,0.0,0.0,0.0,0.0,0.0,0.0,0.0,0.0,0.0,0.0,0.0,0.0,0.0,0.0,0.0,0.0,0.0,0.0,0.0,0.0,0.0,0.0,0.0,0.0,0.0,0.0,0.0,0.0,0.0,0.0,0.0,0.0,0.0,0.0,0.0,0.0,0.0,0.0,0.0,0.0,0.0,0.0,0.0,0.0,0.0,0.0,0.0,0.0,0.0,0.0,0.0,0.0,0.0,0.0,0.0,0.0,0.0,0.0,0.0,0.0,0.0,0.0,0.0,0.0,0.0,0.0,0.0,0.0,0.0,0.0,0.0,0.0,0.0,0.0,0.0,0.0,0.0,0.0,0.0,0.0,0.0,0.0,0.0,0.0,0.0,0.0,0.0,0.0,0.0,0.0,0.0,0.0,0.0,0.0,0.0,0.0,0.0,0.0,0.0,0.0,0.0,0.0,0.0,0.0,0.0,0.0,0.0,0.0,0.0,0.0,0.0,0.0,0.0,0.0,0.0,0.0,0.0,0.0,0.0,0.0,0.0,0.0,0.0,0.0,0.0,0.0,0.0,0.0,0.0,0.0,0.0,0.0,0.0,0.0,0.0,0.0,0.0,0.0,0.0,0.0,0.0,0.0,0.0,0.0,0.0,0.0,0.0,0.0,0.0,0.0,0.0,0.0,0.0,0.0,0.0,0.0,0.0,0.0,0.0,0.0,0.0,0.0,0.0,0.0,0.0,0.0,0.0,0.0,0.0,0.0,0.0,0.0,0.0,0.0,0.0,0.0,0.0,0.0,0.0,0.0,0.0,0.0,0.0,0.0,0.0,0.0,0.0,0.0,0.0,0.0,0.0,0.0,0.0,0.0,0.0,0.0,0.0,0.0,0.0,0.0,0.0,0.0,0.0,0.0,0.0,0.0,0.0,0.0,0.0,0.0,0.0,0.0,0.0,0.0,0.0,0.0,0.0,0.0,0.0,0.0,0.0,0.0,0.0,0.0,0.0,0.0,0.0,0.0,0.0,0.0,0.0,0.0,0.0,0.0,0.0,0.0,0.0,0.0,0.0,0.0,0.0,0.0,0.0,0.0,0.0,0.0,0.0,0.0,0.0,0.0,0.0,0.0,0.0,0.0,0.0,0.0,0.0,0.0,0.0,0.0,0.0,0.0,0.0,0.0,0.0,0.0,0.0,0.0,0.0,0.0,0.0,0.0,0.0,0.0,0.0,0.0,0.0,0.0,0.0,0.0,0.0,0.0,0.0,0.0,0.0,0.0,0.0,0.0,0.0,0.0,0.0,0.0,0.0,0.0,0.0,0.0,0.0,0.0,0.0,0.0,0.0,0.0,0.0,0.0,0.0,0.0,0.0,0.0,0.0,0.0,0.0,0.0,0.0,0.0,0.0,0.0,0.0,0.0,0.0,0.0,0.0,0.0,0.0,0.0,0.0,0.0,0.0,0.0,0.0,0.0,0.0,0.0,0.0,0.0,0.0,0.0,0.0,0.0,0.0,0.0,0.0,0.0,0.0,0.0,0.0,0.0,0.0,0.0,0.0,0.0,0.0,0.0,0.0,0.0,0.0,0.0,0.0,0.0,0.0,0.0,0.0,0.0,0.0,0.0,0.0,0.0,0.0,0.0,0.0,0.0,0.0,0.0,0.0,0.0,0.0,0.0,0.0,0.0,0.0,0.0,0.0,0.0,0.0,0.0,0.0,0.0,0.0,0.0,0.0,0.0,0.0,0.0,0.0,0.0,0.0,0.0,0.0,0.0,0.0,0.0,0.0,0.0,0.0,0.0,0.0,0.0,0.0,0.0,0.0,0.0,0.0,0.0,0.0,0.0,0.0,0.0,0.0,0.0,0.0,0.0,0.0,0.0,0.0,0.0,0.0,0.0,0.0,0.0,0.0,0.0,0.0,0.0,0.0,0.0,0.0,0.0,0.0,0.0,0.0,0.0,0.0,0.0,0.0,0.0,0.0,0.0,0.0,0.0,0.0,0.0,0.0,0.0,0.0,0.0,0.0,0.0,0.0,0.0,0.0,0.0,0.0,0.0,0.0,0.0,0.0,0.0,0.0,0.0,0.0,0.0,0.0,0.0,0.0,0.0,0.0,0.0,0.0,0.0,0.0,0.0,0.0,0.0,0.0,0.0,0.0,0.0,0.0,0.0,0.0,0.0,0.0,0.0,0.0,0.0,0.0,0.0,0.0,0.0,0.0,0.0,0.0,0.0,0.0,0.0,0.0,0.0,0.0,0.0,0.0,0.0,0.0,0.0,0.0,0.0,0.0,0.0,0.0,0.0,0.0,0.0,0.0,0.0,0.0,0.0,0.0,0.0,0.0,0.0,0.0,0.0,0.0,0.0,0.0,0.0,0.0,0.0,0.0,0.0,0.0,0.0,0.0,0.0,0.0,0.0,0.0,0.0,0.0,0.0,0.0,0.0,0.0,0.0,0.0,0.0,0.0,0.0,0.0,0.0,0.0,0.0,0.0,0.0,0.0,0.0,0.0,0.0,0.0,0.0,0.0,0.0,0.0,0.0,0.0,0.0,0.0,0.0,0.0,0.0,0.3171,0.0,0.0,0.0,0.0,0.0,0.0,0.0,0.0,0.0,0.0,0.0,0.0,0.0,0.0,0.0,0.0,0.0,0.0,0.0,0.0,0.0,0.0,0.0,0.0,0.0,0.0,0.0,0.0,0.0,0.0,0.0,0.0,0.0,0.0,0.0,0.0,0.0,0.0,0.0,0.0,0.0,0.0,0.0,0.0,0.0,0.0,0.0,0.0,0.0,0.0,0.0,0.0,0.0,0.0,0.0,0.0,0.0,0.0,0.0,0.0,0.0,0.0,0.0,0.0,0.0,0.0,0.0,0.0,0.0,0.0,0.0,0.0,0.0,0.0,0.0,0.0,0.0,0.0,0.0,0.0,0.0,0.0,0.0,0.0,0.0,0.0,0.0,0.0,0.0,0.0,0.0,0.0,0.0,0.0,0.0,0.0,0.0,0.0,0.0,0.0,0.0,0.0,0.0,0.0,0.0,0.0,0.0,0.0,0.0,0.0,0.3999,0.3798,0.3536,0.3344,0.3109,0.0,0.0,0.0,0.0,0.0,0.0,0.0,0.0,0.0,0.0,0.0,0.0,0.0,0.0,0.0,0.0,0.0,0.0,0.0,0.0,0.0,0.0,0.0,0.0,0.0,0.0,0.0,0.0,0.0,0.0,0.0,0.0,0.0,0.0,0.0,0.0,0.0,0.0,0.0,0.0,0.0,0.0,0.0,0.0,0.0,0.0,0.0,0.0,0.0,0.0,0.0,0.0,0.0,0.0,0.0,0.0,0.0,0.0,0.0,0.0,0.0,0.0,0.0,0.0,0.0,0.0,0.0,0.0,0.0,0.0,0.0,0.0,0.0,0.0,0.0,0.0,0.0,0.0,0.0,0.0,0.0,0.0,0.0,0.0,0.0,0.0,0.0,0.0,0.0,0.0,0.0,0.0,0.0,0.0,0.0,0.0,0.0,0.0,0.0,0.0,0.0,0.0,0.0,0.0,0.0,0.0,0.0,0.0,0.0,0.0,0.0,0.0,0.3497,0.3212,0.3006,0.0,0.0,0.0,0.0,0.0,0.0,0.0,0.0,0.0,0.0,0.0,0.0,0.0,0.0,0.0,0.0,0.0,0.0,0.0,0.0,0.0,0.0,0.0,0.0,0.0,0.0,0.0,0.0,0.0,0.0,0.0,0.0,0.0,0.0,0.0,0.0,0.0,0.0,0.0,0.0,0.0,0.0,0.0,0.0,0.0,0.0,0.0,0.0,0.0,0.0,0.0,0.0,0.0,0.0,0.0,0.0,0.0,0.0,0.0,0.0,0.0,0.0,0.0,0.0,0.0,0.0,0.0,0.0,0.0,0.0,0.0,0.0,0.0,0.0,0.0,0.0,0.0,0.0,0.0,0.0,0.0,0.0,0.0,0.0,0.0,0.0,0.0,0.0,0.0,0.0,0.0,0.0,0.0,0.0,0.0,0.0,0.0,0.0,0.0,0.0,0.0,0.0,0.0,0.0,0.0,0.0,0.0,0.0,0.0,0.0,0.4128,0.4152,0.3597,0.0,0.2749,0.0,0.0,0.0,0.0,0.0,0.0,0.0,0.0,0.0,0.0,0.0,0.0,0.0,0.0,0.0,0.0,0.0,0.0,0.0,0.0,0.0,0.0,0.0,0.0,0.0,0.0,0.0,0.0,0.0,0.0,0.0,0.0,0.0,0.0,0.0,0.0,0.0,0.0,0.0,0.0,0.0,0.0,0.0,0.0,0.0,0.0,0.0,0.0,0.0,0.0,0.0,0.0,0.0,0.0,0.0,0.0,0.0,0.0,0.0,0.0,0.0,0.0,0.0,0.0,0.0,0.0,0.0,0.0,0.0,0.0,0.0,0.0,0.0,0.0,0.0,0.0,0.0,0.0,0.0,0.0,0.0,0.0,0.0,0.0,0.0,0.0,0.0,0.0,0.0,0.0,0.0,0.0,0.0,0.0,0.0,0.0,0.0,0.0,0.0,0.0,0.0,0.0,0.0,0.0,0.0,0.0,0.0,0.0,0.0,0.0,0.3813,0.3662,0.3111,0.2779,0.0,0.0,0.0,0.0,0.0,0.0,0.0,0.0,0.0,0.0,0.0,0.0,0.0,0.0,0.0,0.0,0.0,0.0,0.0,0.0,0.0,0.0,0.0,0.0,0.0,0.0,0.0,0.0,0.0,0.0,0.0,0.0,0.0,0.0,0.0,0.0,0.0,0.0,0.0,0.0,0.0,0.0,0.0,0.0,0.0,0.0,0.0,0.0,0.0,0.0,0.0,0.0,0.0,0.0,0.0,0.0,0.0,0.0,0.0,0.0,0.0,0.0,0.0,0.0,0.0,0.0,0.0,0.0,0.0,0.0,0.0,0.0,0.0,0.0,0.0,0.0,0.0,0.0,0.0,0.0,0.0,0.0,0.0,0.0,0.0,0.0,0.0,0.0,0.0,0.0,0.0,0.0,0.0,0.0,0.0,0.0,0.0,0.0,0.0,0.0,0.0,0.0,0.0,0.0,0.0,0.0,0.0,0.0,0.0,0.0,0.37,0.3508,0.3212,0.2742,0.2577,0.2679,0.0,0.0,0.0,0.0,0.0,0.0,0.0,0.0,0.0,0.0,0.0,0.0,0.0,0.0,0.0,0.0,0.0,0.0,0.0,0.0,0.0,0.0,0.0,0.0,0.0,0.0,0.0,0.0,0.0,0.0,0.0,0.0,0.0,0.0,0.0,0.0,0.0,0.0,0.0,0.0,0.0,0.0,0.0,0.0,0.0,0.0,0.0,0.0,0.0,0.0,0.0,0.0,0.0,0.0,0.0,0.0,0.0,0.0,0.0,0.0,0.0,0.0,0.0,0.0,0.0,0.0,0.0,0.0,0.0,0.0,0.0,0.0,0.0,0.0,0.0,0.0,0.0,0.0,0.0,0.0,0.0,0.0,0.0,0.0,0.0,0.0,0.0,0.0,0.0,0.0,0.0,0.0,0.0,0.0,0.0,0.0,0.0,0.0,0.0,0.0,0.0,0.0,0.0,0.0,0.0,0.0,0.0,0.0,0.4051,0.377,0.3368,0.2937,0.2673,0.2577,0.0,0.0,0.0,0.0,0.0,0.0,0.0,0.0,0.0,0.0,0.0,0.0,0.0,0.0,0.0,0.0,0.0,0.0,0.0,0.0,0.0,0.0,0.0,0.0,0.0,0.0,0.0,0.0,0.0,0.0,0.0,0.0,0.0,0.0,0.0,0.0,0.0,0.0,0.0,0.0,0.0,0.0,0.0,0.0,0.0,0.0,0.0,0.0,0.0,0.0,0.0,0.0,0.0,0.0,0.0,0.0,0.0,0.0,0.0,0.0,0.0,0.0,0.0,0.0,0.0,0.0,0.0,0.0,0.0,0.0,0.0,0.0,0.0,0.0,0.0,0.0,0.0,0.0,0.0,0.0,0.0,0.0,0.0,0.0,0.0,0.0,0.0,0.0,0.0,0.0,0.0,0.0,0.0,0.0,0.0,0.0,0.0,0.0,0.0,0.0,0.0,0.0,0.0,0.0,0.0,0.0,0.0,0.0,0.0,0.3894,0.3395,0.297,0.2639,0.2543,0.2577,0.0,0.0,0.0,0.0,0.0,0.0,0.0,0.0,0.0,0.0,0.0,0.0,0.0,0.0,0.0,0.0,0.0,0.0,0.0,0.0,0.0,0.0,0.0,0.0,0.0,0.0,0.0,0.0,0.0,0.0,0.0,0.0,0.0,0.0,0.0,0.0,0.0,0.0,0.0,0.0,0.0,0.0,0.0,0.0,0.0,0.0,0.0,0.0,0.0,0.0,0.0,0.0,0.0,0.0,0.0,0.0,0.0,0.0,0.0,0.0,0.0,0.0,0.0,0.0,0.0,0.0,0.0,0.0,0.0,0.0,0.0,0.0,0.0,0.0,0.0,0.0,0.0,0.0,0.0,0.0,0.0,0.0,0.0,0.0,0.0,0.0,0.0,0.0,0.0,0.0,0.0,0.0,0.0,0.0,0.0,0.0,0.0,0.0,0.0,0.0,0.0,0.0,0.0,0.0,0.0,0.0,0.0,0.0,0.0,0.3491,0.0,0.2742,0.2513,0.2555,0.2682,0.0,0.0,0.0,0.0,0.0,0.0,0.0,0.0,0.0,0.0,0.0,0.0,0.0,0.0,0.0,0.0,0.0,0.0,0.0,0.0,0.0,0.0,0.0,0.0,0.0,0.0,0.0,0.0,0.0,0.0,0.0,0.0,0.0,0.0,0.0,0.0,0.0,0.0,0.0,0.0,0.0,0.0,0.0,0.0,0.0,0.0,0.0,0.0,0.0,0.0,0.0,0.0,0.0,0.0,0.0,0.0,0.0,0.0,0.0,0.0,0.0,0.0,0.0,0.0,0.0,0.0,0.0,0.0,0.0,0.0,0.0,0.0,0.0,0.0,0.0,0.0,0.0,0.0,0.0,0.0,0.0,0.0,0.0,0.0,0.0,0.0,0.0,0.0,0.0,0.0,0.0,0.0,0.0,0.0,0.0,0.0,0.0,0.0,0.0,0.0,0.0,0.0,0.0,0.0,0.0,0.0,0.0,0.0,0.3608,0.2952,0.2782,0.2646,0.2513,0.2679,0.2936,0.0,0.0,0.0,0.0,0.0,0.0,0.0,0.0,0.0,0.0,0.0,0.0,0.0,0.0,0.0,0.0,0.0,0.0,0.0,0.0,0.0,0.0,0.0,0.0,0.0,0.0,0.0,0.0,0.0,0.0,0.0,0.0,0.0,0.0,0.0,0.0,0.0,0.0,0.0,0.0,0.0,0.0,0.0,0.0,0.0,0.0,0.0,0.0,0.0,0.0,0.0,0.0,0.0,0.0,0.0,0.0,0.0,0.0,0.0,0.0,0.0,0.0,0.0,0.0,0.0,0.0,0.0,0.0,0.0,0.0,0.0,0.0,0.0,0.0,0.0,0.0,0.0,0.0,0.0,0.0,0.0,0.0,0.0,0.0,0.0,0.0,0.0,0.0,0.0,0.0,0.0,0.0,0.0,0.0,0.0,0.0,0.0,0.0,0.0,0.0,0.0,0.0,0.0,0.0,0.0,0.0,0.0,0.0,0.0,0.2968,0.2659,0.2408,0.2242,0.2612,0.3018,0.0,0.0,0.0,0.0,0.0,0.0,0.0,0.0,0.0,0.0,0.0,0.0,0.0,0.0,0.0,0.0,0.0,0.0,0.0,0.0,0.0,0.0,0.0,0.0,0.0,0.0,0.0,0.0,0.0,0.0,0.0,0.0,0.0,0.0,0.0,0.0,0.0,0.0,0.0,0.0,0.0,0.0,0.0,0.0,0.0,0.0,0.0,0.0,0.0,0.0,0.0,0.0,0.0,0.0,0.0,0.0,0.0,0.0,0.0,0.0,0.0,0.0,0.0,0.0,0.0,0.0,0.0,0.0,0.0,0.0,0.0,0.0,0.0,0.0,0.0,0.0,0.0,0.0,0.0,0.0,0.0,0.0,0.0,0.0,0.0,0.0,0.0,0.0,0.0,0.0,0.0,0.0,0.0,0.0,0.0,0.0,0.0,0.0,0.0,0.0,0.0,0.0,0.0,0.0,0.0,0.0,0.0,0.0,0.0,0.3155,0.2571,0.2142,0.1871,0.2297,0.2785,0.3316,0.0,0.0,0.0,0.0,0.0,0.0,0.0,0.0,0.0,0.0,0.0,0.0,0.0,0.0,0.0,0.0,0.0,0.0,0.0,0.0,0.0,0.0,0.0,0.0,0.0,0.0,0.0,0.0,0.0,0.0,0.0,0.0,0.0,0.0,0.0,0.0,0.0,0.0,0.0,0.0,0.0,0.0,0.0,0.0,0.0,0.0,0.0,0.0,0.0,0.0,0.0,0.0,0.0,0.0,0.0,0.0,0.0,0.0,0.0,0.0,0.0,0.0,0.0,0.0,0.0,0.0,0.0,0.0,0.0,0.0,0.0,0.0,0.0,0.0,0.0,0.0,0.0,0.0,0.0,0.0,0.0,0.0,0.0,0.0,0.0,0.0,0.0,0.0,0.0,0.0,0.0,0.0,0.0,0.0,0.0,0.0,0.0,0.0,0.0,0.0,0.0,0.0,0.0,0.0,0.0,0.0,0.0,0.0,0.3406,0.2481,0.182,0.1447,0.1813,0.2275,0.0,0.0,0.0,0.0,0.0,0.0,0.0,0.0,0.0,0.0,0.0,0.0,0.0,0.0,0.0,0.0,0.0,0.0,0.0,0.0,0.0,0.0,0.0,0.0,0.0,0.0,0.0,0.0,0.0,0.0,0.0,0.0,0.0,0.0,0.0,0.0,0.0,0.0,0.0,0.0,0.0,0.0,0.0,0.0,0.0,0.0,0.0,0.0,0.0,0.0,0.0,0.0,0.0,0.0,0.0,0.0,0.0,0.0,0.0,0.0,0.0,0.0,0.0,0.0,0.0,0.0,0.0,0.0,0.0,0.0,0.0,0.0,0.0,0.0,0.0,0.0,0.0,0.0,0.0,0.0,0.0,0.0,0.0,0.0,0.0,0.0,0.0,0.0,0.0,0.0,0.0,0.0,0.0,0.0,0.0,0.0,0.0,0.0,0.0,0.0,0.0,0.0,0.0,0.0,0.0,0.0,0.0,0.0,0.0,0.3388,0.2624,0.174,0.0782,0.1566,0.2271,0.0,0.0,0.0,0.0,0.0,0.0,0.0,0.0,0.0,0.0,0.0,0.0,0.0,0.0,0.0,0.0,0.0,0.0,0.0,0.0,0.0,0.0,0.0,0.0,0.0,0.0,0.0,0.0,0.0,0.0,0.0,0.0,0.0,0.0,0.0,0.0,0.0,0.0,0.0,0.0,0.0,0.0,0.0,0.0,0.0,0.0,0.0,0.0,0.0,0.0,0.0,0.0,0.0,0.0,0.0,0.0,0.0,0.0,0.0,0.0,0.0,0.0,0.0,0.0,0.0,0.0,0.0,0.0,0.0,0.0,0.0,0.0,0.0,0.0,0.0,0.0,0.0,0.0,0.0,0.0,0.0,0.0,0.0,0.0,0.0,0.0,0.0,0.0,0.0,0.0,0.0,0.0,0.0,0.0,0.0,0.0,0.0,0.0,0.0,0.0,0.0,0.0,0.0,0.0,0.0,0.0,0.0,0.0,0.4262,0.3535,0.2848,0.1965,0.0834,0.1418,0.1914,0.0,0.0,0.0,0.0,0.0,0.0,0.0,0.0,0.0,0.0,0.0,0.0,0.0,0.0,0.0,0.0,0.0,0.0,0.0,0.0,0.0,0.0,0.0,0.0,0.0,0.0,0.0,0.0,0.0,0.0,0.0,0.0,0.0,0.0,0.0,0.0,0.0,0.0,0.0,0.0,0.0,0.0,0.0,0.0,0.0,0.0,0.0,0.0,0.0,0.0,0.0,0.0,0.0,0.0,0.0,0.0,0.0,0.0,0.0,0.0,0.0,0.0,0.0,0.0,0.0,0.0,0.0,0.0,0.0,0.0,0.0,0.0,0.0,0.0,0.0,0.0,0.0,0.0,0.0,0.0,0.0,0.0,0.0,0.0,0.0,0.0,0.0,0.0,0.0,0.0,0.0,0.0,0.0,0.0,0.0,0.0,0.0,0.0,0.0,0.0,0.0,0.0,0.0,0.0,0.0,0.0,0.0,0.0,0.4522,0.3717,0.3093,0.2352,0.1444,0.1315,0.1311,0.0,0.0,0.0,0.0,0.0,0.0,0.0,0.0,0.0,0.0,0.0,0.0,0.0,0.0,0.0,0.0,0.0,0.0,0.0,0.0,0.0,0.0,0.0,0.0,0.0,0.0,0.0,0.0,0.0,0.0,0.0,0.0,0.0,0.0,0.0,0.0,0.0,0.0,0.0,0.0,0.0,0.0,0.0,0.0,0.0,0.0,0.0,0.0,0.0,0.0,0.0,0.0,0.0,0.0,0.0,0.0,0.0,0.0,0.0,0.0,0.0,0.0,0.0,0.0,0.0,0.0,0.0,0.0,0.0,0.0,0.0,0.0,0.0,0.0,0.0,0.0,0.0,0.0,0.0,0.0,0.0,0.0,0.0,0.0,0.0,0.0,0.0,0.0,0.0,0.0,0.0,0.0,0.0,0.0,0.0,0.0,0.0,0.0,0.0,0.0,0.0,0.0,0.0,0.0,0.0,0.0,0.0,0.0,0.454,0.3632,0.305,0.2305,0.1433,0.1146,0.0966,0.0,0.0,0.0,0.0,0.0,0.0,0.0,0.0,0.0,0.0,0.0,0.0,0.0,0.0,0.0,0.0,0.0,0.0,0.0,0.0,0.0,0.0,0.0,0.0,0.0,0.0,0.0,0.0,0.0,0.0,0.0,0.0,0.0,0.0,0.0,0.0,0.0,0.0,0.0,0.0,0.0,0.0,0.0,0.0,0.0,0.0,0.0,0.0,-0.4638,0.0,0.0,0.0,0.0,0.0,0.0,0.0,0.0,0.0,0.0,0.0,0.0,0.0,0.0,0.0,0.0,0.0,0.0,0.0,0.0,0.0,0.0,0.0,0.0,0.0,0.0,0.0,0.0,0.0,0.0,0.0,0.0,0.0,0.0,0.0,0.0,0.0,0.0,0.0,0.0,0.0,0.0,0.0,0.0,0.0,0.0,0.0,0.0,0.0,0.0,0.0,0.0,0.0,0.0,0.0,0.0,0.0,0.0,0.0,0.4683,0.3672,0.3031,0.2194,0.1212,0.0724,0.0679,0.0,0.0,0.0,0.0,0.0,0.0,0.0,0.0,0.0,0.0,0.0,0.0,0.0,0.0,0.0,0.0,0.0,0.0,0.0,0.0,0.0,0.0,0.0,0.0,0.0,0.0,0.0,0.0,0.0,0.0,0.0,0.0,0.0,0.0,0.0,0.0,0.0,0.0,0.0,0.0,0.0,0.0,0.0,0.0,0.0,0.0,0.0,0.0,0.0,0.0,0.0,0.0,0.0,0.0,0.0,0.0,0.0,0.0,0.0,0.0,0.0,0.0,0.0,0.0,0.0,0.0,0.0,0.0,0.0,0.0,0.0,0.0,0.0,0.0,0.0,0.0,0.0,0.0,0.0,0.0,0.0,0.0,0.0,0.0,0.0,0.0,0.0,0.0,0.0,0.0,0.0,0.0,0.0,0.0,0.0,0.0,0.0,0.0,0.0,0.0,0.0,0.0,0.0,0.0,0.0,0.0,0.0,0.5727,0.4785,0.3695,0.2967,0.2033,0.0905,0.0245,0.0288,0.1088,0.0,0.0,0.0,0.0,0.0,0.0,0.0,0.0,0.0,0.0,0.0,0.0,0.0,0.0,0.0,0.0,0.0,0.0,0.0,0.0,0.0,0.0,0.0,0.0,0.0,0.0,0.0,0.0,0.0,0.0,0.0,0.0,0.0,0.0,0.0,0.0,0.0,0.0,0.6912,0.1359,0.0,0.0,0.0,0.0,0.0,0.0,0.0,0.0,-0.2954,0.0,0.0,0.0,0.0,0.0,0.0,0.0,0.0,0.0,0.0,0.0,0.0,0.0,0.0,0.0,0.0,0.0,0.0,0.0,0.0,0.0,0.0,0.0,0.0,0.0,0.0,0.0,0.0,0.0,0.0,0.0,0.0,0.0,0.0,0.0,0.0,0.0,0.0,0.0,0.0,0.0,0.0,0.0,0.0,0.0,0.0,0.0,0.0,0.0,0.0,0.0,0.0,0.0,0.0,0.0,0.0,0.639,0.5471,0.4536,0.3621,0.2686,0.1718,0.0769,-0.0,-0.0487,-0.0618,0.0,0.0,0.0,0.0,0.0,0.0,0.0,0.0,0.0,0.0,0.0,0.0,0.0,0.0,0.0,0.0,0.0,0.0,0.0,0.0,0.0,0.0,0.0,0.0,0.0,0.0,0.0,0.0,0.0,0.0,0.0,0.0,0.0,0.0,0.0,0.0,0.0,0.0,0.0,0.0518,-0.3513,0.0,0.0,0.0,0.0,0.0,0.0,0.0,0.0,-0.5137,0.0,0.0,0.0,0.0,0.0,0.0,0.0,0.0,0.0,0.0,0.0,0.0,0.0,0.0,0.0,0.0,0.0,0.0,0.0,0.0,0.0,0.0,0.0,0.0,0.0,0.0,0.0,0.0,0.0,0.0,0.0,0.0,0.0,0.0,0.0,0.0,0.0,0.0,0.0,0.0,0.0,0.0,0.0,0.0,0.0,0.0,0.0,0.0,0.0,0.0,0.0,0.0,0.0,0.0,0.0,0.6447,0.5342,0.432,0.3428,0.2643,0.1707,0.0627,-0.0102,-0.0664,0.0,0.0,0.0,0.0,0.0,0.0,0.0,0.0,0.0,0.0,0.0,0.0,0.0,0.0,0.0,0.0,0.0,0.0,0.0,0.0,0.0,0.0,0.0,0.0,0.0,0.0,0.0,0.0,0.0,0.0,0.0,0.0,0.0,0.0,0.0,0.0,0.0,0.0,0.0,0.0,-0.0061,-0.363,-0.6424,0.0,0.0,0.0,0.0,0.0,0.0,-0.6711,-0.6687,0.0,0.0,0.0,0.0,0.0,0.0,0.0,0.0,0.0,0.0,0.0,0.0,0.0,0.0,0.0,0.0,0.0,0.0,0.0,0.0,0.0,0.0,0.0,0.0,0.0,0.0,0.0,0.0,0.0,0.0,0.0,0.0,0.0,0.0,0.0,0.0,0.0,0.0,0.0,0.0,0.0,0.0,0.0,0.0,0.0,0.0,0.0,0.0,0.0,0.0,0.0,0.0,0.0,0.0,0.0,0.6569,0.5282,0.4159,0.3292,0.2763,0.182,0.0514,-0.0139,-0.0711,0.0,0.0,0.0,0.0,0.0,0.0,0.0,0.0,0.0,0.0,0.0,0.0,0.0,0.0,0.0,0.0,0.0,0.0,0.0,0.0,0.0,0.0,0.0,0.0,0.0,0.0,0.0,0.0,0.0,0.0,0.0,0.0,0.0,0.0,0.0,0.0,0.0,0.0,0.0,0.0,0.0,-0.3712,-0.6603,-0.782,0.0,0.0,0.0,0.0,-0.6159,-0.6929,0.0,0.0,0.0,0.0,0.0,0.0,0.0,0.0,0.0,0.0,0.0,0.0,0.0,0.0,0.0,0.0,0.0,0.0,0.0,0.0,0.0,0.0,0.0,0.0,0.0,0.0,0.0,0.0,0.0,0.0,0.0,0.0,0.0,0.0,0.0,0.0,0.0,0.0,0.0,0.0,0.0,0.0,0.0,0.0,0.0,0.0,0.0,0.0,0.0,0.0,0.0,0.0,0.0,0.0,0.0,0.0,0.6559,0.5219,0.4196,0.3543,0.2968,0.1926,0.0386,-0.0319,-0.0869,0.0,0.0,0.0,0.0,0.0,0.0,0.0,0.0,0.0,0.0,0.0,0.0,0.0,0.0,0.0,0.0,0.0,0.0,0.0,0.0,0.0,0.0,0.0,0.0,0.0,0.0,0.0,0.0,0.0,0.0,0.0,0.0,0.0,0.0,0.0,0.0,0.0,0.0,0.0,0.0,0.0,-0.3665,-0.6734,-0.8168,-0.857,0.0,0.0,-0.7634,-0.6431,-0.7601,0.0,0.0,0.0,0.0,0.0,0.0,0.0,0.0,0.0,0.0,0.0,0.0,0.0,0.0,0.0,0.0,0.0,0.0,0.0,0.0,0.0,0.0,0.0,0.0,0.0,0.0,0.0,0.0,0.0,0.0,0.0,0.0,0.0,0.0,0.0,0.0,0.0,0.0,0.0,0.0,0.0,0.0,0.0,0.0,0.0,0.0,0.0,0.0,0.0,0.0,0.0,0.0,0.0,0.0,0.0,0.619,0.5939,0.4923,0.397,0.3206,0.2876,0.1937,0.0244,-0.0705,-0.1272,0.0,0.0,0.0,0.0,0.0,0.0,0.0,0.0,0.0,0.0,0.0,0.0,0.0,0.0,0.0,0.0,0.0,0.0,0.0,0.0,0.0,0.0,0.0,0.0,0.0,0.0,0.0,0.0,0.0,0.0,0.0,0.0,0.0,0.0,0.0,0.0,0.0,0.0,0.0,0.0,0.0,0.0,-0.7333,-0.8777,0.0,0.0,0.0,-0.8264,-0.7554,0.0,0.0,0.0,0.0,0.0,0.0,0.0,0.0,0.0,0.0,0.0,0.0,0.0,0.0,0.0,0.0,0.0,0.0,0.0,0.0,0.0,0.0,0.0,0.0,0.0,0.0,0.0,0.0,0.0,0.0,0.0,0.0,0.0,0.0,0.0,0.0,0.0,0.0,0.0,0.0,0.0,0.0,0.0,0.0,0.0,0.0,0.0,0.0,0.0,0.0,0.0,0.0,0.0,0.0,0.0,0.0,0.0,0.5547,0.4728,0.3821,0.2893,0.2774,0.1899,0.0167,-0.0814,0.0,0.0,0.0,0.0,0.0,0.0,0.0,0.0,0.0,0.0,0.0,0.0,0.0,0.0,0.0,0.0,0.0,0.0,0.0,0.0,0.0,0.0,0.0,0.0,0.0,0.0,0.0,0.796,0.0,0.0,0.0,0.0,0.0,0.0,0.0,0.0,0.0,0.0,0.0,0.0,0.0,0.0,-0.5333,-0.783,-0.9315,-0.9915,0.0,0.0,-0.9159,-0.8624,-1.004,-1.1296,0.0,0.0,0.0,0.0,0.0,0.0,0.0,0.0,0.0,0.0,0.0,0.0,0.0,0.0,0.0,0.0,0.0,0.0,0.0,0.0,0.0,0.0,0.0,0.0,0.0,0.0,0.0,0.0,0.0,0.0,0.0,0.0,0.0,0.0,0.0,0.0,0.0,0.0,0.0,0.0,0.0,0.0,0.0,0.0,0.0,0.0,0.0,0.0,0.0,0.0,0.0,0.0,0.0,0.0,0.6112,0.5743,0.4804,0.3875,0.3011,0.2729,0.1836,0.0251,-0.048,-0.1316,0.0,0.0,0.0,0.0,0.0,0.0,0.0,0.0,0.0,0.0,0.0,0.0,0.0,0.0,0.0,0.0,0.0,0.0,0.0,0.0,0.0,0.0,0.0,0.0,0.0,0.0,0.0,0.0,0.0,0.0,0.0,0.0,0.0,0.0,0.0,0.0,0.0,0.0,0.0,0.0,0.0,-0.5162,-0.7968,-0.962,-1.0265,0.0,-1.0159,-1.0374,-0.9335,-1.0827,-1.2001,-1.1672,0.0,0.0,0.0,0.0,0.0,0.0,0.0,0.0,0.0,0.0,0.0,0.0,0.0,0.0,0.0,0.0,0.0,0.0,0.0,0.0,0.0,0.0,0.0,0.0,0.0,0.0,0.0,0.0,0.0,0.0,0.0,0.0,0.0,0.0,0.0,0.0,0.0,0.0,0.0,0.0,0.0,0.0,0.0,0.0,0.0,0.0,0.0,0.0,0.0,0.0,0.0,0.0,0.0,0.6103,0.548,0.4719,0.3814,0.2854,0.2617,0.1759,0.0126,-0.07,-0.1445,0.0,0.0,0.0,0.0,0.0,0.0,0.0,0.0,0.0,0.0,0.0,0.0,0.0,0.0,0.0,0.0,0.0,0.0,0.0,0.0,0.0,0.0,0.0,0.0,0.0,0.0,0.0,0.0,0.6837,0.6442,0.6202,0.0,0.0,0.0,0.0,0.0,0.0,0.0,0.0,0.0,0.0,-0.5052,-0.8326,-1.0189,0.0,0.0,-1.0603,-1.0743,-1.0146,-1.1278,-1.2233,-1.2311,-1.194,0.0,0.0,0.0,0.0,0.0,0.0,0.0,0.0,0.0,0.0,0.0,0.0,0.0,0.0,0.0,0.0,0.0,0.0,0.0,0.0,0.0,0.0,0.0,0.0,0.0,0.0,0.0,0.0,0.0,0.0,0.0,0.0,0.0,0.0,0.0,0.0,0.0,0.0,0.0,0.0,0.0,0.0,0.0,0.0,0.0,0.0,0.0,0.0,0.0,0.0,0.0,0.0,0.6149,0.526,0.453,0.3656,0.2593,0.2517,0.1687,0.0165,-0.0633,-0.1345,0.0,0.0,0.0,0.0,0.0,0.0,0.0,0.0,0.0,0.0,0.0,0.0,0.0,0.0,0.0,0.0,0.0,0.0,0.0,0.0,0.0,0.0,0.0,0.0,0.0,0.0,0.0,0.0,0.7006,0.6721,0.6277,0.0,0.0,0.0,0.0,0.0,0.0,0.0,0.0,0.0,0.0,-0.5308,-0.8354,-1.0165,-1.0974,-1.0515,-1.0829,-1.1019,-1.084,-1.1689,-1.2411,-1.2548,0.0,0.0,0.0,0.0,0.0,0.0,0.0,0.0,0.0,0.0,0.0,0.0,0.0,0.0,0.0,0.0,0.0,0.0,0.0,0.0,0.0,0.0,0.0,0.0,0.0,0.0,0.0,0.317,0.0,0.0,0.3214,0.0,0.0,0.0,0.0,0.0,0.0,0.0,0.0,0.0,0.0,0.0,0.0,0.0,0.0,0.0,0.0,0.0,0.0,0.0,0.0,0.0,0.0,0.624,0.5125,0.432,0.3394,0.237,0.2277,0.1673,0.0435,-0.0214,-0.0841,-0.15,0.0,0.0,0.0,0.0,0.0,0.0,0.0,0.0,0.0,0.0,0.0,0.0,0.0,0.0,0.0,0.0,0.0,0.0,0.0,0.0,0.0,0.0,0.0,0.0,0.0,0.0,0.8429,0.7537,0.6787,0.0,0.0,0.0,0.0,0.0,0.0,0.0,0.0,0.0,-0.1813,-0.3966,-0.5982,-0.7997,-0.9257,-1.0021,-1.0079,-1.0802,-1.1282,-1.1271,-1.2126,-1.2627,0.0,0.0,0.0,0.0,0.0,0.0,0.0,0.0,0.0,0.0,0.0,0.0,0.0,0.0,0.0,0.0,0.0,0.0,0.0,0.0,0.0,0.0,0.0,0.0,0.0,0.0,0.0,0.2824,0.2492,0.0,0.0,0.0,0.0,0.0,0.0,0.0,0.0,0.0,0.0,0.0,0.3821,0.372,0.0,0.0,0.0,0.0,0.0,0.0,0.0,0.0,0.0,0.0,0.0,0.0,0.6522,0.5295,0.4484,0.3573,0.247,0.2267,0.1675,0.0671,-0.0086,-0.081,-0.1456,0.0,0.0,0.0,0.0,0.0,0.0,0.0,0.0,0.0,0.0,0.0,0.0,0.0,0.0,0.0,0.0,0.0,0.0,0.0,0.0,0.0,0.0,0.0,0.0,0.0,1.0379,0.0,0.0,0.0,0.0,0.0,0.0,0.0,0.0,0.0,0.0,0.2344,0.0599,-0.176,-0.2971,-0.455,-0.6949,-0.8683,-0.9753,0.0,0.0,0.0,0.0,0.0,0.0,0.0,0.0,0.0,0.0,0.0,0.0,0.0,-0.9156,-0.9076,-0.85,-0.8626,-0.8791,-0.8643,0.0,0.0,0.0,0.0,0.0,0.0,0.0,0.0,0.0,0.0,0.0,0.0,0.0,0.0,0.2476,0.2002,0.1998,0.0,0.0,0.0,0.0,0.0,0.0,0.0,0.0,0.4038,0.3937,0.3814,0.3695,0.3612,0.3612,0.3917,0.4224,0.0,0.0,0.0,0.0,0.0,0.0,0.0,0.0,0.6696,0.5457,0.4621,0.3649,0.247,0.2223,0.1613,0.0671,-0.045,-0.1261,-0.1717,-0.1788,-0.1791,0.0,0.0,0.0,0.0,0.0,0.0,0.0,0.0,0.0,0.0,0.0,0.0,0.0,0.0,0.0,0.0,0.0,0.0,0.0,0.0,0.0,0.0,0.0,1.0224,0.0,0.0,0.0,0.0,0.0,0.0,0.0,0.0,0.0,0.2934,0.1831,0.0287,-0.1684,-0.2836,-0.4303,-0.6642,0.0,0.0,0.0,0.0,0.0,0.0,0.0,-1.2341,-1.1811,-1.1356,-1.0905,-1.0351,-1.0297,-1.008,-0.947,0.0,0.0,-0.8781,-0.8947,-0.912,-0.9041,-0.911,-0.9187,-0.9122,-0.8865,-0.8516,0.0,0.0,0.0,0.0,0.2898,0.0,0.0,0.0,0.2796,0.222,0.0,0.147,0.0,0.0,0.0,0.0,0.3744,0.414,0.0,0.0,0.3574,0.3549,0.3406,0.3528,0.3398,0.3078,0.3737,0.3829,0.3527,0.4487,0.0,0.0,0.0,0.0,0.0,0.0,0.6844,0.5547,0.4648,0.3547,0.2332,0.2136,0.1527,0.0318,-0.1202,-0.2047,-0.218,-0.2438,-0.2429,-0.2021,-0.1515,0.0,0.0,0.0,0.0,0.0,0.0,0.0,0.0,0.0,0.0,0.0,0.0,0.0,0.0,0.0,0.0,0.0,0.0,0.0,0.0,1.0662,0.0,0.0,0.0,0.0,0.0,0.0,0.0,0.0,0.0,0.2824,0.2823,0.1293,-0.0323,-0.175,0.0,0.0,0.0,0.0,-0.8594,-0.9922,-1.0321,-1.0761,-1.1653,-1.2305,-1.2567,-1.2184,0.0,0.0,-1.0215,-1.0836,-1.0937,-0.9449,-0.9598,-0.9692,-0.9212,-0.9314,-0.9434,-0.9133,-0.9571,-0.9953,-0.9896,-0.9589,-0.941,-0.3385,0.0,0.0,0.0,0.0,0.2813,0.2986,0.2944,0.2525,0.2052,0.1581,0.1283,0.0,0.0,0.0,0.0,0.0,0.0,0.4154,0.3707,0.3999,0.3727,0.3092,0.3437,0.3303,0.2818,0.3258,0.3476,0.3565,0.4184,0.4961,0.5867,0.0,0.0,0.0,0.0,0.6028,0.4992,0.4161,0.324,0.2186,0.2045,0.134,0.013,-0.1598,-0.2338,-0.1992,-0.2569,-0.2781,-0.2587,-0.2117,0.0,0.0,0.0,0.0,0.0,0.0,0.0,0.0,0.0,0.0,0.0,0.0,0.0,0.0,0.0,0.0,0.0,0.0,0.0,1.1506,1.093,0.9537,0.0,0.0,0.0,0.0,0.0,0.0,0.0,0.0,0.0,0.1844,0.1012,-0.0303,0.0,0.0,-0.5234,-0.6295,-0.8365,-0.9858,-1.0069,-1.0885,0.0,-1.2018,-1.2294,-1.2506,-1.2533,-1.2167,-1.1726,-1.1234,-1.165,-1.1787,-1.0723,-1.0826,-1.0977,-1.0577,-1.0043,-0.9762,-0.9802,-1.0026,-1.0181,-1.008,-1.0082,-1.0083,-0.43,-0.2394,-0.0906,0.0564,0.1914,0.2478,0.2713,0.2671,0.2285,0.1809,0.1247,0.1142,0.1605,0.2566,0.352,0.0,0.0,0.0,0.4097,0.3686,0.3936,0.3623,0.3031,0.3237,0.3034,0.2504,0.3126,0.3344,0.3164,0.4308,0.5009,0.5439,0.0,0.6944,0.6707,0.646,0.5927,0.5007,0.4164,0.3266,0.2442,0.1667,0.0689,-0.0492,-0.1836,-0.2494,-0.2332,-0.2814,-0.3107,-0.3117,-0.2727,-0.241,0.0,0.0,0.0,0.0,0.0,0.0,0.0,0.0,0.0,0.0,0.0,0.6357,0.6859,0.0,0.0,0.0,0.9994,1.0332,0.8105,0.8295,0.0,0.0,0.0,0.0,0.0,0.0,0.0,0.1649,0.1655,0.1506,0.1159,0.0483,-0.0756,-0.2893,-0.4252,-0.5497,-0.6668,0.0,-0.9967,-1.0331,-1.1232,-1.2016,-1.2424,-1.2635,-1.2769,-1.2754,-1.2829,-1.2683,-1.2308,-1.2609,-1.261,-1.1923,-1.1816,-1.1866,-1.1504,-1.1136,-1.0903,-1.0871,-1.1085,-1.1166,-1.0944,-1.0945,-1.1022,-0.4666,-0.3462,-0.1387,0.0268,0.1606,0.2462,0.2779,0.2642,0.207,0.1486,0.1032,0.1126,0.16,0.2375,0.3738,0.0,0.388,0.402,0.385,0.3503,0.3557,0.3373,0.3037,0.3023,0.2635,0.2101,0.312,0.3255,0.2682,0.4578,0.5356,0.4958,0.5954,0.6591,0.6821,0.6595,0.6134,0.5408,0.4278,0.3408,0.2768,0.1048,-0.0314,-0.126,-0.2019,-0.2511,-0.2841,-0.3096,-0.3317,-0.3482,-0.3263,-0.3048,-0.2826,0.0,0.0,0.0,0.0,0.0,0.0,0.0,0.0,0.0,0.0,0.0,0.0,0.0,0.0,0.789,0.8608,0.0,0.3459,0.3988,0.0,0.0,0.0,0.0521,0.1219,0.135,0.15,0.1923,0.0,0.0,0.0674,-0.0268,-0.1647,-0.3803,-0.4787,-0.5998,-0.7811,-0.8561,-0.939,-1.0748,-1.1509,-1.2204,-1.2821,-1.3202,-1.3299,-1.3065,-1.3579,-1.3778,-1.3337,-1.3583,-1.3494,-1.2812,-1.2649,-1.2584,-1.2294,-1.2542,-1.2619,-1.2317,-1.2359,-1.2457,-1.2107,-1.1997,-1.1947,-0.498,-0.3652,-0.1701,-0.0188,0.0981,0.1744,0.2239,0.2476,0.2011,0.1836,0.1834,0.2014,0.2451,0.3133,0.3929,0.4073,0.3744,0.3755,0.3602,0.3437,0.3334,0.3067,0.2646,0.2716,0.2415,0.1837,0.2549,0.2904,0.286,0.4085,0.4864,0.5158,0.5941,0.6288,0.6187,0.5873,0.5349,0.4601,0.3632,0.2695,0.1755,0.0382,-0.0637,-0.1218,-0.1835,-0.2222,-0.2342,-0.2597,-0.2832,-0.2904,-0.3064,-0.2923,-0.2389,-0.178,0.0,0.0,0.0,0.0,0.0,0.0,0.0,0.0,0.0,0.9956,0.9083,0.0,1.17,0.0,0.9795,0.7503,0.1766,0.2717,0.0,0.0,-0.0279,-0.0126,0.0308,0.075,0.0987,0.0889,0.0777,0.0498,-0.014,-0.1363,-0.287,-0.4582,-0.5325,-0.6331,-0.8105,-0.9244,-1.0214,-1.1145,-1.2308,-1.3085,-1.3197,-1.3706,-1.4067,-1.3968,-1.4324,-1.4481,-1.4101,-1.4584,-1.4831,-1.408,-1.3885,-1.398,-1.4121,-1.3733,-1.3584,-1.3956,-1.3049,-1.2032,-1.2212,-1.2314,-1.2343,-0.4963,-0.3626,-0.2101,-0.0822,0.0247,0.1437,0.2221,0.2562,0.2082,0.2045,0.2301,0.2695,0.3077,0.3435,0.3978,0.4001,0.368,0.3608,0.3544,0.3494,0.3301,0.3017,0.2736,0.2597,0.2209,0.1657,0.217,0.2506,0.2776,0.376,0.4486,0.5005,0.5846,0.6167,0.5832,0.5479,0.5056,0.4492,0.3094,0.1925,0.0958,0.0201,-0.0435,-0.0856,-0.1414,-0.1806,-0.2113,-0.233,-0.2539,-0.2676,-0.2738,-0.2576,-0.2062,-0.1179,0.0169,0.0,0.0,0.0,0.0,0.0,0.0,0.0,0.0,0.0,0.0,0.0,1.2185,1.0493,0.7951,0.4691,0.0481,0.0767,0.048,-0.1188,-0.0819,-0.0264,0.0229,0.0644,0.0841,0.0729,0.0191,-0.038,-0.1019,-0.2429,-0.4148,-0.6137,-0.6793,-0.7575,-0.8993,-1.016,-1.0951,-1.1399,-1.286,-1.4071,-1.4224,-1.4529,-1.4692,-1.4577,-1.486,-1.5112,-1.5163,-1.55,-1.5595,-1.5177,-1.4999,-1.485,-1.465,-1.437,-1.4298,-1.4316,-1.3501,-1.273,-1.2955,-1.3072,-1.3016,-0.4734,-0.3503,-0.243,-0.141,-0.0392,0.1318,0.2258,0.266,0.2203,0.2201,0.2554,0.3235,0.3501,0.3452,0.3962,0.3955,0.3605,0.3621,0.3624,0.3574,0.3271,0.3068,0.2911,0.243,0.2012,0.1678,0.1844,0.2174,0.2544,0.3519,0.4227,0.4753,0.5747,0.6039,0.5605,0.5263,0.4885,0.4395,0.2734,0.1379,0.0483,0.0267,0.0,-0.0339,-0.0813,-0.136,-0.1909,-0.2168,-0.2348,-0.2567,-0.2431,-0.2209,-0.1817,-0.0461,0.15,0.0,0.7395,0.0,0.0,0.0,0.0,0.0,0.0,0.0,0.0,1.2224,1.2756,1.0143,0.5635,0.1994,-0.0175,-0.1117,-0.1665,-0.1889,-0.0945,-0.0046,0.0572,0.0767,0.0826,0.0704,-0.0302,-0.1255,-0.1965,-0.3453,-0.538,-0.7557,-0.8471,-0.9183,-1.0323,-1.1163,-1.1687,-1.1674,-1.3354,-1.484,-1.5546,-1.5404,-1.5006,-1.4934,-1.5059,-1.5517,-1.5791,-1.5833,-1.5808,-1.5802,-1.5563,-1.5284,-1.4551,-1.4677,-1.4698,-1.4486,-1.3905,-1.3554,-1.3831,-1.3747,-1.3705,-0.4458,-0.3563,-0.2357,-0.1132,0.0,0.0747,0.1465,0.2038,0.1873,0.2148,0.2682,0.3405,0.3651,0.3604,0.3949,0.3956,0.359,0.3664,0.3574,0.3421,0.3071,0.272,0.2465,0.2002,0.1698,0.1594,0.1633,0.2009,0.2754,0.3464,0.4196,0.4872,0.5571,0.5792,0.5555,0.0,0.0,0.0,0.235,0.1619,0.0833,0.0595,0.0529,0.0625,-0.0148,0.0,-0.1575,-0.1966,-0.225,-0.2505,-0.2621,0.0,0.0,0.0,0.0,0.0,0.0,0.0,0.0,0.0,0.0,0.0,1.3168,0.9946,0.8477,1.1538,1.2022,0.824,0.8193,0.6105,0.0342,-0.0965,-0.1504,-0.1548,-0.0516,0.0191,0.0298,0.0599,0.0455,-0.0679,-0.1636,-0.2486,-0.312,-0.4673,-0.6368,-0.7944,-0.9201,-1.0485,-1.1831,-1.2165,-1.2518,-1.3181,-1.4253,-1.5471,-1.6927,-1.5942,-1.5067,-1.5176,-1.4829,-1.4644,-1.46,-1.457,-1.4773,-1.5224,-1.4871,-1.4812,-1.5554,-1.5055,-1.4424,-1.4548,-1.4206,-1.3962,-1.4233,-1.3732,-1.3294,-0.4674,-0.353,-0.27,-0.1772,0.0,-0.0061,0.0651,0.1436,0.164,0.2074,0.273,0.3227,0.3548,0.3714,0.3752,0.3619,0.3365,0.3371,0.329,0.3131,0.292,0.2709,0.2442,0.1882,0.1608,0.1555,0.1498,0.1881,0.2616,0.312,0.3801,0.4561,0.5147,0.534,0.5011,0.4111,0.3157,0.2347,0.2166,0.1849,0.1346,0.0772,0.0488,0.0479,0.0,0.0,0.0,0.0,0.0,0.0,0.0,0.0,0.0,-0.0797,0.0,0.6962,0.8491,1.1338,1.5868,1.4523,1.4317,1.6365,1.3002,1.1059,1.1719,1.192,1.1466,1.0151,0.8049,0.5066,0.146,-0.0049,-0.0684,-0.0537,0.0195,0.0497,0.0,0.0052,-0.0367,-0.1621,-0.273,-0.3514,-0.4154,-0.5935,-0.7544,-0.8781,-1.022,-1.1612,-1.279,-1.3223,-1.3693,-1.49,-1.4473,-1.4898,-1.6574,-1.6016,-1.4974,-1.4906,-1.4638,-1.4428,-1.4313,-1.4407,-1.4682,-1.5103,-1.4996,-1.5019,-1.5274,-1.4748,-1.4178,-1.4371,-1.393,-1.3678,-1.414,-1.3789,-1.3351,-0.4878,-0.3553,-0.3157,-0.2449,-0.1418,-0.0754,0.0061,0.094,0.1357,0.0,0.0,0.2839,0.3176,0.3637,0.3406,0.3197,0.3062,0.3092,0.3019,0.2852,0.285,0.2685,0.235,0.1854,0.1615,0.1505,0.14,0.1686,0.2415,0.2733,0.3303,0.4078,0.4682,0.4739,0.4239,0.3239,0.2536,0.2152,0.2098,0.1905,0.1572,0.101,0.0497,0.016,-0.0053,-0.0262,-0.0459,-0.1474,-0.2288,-0.2743,-0.2842,-0.2813,-0.255,-0.1575,0.1521,0.6931,0.8294,1.1337,1.7041,1.5402,1.423,1.4534,1.3199,1.3344,1.5792,1.2929,1.1549,1.284,0.761,0.3716,0.228,0.1078,0.0304,0.0304,0.0762,0.062,-0.0374,-0.0644,-0.1192,-0.2556,-0.3721,-0.4659,-0.5562,-0.7217,-0.8783,-0.9923,-1.1215,-1.2603,-1.372,-1.4297,-1.5038,-1.6221,-1.5235,-1.4612,-1.6089,-1.5842,-1.4997,-1.4514,-1.4337,-1.4295,-1.4293,-1.4364,-1.464,-1.498,-1.5188,-1.5034,-1.4751,-1.4323,-1.402,-1.4093,-1.3478,-1.3035,-1.3658,-1.3705,-1.3515,-0.4619,-0.3758,-0.3224,-0.2314,-0.1159,-0.0769,-0.0,0.088,0.127,0.1745,0.223,0.2247,0.2517,0.3044,0.285,0.2857,0.2941,0.3067,0.2965,0.2747,0.2633,0.2298,0.1908,0.1509,0.1449,0.1556,0.1237,0.1556,0.2362,0.2422,0.2855,0.3649,0.4125,0.4079,0.3577,0.313,0.2621,0.2223,0.1958,0.1459,0.0617,0.1459,0.1546,0.0587,-0.0266,-0.0744,-0.0687,-0.1427,-0.2165,-0.2897,-0.29,-0.2791,-0.2443,-0.0222,0.3132,0.7269,1.0157,1.3258,1.6584,1.4964,1.3804,1.4041,1.6152,1.7154,1.6111,1.475,1.3572,1.27,1.0131,0.6982,0.2791,0.171,0.1002,0.0053,0.0476,0.0482,-0.0717,-0.1106,-0.1934,-0.3721,-0.4878,-0.6023,-0.7267,-0.8652,-0.9873,-1.0771,-1.2022,-1.3264,-1.4584,-1.5458,-1.6062,-1.6776,-1.6177,-1.5942,-1.6443,-1.5898,-1.4937,-1.4292,-1.393,-1.3697,-1.346,-1.3294,-1.347,-1.4221,-1.4295,-1.4214,-1.4239,-1.415,-1.3773,-1.3344,-1.3084,-1.3084,-1.2987,-1.3064,-1.3283,-0.4752,-0.402,-0.3155,-0.238,-0.1609,-0.095,-0.0186,0.0542,0.0921,0.1461,0.1952,0.173,0.201,0.2623,0.242,0.2313,0.2293,0.2348,0.224,0.1962,0.2071,0.1961,0.1684,0.1346,0.129,0.1402,0.116,0.1436,0.2066,0.2148,0.2534,0.3183,0.358,0.358,0.3244,0.2796,0.235,0.202,0.1853,0.1346,0.0449,0.0673,0.0772,0.0693,-0.0108,-0.0597,-0.0693,-0.13,-0.2022,-0.2839,-0.3162,-0.3238,-0.2967,-0.1635,0.1237,0.5757,0.7114,0.9856,1.4582,1.4036,1.384,1.4546,1.5213,1.5905,1.6441,1.5788,1.4591,1.2712,1.0059,0.6848,0.309,0.1892,0.093,0.0055,0.0109,-0.033,-0.1391,-0.1952,-0.2837,-0.4556,-0.5737,-0.6965,-0.8486,-0.9742,-1.0858,-1.1808,-1.3036,-1.4135,-1.4788,-1.5405,-1.6016,-1.6548,-1.5631,-1.5185,-1.587,-1.5404,-1.4744,-1.4289,-1.4124,-1.3864,-1.3518,-1.3299,-1.3572,-1.3957,-1.4083,-1.4156,-1.4201,-1.3894,-1.3621,-1.3536,-1.3007,-1.2852,-1.2987,-1.2905,-1.2725,-0.4948,-0.4217,-0.3288,-0.2589,-0.208,-0.1208,-0.0502,0.0124,0.0603,0.111,0.1475,0.1235,0.1574,0.2153,0.1911,0.1798,0.1754,0.1699,0.1587,0.1362,0.1587,0.1644,0.1475,0.124,0.1183,0.1245,0.1127,0.1289,0.168,0.1846,0.2181,0.2631,0.2988,0.3102,0.2852,0.2424,0.2032,0.1797,0.1797,0.1347,0.0617,0.0168,0.0221,0.0643,0.022,-0.0166,-0.0374,-0.099,-0.1677,-0.2282,-0.2985,-0.3321,-0.3197,-0.2838,-0.0594,0.3559,0.4239,0.6705,1.1966,1.2894,1.3513,1.4472,1.3494,1.3769,1.5749,1.6074,1.4958,1.2406,0.9018,0.5786,0.3124,0.156,0.0448,-0.028,-0.0559,-0.117,-0.2341,-0.2901,-0.3843,-0.534,-0.6597,-0.7823,-0.9323,-1.0662,-1.1878,-1.3077,-1.4039,-1.4522,-1.4634,-1.5112,-1.5542,-1.5699,-1.4889,-1.4521,-1.5152,-1.5068,-1.4711,-1.4485,-1.4522,-1.4367,-1.4027,-1.4013,-1.4124,-1.4127,-1.4247,-1.4215,-1.4071,-1.3705,-1.3467,-1.3392,-1.2958,-1.2774,-1.318,-1.2865,-1.2383,-0.5219,-0.4289,-0.3627,-0.282,-0.1941,-0.1735,-0.1182,-0.032,0.031,0.0603,0.0764,0.0852,0.1142,0.1458,0.1308,0.1311,0.1404,0.1466,0.1408,0.1349,0.1409,0.1349,0.1228,0.114,0.114,0.1165,0.1026,0.1068,0.1346,0.1401,0.1567,0.1909,0.2366,0.2425,0.2143,0.2078,0.2022,0.1798,0.1685,0.1459,0.1178,0.1066,0.0938,0.08,0.0606,0.0552,0.0533,-0.0385,-0.1008,-0.1113,-0.1889,-0.2371,-0.2444,-0.1912,-0.0483,0.1878,0.4004,0.698,1.0487,1.1613,1.2071,1.2428,1.2151,1.2518,1.3922,1.4943,1.4415,1.1374,0.8096,0.5101,0.1756,0.0611,-0.0501,-0.1952,-0.184,-0.2006,-0.3234,-0.3846,-0.4721,-0.6293,-0.7549,-0.886,-1.0212,-1.1652,-1.3044,-1.4305,-1.4399,-1.4563,-1.5035,-1.4912,-1.4644,-1.4874,-1.462,-1.4833,-1.5237,-1.5383,-1.5093,-1.49,-1.494,-1.4778,-1.4468,-1.4319,-1.4369,-1.4304,-1.4286,-1.4118,-1.3742,-1.3372,-1.318,-1.2949,-1.2764,-1.2774,-1.292,-1.2725,-1.2522,-0.5286,-0.455,-0.3692,-0.2893,-0.2221,-0.2356,-0.2072,-0.1384,-0.0064,0.0508,0.0635,0.0851,0.0997,0.1088,0.1015,0.1028,0.1119,0.112,0.112,0.1122,0.1141,0.12,0.118,0.107,0.1128,0.1237,0.1046,0.0972,0.1072,0.1258,0.1442,0.1619,0.1964,0.2042,0.1958,0.1946,0.1694,0.1272,0.1134,0.0897,0.0561,0.0729,0.082,0.0783,0.0327,0.0164,0.047,-0.0054,-0.0505,-0.0726,-0.1337,-0.172,-0.1871,-0.1335,-0.0286,0.1369,0.2939,0.4989,0.7635,0.8352,0.8984,0.9691,0.9915,1.0378,1.1322,1.1146,0.9655,0.7166,0.7282,0.5663,0.0207,-0.1274,-0.2112,-0.3118,-0.334,-0.3564,-0.4174,-0.4512,-0.5419,-0.7191,-0.8353,-0.9798,-1.155,-1.3086,-1.4174,-1.4924,-1.4977,-1.5154,-1.5105,-1.4889,-1.4631,-1.4289,-1.4211,-1.4488,-1.494,-1.5234,-1.5241,-1.5266,-1.5282,-1.5151,-1.4875,-1.4485,-1.4405,-1.4398,-1.4082,-1.3847,-1.361,-1.3228,-1.2939,-1.2706,-1.2745,-1.2852,-1.2618,-1.2329,-1.2089,-0.5312,-0.4553,-0.3625,-0.296,-0.2624,-0.2896,-0.2827,-0.2278,-0.0782,-0.0,0.0132,0.0695,0.0964,0.0926,0.0922,0.0939,0.0904,0.0899,0.0955,0.0956,0.0971,0.1029,0.1138,0.1028,0.103,0.1016,0.0828,0.0814,0.0913,0.1164,0.1302,0.1374,0.1599,0.1742,0.1723,0.1625,0.1425,0.0999,0.0685,0.0336,0.0,0.0112,0.0329,0.0577,0.0055,-0.0164,0.0,-0.0055,-0.0336,-0.0784,-0.114,-0.1333,-0.1438,-0.1081,-0.0352,0.0703,0.1646,0.2977,0.4813,0.5292,0.6274,0.7717,0.7919,0.8239,0.8943,0.8366,0.6296,0.3607,0.5193,0.3605,-0.1784,-0.3372,-0.3889,-0.445,-0.4812,-0.5056,-0.5066,-0.5512,-0.6585,-0.8037,-0.9372,-1.0885,-1.2874,-1.4119,-1.476,-1.5268,-1.5626,-1.5733,-1.5086,-1.5056,-1.4891,-1.4222,-1.4127,-1.4255,-1.4708,-1.4983,-1.53,-1.5525,-1.5567,-1.5344,-1.5108,-1.4697,-1.428,-1.4176,-1.3705,-1.3467,-1.3372,-1.3084,-1.2754,-1.2842,-1.2793,-1.2589,-1.2215,-1.1868,-1.1625,-0.5271,-0.4298,-0.3493,-0.3165,-0.3161,-0.3161,-0.3159,-0.3019,-0.1958,-0.1356,-0.084,0.0377,0.0988,0.0923,0.0923,0.1001,0.0957,0.0998,0.0986,0.1046,0.1023,0.1022,0.0984,0.102,0.0841,0.0676,0.0481,0.0592,0.0883,0.0945,0.1077,0.111,0.127,0.1335,0.1308,0.1174,0.1155,0.1068,0.0402,-0.0112,-0.0337,-0.0674,-0.0449,0.0167,0.0112,-0.0279,-0.0667,-0.0559,-0.0673,-0.1234,-0.1305,-0.1334,-0.1383,-0.1187,-0.081,-0.0355,0.0415,0.142,0.2588,0.3248,0.4532,0.6763,0.6465,0.6493,0.7949,0.7773,0.5977,0.2471,0.1277,-0.1095,-0.4813,-0.5492,-0.5584,-0.5936,-0.6169,-0.6234,-0.6037,-0.7125,-0.8178,-0.9097,-1.0631,-1.2431,-1.4251,-1.4286,-1.4874,-1.5633,-1.5986,-1.585,-1.5665,-1.5299,-1.4963,-1.4853,-1.4579,-1.4384,-1.4937,-1.5006,-1.5277,-1.5412,-1.5334,-1.5165,-1.4971,-1.4697,-1.428,-1.3952,-1.3621,-1.3372,-1.3218,-1.2939,-1.2618,-1.2471,-1.2264,-1.2067,-1.1819,-1.1519,-1.1301,-0.5403,-0.4164,-0.3544,-0.3316,-0.3307,-0.3252,-0.3226,-0.3157,-0.2463,-0.1589,-0.0793,-0.0131,0.0131,0.0131,0.0458,0.0781,0.0969,0.1022,0.089,0.07,0.0705,0.0641,0.0636,0.0896,0.1023,0.0825,0.0189,0.0186,0.0793,0.0681,0.0754,0.102,0.0851,0.0726,0.0718,0.0512,0.0315,0.0187,-0.0424,-0.0886,-0.116,-0.1561,-0.1548,-0.118,-0.0561,-0.0444,-0.0869,-0.0776,-0.101,-0.1572,-0.1607,-0.176,-0.2033,-0.174,-0.1349,-0.0972,-0.0654,-0.0055,0.0928,0.1595,0.2439,0.3834,0.5023,0.6109,0.7037,0.5934,0.3845,0.1693,-0.1709,-0.4804,-0.6919,-0.7677,-0.7681,-0.7926,-0.7988,-0.7948,-0.8023,-0.8375,-0.902,-1.0436,-1.2078,-1.3591,-1.4533,-1.4906,-1.5319,-1.6133,-1.6187,-1.6149,-1.6155,-1.5526,-1.5071,-1.5515,-1.5268,-1.5097,-1.6084,-1.5348,-1.5006,-1.4949,-1.4858,-1.4743,-1.4558,-1.4129,-1.3705,-1.3573,-1.3334,-1.3045,-1.2842,-1.2647,-1.2323,-1.1877,-1.1719,-1.161,-1.1377,-1.1091,-1.0947,-0.5057,-0.3946,-0.353,-0.3346,-0.3313,-0.3322,-0.3295,-0.3232,-0.292,-0.2101,-0.1078,-0.0747,-0.0544,-0.0337,-0.0,0.0334,0.072,0.0909,0.0775,0.0388,0.0326,0.0326,0.0325,0.0593,0.0725,0.0581,-0.0256,-0.0316,0.0189,0.0128,0.0261,0.0531,0.0269,0.0135,0.0068,-0.0263,-0.058,-0.0962,-0.1314,-0.1707,-0.2037,-0.2248,-0.2332,-0.217,-0.1466,-0.1109,-0.1193,-0.1163,-0.1346,-0.185,-0.2015,-0.2293,-0.2689,-0.2573,-0.2291,-0.1955,-0.1902,-0.1566,-0.0836,-0.0445,-0.0222,0.0111,0.2307,0.4606,0.6788,0.3878,0.1979,0.0894,-0.3176,-0.7247,-0.8654,-0.9356,-0.9415,-0.9183,-0.9028,-0.9078,-0.9259,-0.9459,-1.0538,-1.2166,-1.3212,-1.4168,-1.5059,-1.5429,-1.5857,-1.6437,-1.6492,-1.6656,-1.6367,-1.5997,-1.5578,-1.622,-1.5842,-1.5859,-1.6266,-1.5796,-1.5378,-1.5287,-1.4474,-1.4312,-1.4125,-1.3631,-1.3276,-1.3132,-1.2949,-1.2657,-1.2461,-1.2264,-1.1868,-1.1368,-1.125,-1.1183,-1.0922,-1.0695,-1.0442,-0.4242,-0.3538,-0.3438,-0.3407,-0.3347,-0.3455,-0.3504,-0.3522,-0.3382,-0.2744,-0.1828,-0.1311,-0.0894,-0.0542,-0.0473,-0.0269,0.0067,0.059,0.0519,0.0,-0.0064,-0.0128,-0.013,-0.0065,0.0,-0.0,-0.0755,-0.1073,-0.0905,-0.0584,-0.0465,-0.0551,-0.0475,-0.0543,-0.0698,-0.0996,-0.1486,-0.1996,-0.2208,-0.2477,-0.2644,-0.2639,-0.2655,-0.2634,-0.2453,-0.2252,-0.1912,-0.1741,-0.1852,-0.2242,-0.2577,-0.291,-0.3357,-0.3585,-0.3638,-0.3302,-0.3244,-0.3019,-0.2736,-0.2794,-0.2959,-0.2781,-0.1324,0.241,0.5795,0.2469,0.0437,0.2047,-0.3151,-0.8312,-0.9274,-1.0315,-1.0515,-0.9462,-0.9382,-0.9604,-0.9892,-1.0781,-1.2235,-1.3879,-1.4213,-1.4492,-1.5449,-1.5921,-1.6095,-1.6435,-1.683,-1.7037,-1.6494,-1.6373,-1.6658,-1.6755,-1.6488,-1.6405,-1.6328,-1.6173,-1.5953,-1.5654,-1.4516,-1.3841,-1.3793,-1.3446,-1.29,-1.2696,-1.251,-1.2224,-1.1868,-1.1669,-1.1418,-1.1015,-1.0939,-1.0704,-1.0308,-1.0038,-0.9826,-0.4944,-0.4082,-0.3867,-0.3825,-0.3923,-0.3792,-0.3799,-0.3726,-0.3425,-0.3147,-0.2751,-0.1983,-0.1645,-0.1446,-0.1089,-0.0876,-0.074,-0.0534,-0.0399,-0.0468,-0.0752,-0.1031,-0.123,-0.1161,-0.0811,-0.0532,-0.1185,-0.1382,-0.1128,-0.0931,-0.1009,-0.1221,-0.1149,-0.1351,-0.1637,-0.1808,-0.2059,-0.2389,-0.2765,-0.2896,-0.2789,-0.2995,-0.3129,-0.3121,-0.3027,-0.3152,-0.3626,-0.2924,-0.2689,-0.3033,-0.3421,-0.3826,-0.411,-0.4223,-0.4116,-0.3811,-0.3297,-0.3183,-0.3405,-0.3186,-0.3016,-0.273,-0.1271,0.2385,0.6412,0.2263,0.0927,0.3687,-0.2337,-0.8039,-0.8938,-1.0014,-1.0514,-1.0443,-1.0756,-1.0906,-1.1148,-1.2126,-1.2992,-1.3649,-1.4455,-1.4989,-1.5313,-1.572,-1.6404,-1.6642,-1.6786,-1.6742,-1.7013,-1.6677,-1.6774,-1.7283,-1.7036,-1.6819,-1.6751,-1.6461,-1.5998,-1.5472,-1.4438,-1.375,-1.3591,-1.3214,-1.2664,-1.2255,-1.2026,-1.1778,-1.1427,-1.1175,-1.0922,-1.0616,-1.0446,-1.0084,-0.9614,-0.9401,-0.932,-0.536,-0.4399,-0.4109,-0.4136,-0.4235,-0.406,-0.4082,-0.4031,-0.3769,-0.3567,-0.3391,-0.2824,-0.2398,-0.2262,-0.18,-0.1573,-0.1639,-0.1572,-0.1437,-0.13,-0.1463,-0.1902,-0.2238,-0.2426,-0.1918,-0.1349,-0.1681,-0.1615,-0.1145,-0.1146,-0.1354,-0.1567,-0.1623,-0.1761,-0.2112,-0.2232,-0.2356,-0.2491,-0.2956,-0.3107,-0.314,-0.3528,-0.3845,-0.3835,-0.3779,-0.4207,-0.5005,-0.4673,-0.4358,-0.4262,-0.4481,-0.4803,-0.4964,-0.4855,-0.4676,-0.4333,-0.3796,-0.3572,-0.3962,-0.3574,-0.3511,-0.3503,-0.2516,0.0856,0.4343,0.0913,-0.0541,0.3472,-0.2914,-0.8656,-0.9039,-1.0108,-1.0825,-1.1004,-1.1148,-1.166,-1.2112,-1.3025,-1.3761,-1.413,-1.4656,-1.5128,-1.5604,-1.6222,-1.6765,-1.6961,-1.7048,-1.6894,-1.731,-1.7008,-1.7362,-1.7542,-1.7332,-1.7235,-1.7291,-1.6763,-1.6077,-1.526,-1.4324,-1.3867,-1.3607,-1.3033,-1.2429,-1.189,-1.1578,-1.1326,-1.1023,-1.0871,-1.0667,-1.036,-1.0035,-0.9724,-0.9409,-0.9193,-0.8999,-0.5478,-0.44,-0.4322,-0.4273,-0.4184,-0.4214,-0.4291,-0.4432,-0.4352,-0.4128,-0.379,-0.3465,-0.3097,-0.2749,-0.2395,-0.2301,-0.2518,-0.2234,-0.2318,-0.2448,-0.2433,-0.2564,-0.2884,-0.334,-0.3084,-0.2357,-0.2294,-0.1956,-0.1478,-0.1546,-0.1498,-0.1866,-0.2046,-0.204,-0.2199,-0.2313,-0.249,-0.2594,-0.3011,-0.3347,-0.3579,-0.4226,-0.4674,-0.4719,-0.49,-0.5396,-0.6079,-0.6684,-0.6551,-0.5601,-0.5578,-0.5692,-0.5777,-0.5455,-0.5224,-0.5123,-0.4477,-0.4301,-0.4467,-0.4294,-0.4467,-0.5432,-0.4551,-0.1676,0.3073,-0.0446,-0.2123,0.3723,-0.3399,-0.9182,-0.9247,-1.0397,-1.1078,-1.1092,-1.1073,-1.1494,-1.2541,-1.3268,-1.3821,-1.4529,-1.4749,-1.4994,-1.6093,-1.6804,-1.7003,-1.7157,-1.7517,-1.7474,-1.7319,-1.7276,-1.7577,-1.7544,-1.7258,-1.7082,-1.6883,-1.6553,-1.5884,-1.5263,-1.4359,-1.3846,-1.3474,-1.2821,-1.2226,-1.1687,-1.1268,-1.1006,-1.0718,-1.0624,-1.0411,-1.0095,-0.9813,-0.9497,-0.9211,-0.8954,-0.8718,-0.5604,-0.4658,-0.458,-0.464,-0.4754,-0.4643,-0.468,-0.4696,-0.4619,-0.4447,-0.423,-0.388,-0.3566,-0.3182,-0.2745,-0.2591,-0.2809,-0.2664,-0.287,-0.3308,-0.3319,-0.3222,-0.3405,-0.3869,-0.3836,-0.3191,-0.3215,-0.3082,-0.2684,-0.2616,-0.2762,-0.2986,-0.309,-0.3053,-0.2922,-0.3131,-0.3139,-0.2885,-0.3366,-0.3876,-0.4267,-0.4744,-0.5258,-0.5757,-0.6079,-0.6621,-0.7399,-0.8058,-0.779,-0.6648,-0.6391,-0.6305,-0.63,-0.5981,-0.5776,-0.5718,-0.4964,-0.4577,-0.4963,-0.5183,-0.5452,-0.5632,-0.5629,-0.2475,0.4298,0.0608,0.0479,0.306,-0.105,-0.6053,-0.8105,-0.9806,-1.0742,-1.1446,-1.1338,-1.1374,-1.2066,-1.2712,-1.3321,-1.3614,-1.4382,-1.5099,-1.5584,-1.6124,-1.6539,-1.6883,-1.7258,-1.7501,-1.7257,-1.7476,-1.771,-1.7159,-1.6874,-1.6589,-1.6367,-1.6048,-1.5631,-1.5197,-1.4477,-1.3684,-1.3247,-1.2643,-1.2083,-1.1604,-1.1291,-1.1009,-1.0688,-1.047,-1.0154,-0.988,-0.9592,-0.9275,-0.8822,-0.8533,-0.8435,-0.5938,-0.4935,-0.4932,-0.5012,-0.5002,-0.4887,-0.4863,-0.4879,-0.4784,-0.4688,-0.4569,-0.4355,-0.4096,-0.3891,-0.3491,-0.3401,-0.3539,-0.3361,-0.3566,-0.3977,-0.4131,-0.4008,-0.3896,-0.4218,-0.4116,-0.3648,-0.3811,-0.371,-0.3502,-0.342,-0.3487,-0.3703,-0.375,-0.3645,-0.3499,-0.3763,-0.3902,-0.3759,-0.4161,-0.4608,-0.4868,-0.5556,-0.5985,-0.6514,-0.7022,-0.7861,-0.8689,-0.9081,-0.8745,-0.7995,-0.7585,-0.737,-0.7223,-0.6755,-0.6511,-0.6592,-0.5609,-0.5258,-0.5879,-0.6165,-0.6216,-0.6217,-0.6276,-0.2245,0.2392,0.1291,0.0327,0.3168,-0.1034,-0.5366,-0.8449,-1.0157,-1.1055,-1.1688,-1.149,-1.149,-1.2042,-1.2458,-1.2887,-1.3373,-1.4094,-1.4932,-1.5235,-1.5778,-1.6249,-1.6695,-1.7236,-1.7258,-1.7158,-1.7477,-1.7533,-1.6961,-1.6456,-1.6221,-1.5792,-1.5476,-1.4974,-1.4557,-1.4145,-1.3424,-1.2989,-1.2496,-1.1961,-1.1519,-1.1317,-1.1003,-1.0581,-1.0213,-0.9991,-0.9673,-0.9361,-0.8935,-0.8514,-0.8321,-0.8178,-0.6507,-0.5416,-0.5401,-0.5251,-0.5098,-0.4909,-0.4917,-0.498,-0.4898,-0.482,-0.4878,-0.4763,-0.4632,-0.466,-0.4285,-0.4373,-0.4435,-0.4123,-0.4311,-0.4553,-0.4838,-0.4738,-0.4456,-0.4675,-0.4565,-0.4137,-0.4194,-0.4275,-0.4123,-0.3889,-0.4025,-0.4306,-0.4182,-0.409,-0.4188,-0.4359,-0.4492,-0.4614,-0.4979,-0.5325,-0.5665,-0.64,-0.6889,-0.7223,-0.8135,-0.8918,-0.96,-0.9856,-0.9633,-0.9204,-0.8935,-0.8551,-0.8348,-0.7699,-0.7469,-0.739,-0.6682,-0.6387,-0.7109,-0.7058,-0.7054,-0.7095,-0.6643,-0.2963,0.2184,0.1621,0.0875,0.3636,-0.1944,-0.5469,-0.9668,-1.108,-1.171,-1.1996,-1.156,-1.167,-1.2151,-1.2266,-1.2573,-1.3433,-1.3888,-1.4492,-1.5274,-1.5958,-1.6367,-1.6305,-1.6809,-1.6939,-1.6818,-1.6893,-1.6907,-1.6652,-1.6227,-1.58,-1.536,-1.4866,-1.4335,-1.3835,-1.3477,-1.298,-1.2794,-1.2293,-1.1814,-1.1428,-1.1345,-1.086,-1.0216,-0.9947,-0.9732,-0.9472,-0.9159,-0.8606,-0.8112,-0.815,-0.8129,-0.6979,-0.6175,-0.5908,-0.5614,-0.5445,-0.5422,-0.53,-0.5012,-0.4991,-0.4939,-0.4757,-0.4897,-0.4759,-0.453,-0.453,-0.4608,-0.4699,-0.4592,-0.4707,-0.5115,-0.5378,-0.5458,-0.531,-0.5372,-0.52,-0.5,-0.5142,-0.512,-0.502,-0.4891,-0.5027,-0.5103,-0.5097,-0.5142,-0.4851,-0.5055,-0.5134,-0.5055,-0.5301,-0.5825,-0.6479,-0.7066,-0.7717,-0.8306,-0.9151,-0.9728,-1.018,-1.0428,-1.0485,-1.0225,-0.9709,-0.9227,-0.8908,-0.8381,-0.8198,-0.8201,-0.7932,-0.7627,-0.7767,-0.8177,-0.8199,-0.7491,-0.7033,-0.4239,0.3716,0.4043,0.3612,0.4458,0.3124,-0.2153,-0.901,-1.1246,-1.195,-1.2228,-1.1988,-1.1677,-1.174,-1.1677,-1.1973,-1.2696,-1.3408,-1.4145,-1.5079,-1.5604,-1.593,-1.597,-1.6277,-1.6558,-1.6578,-1.651,-1.6439,-1.6374,-1.5632,-1.5177,-1.48,-1.4309,-1.3817,-1.3424,-1.305,-1.2622,-1.2381,-1.2439,-1.2035,-1.1703,-1.1416,-1.0825,-1.0098,-0.9688,-0.9524,-0.9263,-0.8969,-0.8573,-0.8249,-0.8168,-0.8014,-0.7458,-0.6674,-0.6359,-0.6061,-0.5874,-0.5817,-0.5786,-0.5553,-0.5553,-0.5363,-0.5169,-0.5223,-0.5043,-0.4754,-0.4889,-0.4924,-0.5063,-0.5092,-0.5143,-0.5405,-0.5588,-0.5752,-0.5794,-0.5813,-0.5757,-0.5461,-0.5545,-0.5564,-0.5433,-0.5428,-0.5362,-0.5428,-0.5578,-0.5589,-0.5459,-0.5729,-0.587,-0.5921,-0.6104,-0.6559,-0.7085,-0.7718,-0.8371,-0.9151,-0.9734,-1.0174,-1.0491,-1.0863,-1.0926,-1.0744,-1.0421,-1.0098,-0.9793,-0.9211,-0.9058,-0.9288,-0.8829,-0.8808,-0.8944,-0.9187,-0.8959,-0.7599,-0.7255,-0.1942,0.2765,0.4681,0.4195,0.4138,0.2123,-0.2503,-0.9642,-1.1742,-1.2451,-1.2474,-1.2297,-1.1996,-1.1747,-1.1498,-1.1608,-1.2389,-1.3226,-1.3983,-1.4666,-1.5323,-1.5743,-1.5988,-1.6556,-1.683,-1.6569,-1.645,-1.636,-1.6048,-1.5146,-1.4531,-1.4218,-1.3809,-1.3312,-1.302,-1.2893,-1.2381,-1.2019,-1.218,-1.2389,-1.1833,-1.1146,-1.0762,-1.015,-0.9744,-0.9327,-0.9119,-0.8864,-0.8551,-0.8328,-0.8055,-0.7907,-0.8011,-0.7161,-0.6891,-0.6648,-0.6349,-0.6331,-0.6318,-0.6163,-0.6163,-0.5931,-0.5709,-0.5634,-0.5451,-0.5308,-0.5135,-0.5317,-0.5442,-0.5608,-0.5579,-0.5603,-0.5825,-0.5963,-0.5993,-0.5993,-0.5992,-0.5614,-0.5731,-0.5644,-0.5471,-0.5376,-0.5452,-0.5456,-0.5627,-0.569,-0.5885,-0.6148,-0.6338,-0.6567,-0.6907,-0.726,-0.7632,-0.8236,-0.8958,-0.9798,-1.0174,-1.0491,-1.087,-1.1178,-1.124,-1.0989,-1.1178,-1.1115,-1.0795,-1.0226,-0.9871,-1.0335,-0.9781,-0.9615,-0.9714,-0.9928,-0.9413,-0.7608,-0.659,-0.1489,0.4228,0.4398,0.3774,0.2627,0.0547,-0.5819,-1.0698,-1.2251,-1.2696,-1.2658,-1.2421,-1.2236,-1.1864,-1.1615,-1.2035,-1.2397,-1.3174,-1.3974,-1.4606,-1.5264,-1.5598,-1.5976,-1.6605,-1.6926,-1.6655,-1.6266,-1.5991,-1.5639,-1.4725,-1.3852,-1.3459,-1.3142,-1.2704,-1.255,-1.2498,-1.2035,-1.1572,-1.1561,-1.1574,-1.1265,-1.0748,-1.0346,-0.9972,-0.9443,-0.9078,-0.8934,-0.8773,-0.8532,-0.8215,-0.7943,-0.7747,-0.9013,-0.855,-0.7914,-0.7328,-0.704,-0.7009,-0.671,-0.624,-0.6318,-0.6163,-0.6089,-0.5792,-0.5707,-0.5621,-0.5162,-0.521,-0.5474,-0.5736,-0.5848,-0.5889,-0.6079,-0.6126,-0.6203,-0.6088,-0.5899,-0.585,-0.5793,-0.5698,-0.5532,-0.5437,-0.55,-0.5562,-0.5751,-0.5822,-0.602,-0.6346,-0.6675,-0.6881,-0.7265,-0.7587,-0.8047,-0.87,-0.9472,-1.0364,-1.0681,-1.0926,-1.1178,-1.156,-1.1747,-1.1809,-1.149,-1.1365,-1.1253,-1.0833,-1.0585,-1.0558,-1.0636,-1.0429,-1.013,-1.0248,-0.9229,-0.772,-0.6726,-0.1795,0.4285,0.4366,0.2961,0.253,-0.1884,-0.8435,-0.9888,-1.1819,-1.2557,-1.2443,-1.252,-1.2536,-1.2104,-1.2282,-1.2405,-1.2474,-1.3191,-1.3965,-1.4715,-1.5284,-1.5578,-1.5813,-1.6116,-1.6377,-1.6303,-1.5781,-1.5295,-1.4865,-1.4241,-1.3351,-1.2583,-1.2326,-1.2043,-1.1916,-1.1791,-1.1523,-1.1111,-1.0837,-1.0623,-1.0515,-1.0354,-1.0085,-0.9624,-0.915,-0.8958,-0.8869,-0.8657,-0.848,-0.8109,-0.7788,-0.7408,-0.9514,-0.9136,-0.8436,-0.7981,-0.7786,-0.7716,-0.7488,-0.7246,-0.7169,-0.7019,-0.671,-0.649,-0.6335,-0.6198,-0.5851,-0.5758,-0.5805,-0.5993,-0.6109,-0.617,-0.6186,-0.6196,-0.621,-0.6034,-0.5895,-0.5817,-0.5793,-0.5684,-0.5494,-0.5559,-0.5552,-0.5504,-0.5719,-0.5822,-0.602,-0.6412,-0.6741,-0.7012,-0.7466,-0.7977,-0.849,-0.9204,-1.0104,-1.0737,-1.1059,-1.1185,-1.1435,-1.1677,-1.1685,-1.156,-1.1498,-1.1365,-1.119,-1.1119,-1.1005,-1.0882,-1.1005,-1.0877,-1.0436,-1.0453,-0.9575,-0.7628,-0.6569,-0.1414,0.3824,0.3677,0.0954,-0.1002,-0.3149,-0.9023,-0.9837,-1.1502,-1.2381,-1.265,-1.2842,-1.2666,-1.2482,-1.2956,-1.2842,-1.2666,-1.3692,-1.4478,-1.4911,-1.5361,-1.5615,-1.569,-1.5725,-1.5821,-1.5904,-1.5526,-1.4972,-1.4482,-1.3956,-1.3261,-1.2464,-1.2058,-1.1682,-1.1503,-1.1224,-1.0955,-1.0692,-1.0412,-1.025,-1.0126,-0.9904,-0.9695,-0.9566,-0.9193,-0.8971,-0.8784,-0.8624,-0.8413,-0.802,-0.758,-0.7198,-0.9883,-0.9456,-0.88,-0.8541,-0.8519,-0.8385,-0.8317,-0.8322,-0.8289,-0.8056,-0.7541,-0.7394,-0.7148,-0.6867,-0.6563,-0.6371,-0.6273,-0.6264,-0.6271,-0.624,-0.6162,-0.6162,-0.6146,-0.5983,-0.5806,-0.581,-0.6011,-0.5818,-0.5628,-0.561,-0.559,-0.5559,-0.5695,-0.5822,-0.602,-0.6482,-0.6745,-0.7199,-0.7787,-0.8425,-0.9134,-0.9843,-1.0618,-1.1185,-1.1178,-1.1317,-1.156,-1.1747,-1.1622,-1.1435,-1.1373,-1.1303,-1.0996,-1.1059,-1.1115,-1.0989,-1.0996,-1.0912,-1.0718,-1.0512,-0.9585,-0.7644,-0.5872,-0.0421,0.4598,0.3864,-0.0681,-0.4999,-0.7228,-0.8254,-0.8918,-1.0746,-1.1764,-1.2282,-1.2605,-1.292,-1.2666,-1.2842,-1.3208,-1.3519,-1.4369,-1.4852,-1.5205,-1.543,-1.5696,-1.5914,-1.5961,-1.5792,-1.5786,-1.5419,-1.4893,-1.4343,-1.3779,-1.3168,-1.2528,-1.2027,-1.1645,-1.1308,-1.0916,-1.0516,-1.0282,-1.0053,-0.9868,-0.9677,-0.9526,-0.9342,-0.9302,-0.9194,-0.8831,-0.8618,-0.8564,-0.8277,-0.7747,-0.7198,-0.6766,-1.0134,-0.9908,-0.919,-0.8946,-0.8955,-0.8922,-0.8987,-0.9001,-0.9138,-0.8983,-0.8456,-0.8181,-0.7886,-0.7533,-0.6976,-0.66,-0.6431,-0.64,-0.6352,-0.6331,-0.621,-0.6203,-0.6207,-0.5942,-0.582,-0.5882,-0.6241,-0.6215,-0.5913,-0.5703,-0.5706,-0.5773,-0.5783,-0.5892,-0.602,-0.6552,-0.7134,-0.7652,-0.8355,-0.9198,-0.9977,-1.0295,-1.0681,-1.1052,-1.124,-1.1373,-1.163,-1.1747,-1.1677,-1.1498,-1.1365,-1.124,-1.1059,-1.087,-1.0807,-1.0744,-1.0744,-1.073,-1.0481,-1.0266,-0.9479,-0.7858,-0.6548,-0.1054,0.4191,0.6684,0.2621,-0.4597,-0.6314,-0.7307,-0.8011,-0.9406,-1.0305,-1.1329,-1.2282,-1.2413,-1.2351,-1.2712,-1.3086,-1.345,-1.4052,-1.4765,-1.5303,-1.5526,-1.5738,-1.5921,-1.6036,-1.5833,-1.5583,-1.51,-1.46,-1.3915,-1.3519,-1.2956,-1.249,-1.1996,-1.1569,-1.1181,-1.0673,-1.0177,-0.9904,-0.9684,-0.9468,-0.9272,-0.9098,-0.9072,-0.905,-0.8902,-0.8577,-0.83,-0.8146,-0.7806,-0.7402,-0.6864,-0.6327,-1.0243,-1.0133,-0.9585,-0.9456,-0.951,-0.9288,-0.9335,-0.9434,-0.9508,-0.9345,-0.8994,-0.9016,-0.8783,-0.8362,-0.7965,-0.7474,-0.7017,-0.6849,-0.6563,-0.6321,-0.6273,-0.6186,-0.6173,-0.5962,-0.5803,-0.5974,-0.6085,-0.6161,-0.5957,-0.6012,-0.5965,-0.5888,-0.5903,-0.6017,-0.6218,-0.6679,-0.733,-0.8161,-0.9186,-1.0275,-1.0863,-1.1115,-1.1303,-1.1622,-1.149,-1.156,-1.1622,-1.1879,-1.1685,-1.1498,-1.1365,-1.1247,-1.0996,-1.087,-1.0933,-1.0933,-1.0989,-1.0989,-1.0807,-1.0371,-0.9454,-0.8125,-0.6387,-0.2075,0.4621,0.7254,0.5881,-0.0145,-0.4639,-0.6828,-0.8016,-0.9488,-1.0577,-1.1531,-1.2097,-1.2104,-1.2228,-1.2581,-1.3009,-1.3373,-1.3795,-1.4579,-1.5245,-1.5551,-1.5753,-1.5911,-1.584,-1.5464,-1.5071,-1.4591,-1.3987,-1.3314,-1.3028,-1.2736,-1.2367,-1.1926,-1.1446,-1.1044,-1.0636,-1.0158,-0.9617,-0.9302,-0.9193,-0.9071,-0.8991,-0.893,-0.8835,-0.861,-0.8306,-0.8008,-0.7628,-0.7246,-0.6858,-0.6303,-0.5706,-1.0381,-1.0274,-0.9899,-0.9902,-1.0124,-0.9791,-0.9822,-0.9977,-1.0082,-0.981,-0.9561,-0.9562,-0.9423,-0.9171,-0.8745,-0.8225,-0.7736,-0.7505,-0.7014,-0.657,-0.6353,-0.6364,-0.6395,-0.6212,-0.6158,-0.6219,-0.6834,-0.6768,-0.6643,-0.6596,-0.6507,-0.6075,-0.6078,-0.6222,-0.6544,-0.7068,-0.7782,-0.8994,-1.0142,-1.1038,-1.149,-1.1615,-1.1747,-1.1817,-1.1755,-1.1622,-1.1685,-1.1747,-1.156,-1.1373,-1.1247,-1.1122,-1.0807,-1.0933,-1.1066,-1.1122,-1.124,-1.1428,-1.1185,-1.0807,-0.9964,-0.8037,-0.4114,0.0949,0.4182,0.704,0.6784,0.2345,-0.2437,-0.6262,-0.8645,-0.95,-1.0395,-1.1219,-1.205,-1.205,-1.205,-1.2466,-1.2826,-1.3191,-1.3734,-1.4569,-1.5197,-1.5469,-1.5715,-1.5898,-1.5618,-1.5204,-1.4713,-1.4341,-1.3846,-1.3322,-1.2992,-1.2736,-1.2305,-1.1881,-1.1463,-1.102,-1.0604,-1.0148,-0.9638,-0.9316,-0.9146,-0.9005,-0.8824,-0.8609,-0.8396,-0.8242,-0.8049,-0.7676,-0.7246,-0.6707,-0.6213,-0.5642,-0.5054,-1.0554,-1.0274,-1.0074,-1.0159,-1.0574,-1.0622,-1.0674,-1.0787,-1.0819,-1.072,-1.0378,-1.0054,-0.9757,-0.9546,-0.9207,-0.8847,-0.8616,-0.7978,-0.7481,-0.7129,-0.6913,-0.6787,-0.6765,-0.678,-0.6822,-0.7323,-0.7569,-0.7592,-0.7664,-0.7531,-0.7112,-0.6522,-0.6408,-0.6511,-0.7003,-0.7717,-0.8742,-0.9888,-1.0912,-1.1428,-1.1677,-1.174,-1.1685,-1.1685,-1.163,-1.1685,-1.1802,-1.1622,-1.1428,-1.1303,-1.1122,-1.0933,-1.0807,-1.0996,-1.1129,-1.1185,-1.1498,-1.174,-1.1809,-1.1115,-1.0085,-0.6487,-0.1123,0.4488,0.6131,0.938,0.8279,0.3582,-0.0899,-0.4674,-0.7044,-0.8667,-1.0015,-1.0717,-1.1545,-1.1926,-1.205,-1.2282,-1.2642,-1.307,-1.3674,-1.4392,-1.5284,-1.5646,-1.5766,-1.5938,-1.569,-1.5225,-1.4779,-1.4369,-1.4001,-1.3563,-1.3208,-1.2858,-1.2367,-1.192,-1.1537,-1.1109,-1.0643,-1.0189,-0.9778,-0.9453,-0.92,-0.8871,-0.8624,-0.8318,-0.7985,-0.7746,-0.7535,-0.7203,-0.681,-0.6273,-0.5537,-0.4763,-0.4194,-1.0819,-1.0727,-1.0651,-1.0605,-1.0675,-1.0621,-1.082,-1.0982,-1.0982,-1.1079,-1.0995,-1.0495,-1.0298,-1.031,-1.0116,-0.9557,-0.9147,-0.876,-0.8186,-0.7647,-0.7382,-0.7305,-0.7218,-0.7251,-0.733,-0.7694,-0.7941,-0.7975,-0.7742,-0.8136,-0.7892,-0.7358,-0.7015,-0.7245,-0.7782,-0.8683,-0.9837,-1.0611,-1.1373,-1.1872,-1.1988,-1.1996,-1.1941,-1.1941,-1.1692,-1.1817,-1.1941,-1.1685,-1.156,-1.1365,-1.1122,-1.0933,-1.0807,-1.1059,-1.1185,-1.1303,-1.1685,-1.2182,-1.2243,-1.1288,-0.9691,-0.6433,-0.0425,0.5379,0.7331,0.8688,0.8293,0.4733,0.0548,-0.3921,-0.7584,-0.918,-1.0142,-1.0528,-1.0968,-1.1608,-1.1732,-1.1841,-1.2458,-1.2887,-1.3312,-1.3914,-1.4874,-1.5816,-1.5911,-1.5921,-1.5594,-1.5254,-1.4843,-1.4369,-1.401,-1.364,-1.3285,-1.2801,-1.2296,-1.1989,-1.1688,-1.1199,-1.0713,-1.0349,-0.9953,-0.9549,-0.9241,-0.8829,-0.8435,-0.8045,-0.7686,-0.7307,-0.7049,-0.6856,-0.6386,-0.5837,-0.4965,-0.4006,-0.3481,-1.1165,-1.1089,-1.1094,-1.0997,-1.0885,-1.082,-1.1006,-1.1164,-1.1093,-1.1069,-1.1214,-1.0826,-1.0816,-1.0899,-1.0635,-1.0264,-0.9672,-0.9294,-0.8709,-0.8177,-0.7777,-0.7675,-0.7731,-0.777,-0.7938,-0.8062,-0.8319,-0.8451,-0.8684,-0.874,-0.8643,-0.8361,-0.7826,-0.7936,-0.8484,-0.9773,-1.0792,-1.1454,-1.1807,-1.2282,-1.2367,-1.2235,-1.2127,-1.2073,-1.1817,-1.1755,-1.1809,-1.1622,-1.1435,-1.131,-1.1122,-1.0933,-1.0933,-1.1115,-1.1365,-1.1615,-1.1926,-1.2436,-1.2367,-1.1212,-0.9227,-0.6544,-0.1303,0.4934,0.8528,0.8428,0.8231,0.7817,0.1997,-0.3973,-0.7639,-0.9384,-0.9633,-0.9888,-1.0759,-1.1329,-1.0968,-1.0961,-1.1888,-1.2696,-1.3122,-1.3537,-1.4638,-1.5594,-1.5884,-1.5874,-1.572,-1.5313,-1.4775,-1.4359,-1.3941,-1.358,-1.3216,-1.2777,-1.2279,-1.2035,-1.1781,-1.1204,-1.0755,-1.0523,-1.0144,-0.9701,-0.9267,-0.8838,-0.8361,-0.7912,-0.747,-0.7079,-0.6824,-0.6534,-0.5905,-0.5066,-0.4187,-0.3291,-0.2928,-1.1521,-1.1327,-1.1343,-1.1262,-1.1262,-1.1262,-1.1419,-1.1541,-1.1275,-1.1115,-1.1042,-1.0778,-1.0808,-1.1,-1.0648,-1.0295,-1.0064,-0.968,-0.918,-0.8513,-0.8207,-0.8138,-0.8231,-0.8318,-0.8609,-0.9236,-0.9365,-0.9516,-0.9963,-0.9536,-0.9508,-0.9508,-0.8997,-0.8717,-0.8882,-1.0218,-1.1553,-1.2491,-1.2396,-1.253,-1.2623,-1.239,-1.2212,-1.2079,-1.1824,-1.1755,-1.1747,-1.1435,-1.1247,-1.1185,-1.0989,-1.087,-1.1059,-1.131,-1.156,-1.1747,-1.2058,-1.2436,-1.2736,-1.101,-0.914,-0.697,-0.2129,0.3648,0.9282,1.0146,0.8874,0.8005,0.3448,-0.205,-0.6008,-0.9128,-0.9128,-0.9244,-1.0116,-1.0627,-1.0262,-1.0078,-1.0947,-1.2074,-1.2618,-1.321,-1.4382,-1.5303,-1.571,-1.5826,-1.5788,-1.543,-1.4834,-1.4359,-1.3941,-1.358,-1.3208,-1.2732,-1.2318,-1.2197,-1.1905,-1.1249,-1.0748,-1.043,-1.0059,-0.9556,-0.9123,-0.8792,-0.8185,-0.7556,-0.7211,-0.6909,-0.6288,-0.5589,-0.4963,-0.4171,-0.3257,-0.2724,-0.2481,-1.2186,-1.1774,-1.1613,-1.1527,-1.1527,-1.1613,-1.1613,-1.1682,-1.1525,-1.1481,-1.1352,-1.1055,-1.084,-1.0805,-1.0808,-1.0465,-0.9966,-1.0029,-0.9508,-0.899,-0.8716,-0.8846,-0.887,-0.8932,-0.9236,-0.9573,-0.9867,-1.0138,-1.0359,-1.0136,-1.0166,-1.0093,-1.0098,-1.0086,-1.0283,-1.1078,-1.2108,-1.2603,-1.2716,-1.2932,-1.3045,-1.2711,-1.2329,-1.2175,-1.1899,-1.1755,-1.1747,-1.131,-1.1122,-1.1122,-1.087,-1.0807,-1.1059,-1.1373,-1.1498,-1.1622,-1.1809,-1.1747,-1.1545,-1.0458,-0.9163,-0.6865,-0.4246,0.1445,0.8575,0.6849,0.6816,0.7079,0.3983,-0.1234,-0.6059,-0.8264,-0.8603,-0.821,-0.8779,-0.9436,-0.9512,-0.9442,-0.9875,-1.1135,-1.1943,-1.3381,-1.4634,-1.5381,-1.5778,-1.5778,-1.573,-1.5439,-1.4902,-1.4419,-1.4001,-1.358,-1.3199,-1.2671,-1.2296,-1.2066,-1.168,-1.1109,-1.0585,-1.0228,-0.9819,-0.9368,-0.8856,-0.8458,-0.7862,-0.7247,-0.6726,-0.6122,-0.5209,-0.4428,-0.4058,-0.3644,-0.3056,-0.2571,-0.2237,-1.2528,-1.2129,-1.1785,-1.1699,-1.1699,-1.1613,-1.1527,-1.1613,-1.178,-1.178,-1.1552,-1.118,-1.1047,-1.099,-1.091,-1.0558,-0.9871,-0.9807,-0.9647,-0.9185,-0.9,-0.8975,-0.913,-0.9427,-0.9552,-0.9883,-1.0137,-1.0431,-1.0888,-1.0925,-1.0914,-1.088,-1.1009,-1.0922,-1.1104,-1.1653,-1.2397,-1.2764,-1.3056,-1.3076,-1.3138,-1.29,-1.2469,-1.2218,-1.1977,-1.1747,-1.156,-1.131,-1.1059,-1.0996,-1.087,-1.0814,-1.1066,-1.1373,-1.1498,-1.156,-1.1622,-1.1428,-1.1045,-1.073,-0.9372,-0.7418,-0.6461,-0.1437,0.5619,0.5836,0.6306,0.6023,0.3846,0.0055,-0.429,-0.6299,-0.8161,-0.7767,-0.7697,-0.8415,-0.8792,-0.8663,-0.9186,-1.0454,-1.1833,-1.3314,-1.4855,-1.54,-1.5961,-1.5788,-1.5614,-1.5264,-1.4911,-1.4428,-1.3941,-1.345,-1.2984,-1.244,-1.1997,-1.165,-1.1319,-1.0898,-1.0451,-1.003,-0.9669,-0.9285,-0.8695,-0.8092,-0.7601,-0.6968,-0.6142,-0.5385,-0.4621,-0.4013,-0.3574,-0.3197,-0.2751,-0.2462,-0.2131,-1.2616,-1.2381,-1.1866,-1.1699,-1.1699,-1.144,-1.1348,-1.1435,-1.2032,-1.1946,-1.1332,-1.1337,-1.1126,-1.1113,-1.1052,-1.0537,-0.9958,-0.9711,-0.9456,-0.9089,-0.8916,-0.9,-0.9268,-0.96,-0.9825,-0.9988,-1.0268,-1.073,-1.1391,-1.1556,-1.1507,-1.1352,-1.1397,-1.1359,-1.156,-1.1897,-1.2583,-1.3114,-1.3134,-1.3273,-1.3427,-1.2996,-1.2633,-1.235,-1.2107,-1.1814,-1.1527,-1.1178,-1.0933,-1.0807,-1.0751,-1.0954,-1.1206,-1.1567,-1.1622,-1.1685,-1.1685,-1.1505,-1.117,-1.0856,-0.9894,-0.821,-0.665,-0.2145,0.2266,0.5509,0.6601,0.6372,0.482,0.1721,-0.1519,-0.4763,-0.7922,-0.7461,-0.6929,-0.7358,-0.7815,-0.823,-0.8898,-0.9996,-1.1407,-1.3028,-1.4891,-1.5742,-1.5941,-1.5672,-1.5439,-1.5196,-1.4784,-1.4249,-1.3761,-1.3139,-1.2655,-1.2142,-1.1721,-1.1403,-1.0961,-1.0566,-1.0112,-0.9707,-0.9431,-0.909,-0.8514,-0.7936,-0.7429,-0.671,-0.5724,-0.4907,-0.4288,-0.3719,-0.3231,-0.2875,-0.2535,-0.2342,-0.2063,-1.2871,-1.254,-1.2283,-1.2123,-1.1871,-1.1699,-1.1699,-1.1785,-1.1952,-1.1699,-1.1596,-1.1259,-1.0972,-1.0589,-1.068,-1.0098,-0.9708,-0.9381,-0.9402,-0.917,-0.9005,-0.9263,-0.9553,-0.9788,-1.0013,-1.022,-1.0542,-1.0968,-1.1558,-1.1929,-1.1781,-1.1476,-1.1689,-1.1678,-1.1774,-1.202,-1.2781,-1.3225,-1.3216,-1.3431,-1.3541,-1.3191,-1.2897,-1.2657,-1.2428,-1.2045,-1.1592,-1.1353,-1.1157,-1.0954,-1.0947,-1.1129,-1.1582,-1.1453,-1.131,-1.1435,-1.1707,-1.1847,-1.1358,-1.085,-1.0148,-0.9041,-0.7618,-0.3375,0.1322,0.5015,0.6653,0.6208,0.5772,0.3251,-0.0408,-0.3831,-0.6043,-0.6175,-0.6112,-0.6743,-0.7274,-0.817,-0.8918,-1.0261,-1.1622,-1.3108,-1.4946,-1.5733,-1.5806,-1.5478,-1.5254,-1.5079,-1.4715,-1.4121,-1.3571,-1.3017,-1.2512,-1.2012,-1.1603,-1.1281,-1.0752,-1.0216,-0.9775,-0.9381,-0.9007,-0.8606,-0.8299,-0.7691,-0.6943,-0.6071,-0.5109,-0.4445,-0.3932,-0.3353,-0.288,-0.2596,-0.2368,-0.2175,-0.1945,-1.3399,-1.2723,-1.2705,-1.2369,-1.1957,-1.1866,-1.178,-1.1785,-1.178,-1.1785,-1.1499,-1.1264,-1.0902,-1.0619,-1.0428,-0.9911,-0.9291,-0.9246,-0.925,-0.9134,-0.9122,-0.9364,-0.9675,-1.0018,-1.0204,-1.0439,-1.0691,-1.1111,-1.1632,-1.2024,-1.2004,-1.1703,-1.1923,-1.1955,-1.2054,-1.2358,-1.2818,-1.3187,-1.3393,-1.3522,-1.3517,-1.333,-1.3111,-1.3017,-1.2821,-1.2325,-1.1731,-1.156,-1.1234,-1.0985,-1.0921,-1.1258,-1.1715,-1.1689,-1.1585,-1.1759,-1.1887,-1.2011,-1.1732,-1.1045,-1.0528,-0.9679,-0.8323,-0.5253,-0.0295,0.412,0.5399,0.5936,0.5913,0.487,0.0792,-0.2737,-0.375,-0.466,-0.5424,-0.6123,-0.7168,-0.818,-0.9421,-1.0757,-1.2102,-1.3416,-1.4572,-1.5371,-1.5728,-1.5362,-1.5137,-1.501,-1.4597,-1.4001,-1.3442,-1.2879,-1.2413,-1.1973,-1.1498,-1.0989,-1.0465,-0.9939,-0.94,-0.9,-0.8572,-0.8221,-0.7892,-0.7163,-0.6258,-0.545,-0.4718,-0.4209,-0.3653,-0.3081,-0.2632,-0.2423,-0.2227,-0.2046,-0.1825,-1.4031,-1.279,-1.2875,-1.254,-1.1866,-1.2026,-1.1854,-1.1435,-1.186,-1.1768,-1.1353,-1.1248,-1.11,-1.0735,-1.0306,-0.9886,-0.9468,-0.9288,-0.9237,-0.9076,-0.9218,-0.9469,-0.9876,-1.017,-1.0347,-1.0501,-1.0733,-1.118,-1.17,-1.2018,-1.2168,-1.1916,-1.2193,-1.2179,-1.2045,-1.2498,-1.2885,-1.3038,-1.3059,-1.3091,-1.3361,-1.3204,-1.2975,-1.3263,-1.2989,-1.2491,-1.1861,-1.139,-1.1009,-1.0929,-1.0989,-1.1363,-1.1793,-1.2108,-1.2069,-1.2172,-1.2205,-1.2305,-1.2166,-1.1663,-1.1087,-1.0053,-0.8447,-0.6707,-0.2662,0.4796,0.7263,0.6233,0.5952,0.5621,0.2471,-0.2278,-0.4563,-0.4786,-0.5176,-0.6012,-0.7052,-0.8578,-1.0547,-1.1722,-1.258,-1.3898,-1.5158,-1.5919,-1.5668,-1.5274,-1.5137,-1.5069,-1.4597,-1.3941,-1.3381,-1.2757,-1.2274,-1.1802,-1.1178,-1.0611,-1.0168,-0.9646,-0.9105,-0.8784,-0.8451,-0.7989,-0.7545,-0.668,-0.5765,-0.5065,-0.442,-0.3893,-0.3374,-0.2839,-0.2463,-0.2252,-0.2101,-0.1812,-0.1651,-1.369,-1.3222,-1.2875,-1.2619,-1.2448,-1.2534,-1.2272,-1.1849,-1.1935,-1.1645,-1.1164,-1.1066,-1.0942,-1.0726,-1.0184,-0.9885,-0.9658,-0.9316,-0.9332,-0.9395,-0.9432,-0.9759,-1.0085,-1.0312,-1.0461,-1.0691,-1.1007,-1.1323,-1.1687,-1.1998,-1.2031,-1.1675,-1.2047,-1.2276,-1.1924,-1.2417,-1.2818,-1.2899,-1.2795,-1.2803,-1.3021,-1.2787,-1.2576,-1.2766,-1.2654,-1.2661,-1.2248,-1.2166,-1.1933,-1.1788,-1.184,-1.2033,-1.2342,-1.2299,-1.2412,-1.2516,-1.2444,-1.2621,-1.2666,-1.2343,-1.1896,-1.1315,-1.009,-0.835,-0.3668,0.5139,0.8887,0.6957,0.5993,0.5637,0.3641,-0.1263,-0.5111,-0.4909,-0.4976,-0.6019,-0.7098,-0.9349,-1.154,-1.2447,-1.3225,-1.4364,-1.565,-1.592,-1.5565,-1.5438,-1.5391,-1.5186,-1.4647,-1.4052,-1.345,-1.2826,-1.2205,-1.1593,-1.0892,-1.0292,-0.9756,-0.9336,-0.8879,-0.8581,-0.828,-0.7501,-0.6746,-0.6054,-0.5262,-0.4623,-0.4076,-0.3624,-0.3077,-0.2555,-0.2148,-0.1935,-0.1637,-0.1323,-0.129,-1.3933,-1.3398,-1.2881,-1.2705,-1.2619,-1.2448,-1.2213,-1.1866,-1.168,-1.1322,-1.0996,-1.1002,-1.0887,-1.0612,-1.0103,-0.9779,-0.9644,-0.9343,-0.9411,-0.9601,-0.9851,-1.0038,-1.0248,-1.0438,-1.0576,-1.0807,-1.118,-1.1545,-1.1755,-1.2011,-1.2037,-1.1784,-1.2158,-1.222,-1.1831,-1.2314,-1.2691,-1.2731,-1.2571,-1.2616,-1.2797,-1.2482,-1.2624,-1.2779,-1.2892,-1.2736,-1.2415,-1.2262,-1.2091,-1.2027,-1.2154,-1.218,-1.2409,-1.2617,-1.2603,-1.2523,-1.2498,-1.2805,-1.2903,-1.2895,-1.2581,-1.2004,-1.0662,-0.8484,-0.5649,0.2217,0.6066,0.4896,0.7197,0.7212,0.3185,-0.1497,-0.3661,-0.4306,-0.4896,-0.5813,-0.8054,-1.0597,-1.2201,-1.3219,-1.4082,-1.5125,-1.6098,-1.6492,-1.6063,-1.5342,-1.5352,-1.5118,-1.4647,-1.4231,-1.3571,-1.2915,-1.2265,-1.1439,-1.0677,-0.9985,-0.9363,-0.9023,-0.8673,-0.8064,-0.7486,-0.671,-0.5898,-0.5443,-0.4915,-0.4304,-0.3769,-0.3313,-0.2768,-0.219,-0.1858,-0.1533,-0.1177,-0.0901,-0.0818,-1.4289,-1.3411,-1.2966,-1.279,-1.2705,-1.2357,-1.2053,-1.1773,-1.1322,-1.1061,-1.0988,-1.1046,-1.107,-1.0684,-1.0111,-0.9734,-0.9532,-0.9617,-0.9663,-0.986,-1.006,-1.0318,-1.049,-1.0663,-1.0812,-1.1111,-1.1403,-1.1694,-1.1909,-1.2104,-1.2215,-1.2061,-1.2192,-1.2282,-1.2204,-1.2372,-1.2669,-1.2839,-1.2794,-1.2587,-1.2475,-1.2301,-1.2682,-1.2996,-1.3145,-1.2673,-1.2331,-1.2179,-1.1941,-1.1956,-1.2207,-1.2258,-1.2311,-1.2528,-1.2367,-1.2281,-1.2305,-1.2613,-1.285,-1.2834,-1.265,-1.202,-1.0286,-0.809,-0.5353,-0.1587,0.2218,0.466,0.6946,0.6499,0.2489,-0.1035,-0.2893,-0.4087,-0.4947,-0.6026,-0.878,-1.1536,-1.2851,-1.3987,-1.4943,-1.594,-1.6413,-1.6814,-1.642,-1.57,-1.5177,-1.4883,-1.4597,-1.4291,-1.3872,-1.3082,-1.2305,-1.1466,-1.0579,-0.9894,-0.9202,-0.8634,-0.8258,-0.7451,-0.6754,-0.6075,-0.5536,-0.5137,-0.4612,-0.3985,-0.3524,-0.3057,-0.2497,-0.1886,-0.1437,-0.1043,-0.0825,-0.0555,-0.0361,-1.42,-1.3398,-1.3476,-1.3392,-1.3222,-1.3137,-1.2813,-1.2266,-1.1727,-1.1294,-1.1118,-1.1329,-1.1358,-1.0813,-1.0187,-0.9857,-1.0038,-1.0027,-1.0129,-1.0329,-1.0409,-1.0582,-1.0743,-1.0962,-1.1111,-1.1409,-1.1632,-1.1848,-1.1996,-1.2211,-1.2456,-1.2628,-1.2333,-1.2381,-1.2316,-1.252,-1.2729,-1.2868,-1.2917,-1.2839,-1.266,-1.248,-1.2291,-1.2549,-1.2818,-1.2814,-1.2851,-1.2942,-1.2656,-1.2402,-1.2165,-1.219,-1.2172,-1.216,-1.2055,-1.2022,-1.205,-1.2305,-1.2482,-1.2712,-1.2597,-1.2413,-1.0732,-0.885,-0.5445,-0.1114,0.1763,0.3251,0.4826,0.4885,0.1692,-0.201,-0.4348,-0.4585,-0.516,-0.6937,-0.9167,-1.1776,-1.3794,-1.4793,-1.5753,-1.6535,-1.7153,-1.72,-1.6976,-1.6322,-1.5816,-1.542,-1.4893,-1.4538,-1.4121,-1.3305,-1.2481,-1.1451,-1.049,-0.9865,-0.9202,-0.8527,-0.7754,-0.6884,-0.6125,-0.5593,-0.5128,-0.4774,-0.4342,-0.3766,-0.3296,-0.2737,-0.2195,-0.1585,-0.1,-0.0598,-0.0388,-0.0188,-0.0061]}]]